[[{"header":{"parameterUnit":"m.s-1","parameterCategory":1,"la1":31.0,"la2":29.5877,"lo1":-88.7671,"lo2":-86.6584,"dx":0.0162,"dy":0.0185,"nx":115,"ny":88,"refTime":"2022-11-27T06:00:00:Z","depth":0,"parameterNumber":2,"parameterNumberName":"U-component_of_WINDS"},"data":[0.0,0.0,0.0,0.0,0.0,0.0,0.0,0.0,0.0,0.0,0.0,0.0,0.0,0.0,0.0,0.0,0.0,0.0,0.0,0.0,0.0,0.0,0.0,0.0,0.0,0.0,0.0,0.0,0.0,0.0,0.0,0.0,0.0,0.0,0.0,0.0,0.0,0.0,0.0,0.0,0.0,0.0,0.0,0.0,0.0,0.0,0.0,0.0,0.0,0.0,0.0,0.0,0.0,0.0,0.0,0.0,0.0,0.0,0.0,0.0,0.0,0.0,0.0,0.0,0.0,0.0,0.0,0.0,0.0,0.0,0.0,0.0,0.0,0.0,0.0,0.0,0.0,0.0,0.0,0.0,0.0,0.0,0.0,0.0,0.0,0.0,0.0,0.0,0.0,0.0,0.0,0.0,0.0,0.0,0.0,0.0,0.0,0.0,0.0,0.0,0.0,0.0,0.0,0.0,0.0,0.0,0.0,0.0,0.0,0.0,0.0,0.0,0.0,0.0,0.0,0.0,0.0,0.0,0.0,0.0,0.0,0.0,0.0,0.0,0.0,0.0,0.0,0.0,0.0,0.0,0.0,0.0,0.0,0.0,0.0,0.0,0.0,0.0,0.0,0.0,0.0,0.0,0.0,0.0,0.0,0.0,0.0,0.0,0.0,0.0,0.0,0.0,0.0,0.0,0.0,0.0,0.0,0.0,0.0,0.0,0.0,0.0,0.0,0.0,0.0,0.0,0.0,0.0,0.0,0.0,0.0,0.0,0.0,0.0,0.0,0.0,0.0,0.0,0.0,0.0,0.0,0.0,0.0,0.0,0.0,0.0,0.0,0.0,0.0,0.0,0.0,0.0,0.0,0.0,0.0,0.0,0.0,0.0,0.0,0.0,0.0,0.0,0.0,0.0,0.0,0.0,0.0,0.0,0.0,0.0,0.0,0.0,0.0,0.0,0.0,0.0,0.0,0.0,0.0,0.0,0.0,0.0,0.0,0.0,0.0,0.0,0.0,0.0,0.0,0.0,0.0,0.0,0.0,0.0,0.0,0.0,0.0,0.0,0.0,0.0,0.0,0.0,0.0,0.0,0.0,0.0,0.0,0.0,0.0,0.0,0.0,0.0,0.0,0.0,0.0,0.0,0.0,0.0,0.0,0.0,0.0,0.0,0.0,0.0,0.0,0.0,0.0,0.0,0.0,0.0,0.0,0.0,0.0,0.0,0.0,0.0,0.0,0.0,0.0,0.0,0.0,0.0,0.0,0.0,0.0,0.0,0.0,0.0,0.0,0.0,0.0,0.0,0.0,0.0,0.0,0.0,0.0,0.0,0.0,0.0,0.0,0.0,0.0,0.0,0.0,0.0,0.0,0.0,0.0,0.0,0.0,0.0,0.0,0.0,0.0,0.0,0.0,0.0,0.0,0.0,0.0,0.0,0.0,0.0,0.0,0.0,0.0,0.0,0.0,0.0,0.0,0.0,0.0,0.0,0.0,0.0,0.0,0.0,0.0,0.0,0.0,0.0,0.0,0.0,0.0,0.0,0.0,0.0,0.0,0.0,0.0,0.0,0.0,0.0,0.0,0.0,0.0,0.0,0.0,0.0,0.0,0.0,0.0,0.0,0.0,0.0,0.0,0.0,0.0,0.0,0.0,0.0,0.0,0.0,0.0,0.0,0.0,0.0,0.0,0.0,0.0,0.0,0.0,0.0,0.0,0.0,0.0,0.0,0.0,0.0,0.0,0.0,0.0,0.0,0.0,0.0,0.0,0.0,0.0,0.0,0.0,0.0,0.0,0.0,0.0,0.0,0.0,0.0,0.0,0.0,0.0,0.0,0.0,0.0,0.0,0.0,0.0,0.0,0.0,0.0,0.0,0.0,0.0,0.0,0.0,0.0,0.0,0.0,0.0,0.0,0.0,0.0,0.0,0.0,0.0,0.0,0.0,0.0,0.0,0.0,0.0,0.0,0.0,0.0,0.0,0.0,0.0,0.0,0.0,0.0,0.0,0.0,0.0,0.0,0.0,0.0,0.0,0.0,0.0,0.0,0.0,0.0,0.0,0.0,0.0,0.0,0.0,0.0,0.0,0.0,0.0,0.0,0.0,0.0,0.0,0.0,0.0,0.0,0.0,0.0,0.0,0.0,0.0,0.0,0.0,0.0,0.0,0.0,0.0,0.0,0.0,0.0,0.0,0.0,0.0,0.0,0.0,0.0,0.0,0.0,0.0,0.0,0.0,0.0,0.0,0.0,0.0,0.0,0.0,0.0,0.0,0.0,0.0,0.0,0.0,0.0,0.0,0.0,0.0,0.0,0.0,0.0,0.0,0.0,0.0,0.0,0.0,0.0,0.0,0.0,0.0,0.0,0.0,0.0,0.0,0.0,0.0,0.0,0.0,0.0,0.0,0.0,0.0,0.0,0.0,0.0,0.0,0.0,0.0,0.0,0.0,0.0,0.0,0.0,0.0,0.0,0.0,0.0,0.0,0.0,0.0,0.0,0.0,0.0,0.0,0.0,0.0,0.0,0.0,0.0,0.0,0.0,0.0,0.0,0.0,0.0,0.0,0.0,0.0,0.0,0.0,0.0,0.0,0.0,0.0,0.0,0.0,0.0,0.0,0.0,0.0,0.0,0.0,0.0,0.0,0.0,0.0,0.0,0.0,0.0,0.0,0.0,0.0,0.0,0.0,0.0,0.0,0.0,0.0,0.0,0.0,0.0,0.0,0.0,0.0,0.0,0.0,0.0,0.0,0.0,0.0,0.0,0.0,0.0,0.0,0.0,0.0,0.0,0.0,0.0,0.0,0.0,0.0,0.0,0.0,0.0,0.0,0.0,0.0,0.0,0.0,0.0,0.0,0.0,0.0,0.0,0.0,0.0,0.0,0.0,0.0,0.0,0.0,0.0,0.0,0.0,0.0,0.0,0.0,0.0,0.0,0.0,0.0,0.0,0.0,0.0,0.0,0.0,0.0,0.0,0.0,0.0,0.0,0.0,0.0,0.0,0.0,0.0,0.0,0.0,0.0,0.0,0.0,0.0,0.0,0.0,0.0,0.0,0.0,0.0,0.0,0.0,0.0,0.0,0.0,0.0,0.0,0.0,0.0,0.0,0.0,0.0,0.0,0.0,0.0,0.0,0.0,0.0,0.0,0.0,0.0,0.0,0.0,0.0,0.0,0.0,0.0,0.0,0.0,0.0,0.0,0.0,0.0,0.0,0.0,0.0,0.0,0.0,0.0,0.0,0.0,0.0,0.0,0.0,0.0,0.0,0.0,0.0,0.0,0.0,0.0,0.0,0.0,0.0,0.0,0.0,0.0,0.0,0.0,0.0,0.0,0.0,0.0,0.0,0.0,0.0,0.0,0.0,0.0,0.0,0.0,0.0,0.0,0.0,0.0,0.0,0.0,0.0,0.0,0.0,0.0,0.0,0.0,0.0,0.0,0.0,0.0,0.0,0.0,0.0,0.0,0.0,0.0,0.0,0.0,0.0,0.0,0.0,0.0,0.0,0.0,0.0,0.0,0.0,0.0,0.0,0.0,0.0,0.0,0.0,0.0,0.0,0.0,0.0,0.0,0.0,0.0,0.0,0.0,0.0,0.0,0.0,0.0,0.0,0.0,0.0,0.0,0.0,0.0,0.0,0.0,0.0,0.0,0.0,0.0,0.0,0.0,0.0,0.0,0.0,0.0,0.0,0.0,0.0,0.0,0.0,0.0,0.0,0.0,0.0,0.0,0.0,0.0,0.0,0.0,0.0,0.0,0.0,0.0,0.0,0.0,0.0,0.0,0.0,0.0,0.0,0.0,0.0,0.0,0.0,0.0,0.0,0.0,0.0,0.0,0.0,0.0,0.0,0.0,0.0,0.0,0.0,0.0,0.0,0.0,0.0,0.0,0.0,0.0,0.0,0.0,0.0,0.0,0.0,0.0,0.0,0.0,0.0,0.0,0.0,0.0,0.0,0.0,0.0,0.0,0.0,0.0,0.0,0.0,0.0,0.0,0.0,0.0,0.0,0.0,0.0,0.0,0.0,0.0,0.0,0.0,0.0,0.0,0.0,0.0,0.0,0.0,0.0,0.0,0.0,0.0,0.0,0.0,0.0,0.0,0.0,0.0,0.0,0.0,0.0,0.0,0.0,0.0,0.0,0.0,0.0,0.0,0.0,0.0,0.0,0.0,0.0,0.0,0.0,0.0,0.0,0.0,0.0,0.0,0.0,0.0,0.0,0.0,0.0,0.0,0.0,0.0,0.0,0.0,0.0,0.0,0.0,-1.1091,0.0,0.0,0.0,-1.0207,0.0,0.0,0.0,0.0,0.0,0.0,0.0,0.0,0.0,0.0,0.0,0.0,0.0,0.0,0.0,0.0,0.0,0.0,0.0,0.0,0.0,0.0,0.0,0.0,0.0,0.0,0.0,0.0,0.0,0.0,0.0,0.0,0.0,0.0,0.0,0.0,0.0,0.0,0.0,0.0,0.0,0.0,0.0,0.0,0.0,0.0,0.0,0.0,0.0,0.0,0.0,0.0,0.0,0.0,0.0,0.0,0.0,0.0,0.0,0.0,0.0,0.0,0.0,0.0,0.0,0.0,0.0,0.0,0.0,0.0,0.0,0.0,0.0,0.0,0.0,0.0,0.0,0.0,0.0,0.0,0.0,0.0,0.0,0.0,0.0,0.0,0.0,0.0,0.0,0.0,0.0,0.0,0.0,0.0,0.0,0.0,0.0,0.0,0.0,0.0,0.0,0.0,0.0,0.0,0.0,0.0,0.0,0.0,0.0,0.0,-1.105,-0.9968,-1.1573,-1.1648,-1.0006,0.0,0.0,0.0,0.0,0.0,0.0,0.0,0.0,0.0,0.0,0.0,0.0,0.0,0.0,0.0,0.0,0.0,0.0,0.0,0.0,0.0,0.0,0.0,0.0,0.0,0.0,0.0,0.0,0.0,0.0,0.0,0.0,0.0,0.0,0.0,0.0,0.0,0.0,0.0,0.0,0.0,0.0,0.0,0.0,0.0,0.0,0.0,0.0,0.0,0.0,0.0,0.0,0.0,0.0,0.0,0.0,0.0,0.0,0.0,0.0,0.0,0.0,0.0,0.0,0.0,0.0,0.0,0.0,0.0,0.0,0.0,0.0,0.0,0.0,0.0,0.0,0.0,0.0,0.0,0.0,0.0,0.0,0.0,0.0,0.0,0.0,0.0,0.0,0.0,0.0,0.0,0.0,0.0,0.0,0.0,0.0,0.0,0.0,0.0,0.0,0.0,0.0,0.0,0.0,0.0,0.0,0.0,0.0,0.0,0.0,0.0,0.0,-1.2137,-1.2209,-1.0571,0.0,0.0,0.0,0.0,0.0,0.0,0.0,0.0,0.0,0.0,0.0,0.0,0.0,0.0,0.0,0.0,0.0,0.0,0.0,0.0,0.0,0.0,0.0,0.0,0.0,0.0,0.0,0.0,0.0,0.0,0.0,0.0,0.0,0.0,0.0,0.0,0.0,0.0,0.0,0.0,0.0,0.0,0.0,0.0,0.0,0.0,0.0,0.0,0.0,0.0,0.0,0.0,0.0,0.0,0.0,0.0,0.0,0.0,0.0,0.0,0.0,0.0,0.0,0.0,0.0,0.0,0.0,0.0,0.0,0.0,0.0,0.0,0.0,0.0,0.0,0.0,0.0,0.0,0.0,0.0,0.0,0.0,0.0,0.0,0.0,0.0,0.0,0.0,0.0,0.0,0.0,0.0,0.0,0.0,0.0,0.0,0.0,0.0,0.0,0.0,0.0,0.0,0.0,0.0,0.0,0.0,0.0,0.0,0.0,0.0,-1.0734,-1.2124,-1.2366,0.0,-1.2174,0.0,0.0,0.0,0.0,0.0,0.0,0.0,0.0,0.0,0.0,0.0,0.0,0.0,0.0,0.0,0.0,0.0,0.0,0.0,0.0,0.0,0.0,0.0,0.0,0.0,0.0,0.0,0.0,0.0,0.0,0.0,0.0,0.0,0.0,0.0,0.0,0.0,0.0,0.0,0.0,0.0,0.0,0.0,0.0,0.0,0.0,0.0,0.0,0.0,0.0,0.0,0.0,0.0,0.0,0.0,0.0,0.0,0.0,0.0,0.0,0.0,0.0,0.0,0.0,0.0,0.0,0.0,0.0,0.0,0.0,0.0,0.0,0.0,0.0,0.0,0.0,0.0,0.0,0.0,0.0,0.0,0.0,0.0,0.0,0.0,0.0,0.0,0.0,0.0,0.0,0.0,0.0,0.0,0.0,0.0,0.0,0.0,0.0,0.0,0.0,0.0,0.0,0.0,0.0,0.0,0.0,0.0,0.0,0.0,0.0,-1.1698,-1.2388,-1.2388,-1.2388,0.0,0.0,0.0,0.0,0.0,0.0,0.0,0.0,0.0,0.0,0.0,0.0,0.0,0.0,0.0,0.0,0.0,0.0,0.0,0.0,0.0,0.0,0.0,0.0,0.0,0.0,0.0,0.0,0.0,0.0,0.0,0.0,0.0,0.0,0.0,0.0,0.0,0.0,0.0,0.0,0.0,0.0,0.0,0.0,0.0,0.0,0.0,0.0,0.0,0.0,0.0,0.0,0.0,0.0,0.0,0.0,0.0,0.0,0.0,0.0,0.0,0.0,0.0,0.0,0.0,0.0,0.0,0.0,0.0,0.0,0.0,0.0,0.0,0.0,0.0,0.0,0.0,0.0,0.0,0.0,0.0,0.0,0.0,0.0,0.0,0.0,0.0,0.0,0.0,0.0,0.0,0.0,0.0,0.0,0.0,0.0,0.0,0.0,0.0,0.0,0.0,0.0,0.0,0.0,0.0,0.0,0.0,0.0,0.0,0.0,-1.2011,-1.263,-1.3044,-1.3082,-1.2818,-1.2203,0.0,0.0,0.0,0.0,0.0,0.0,0.0,0.0,0.0,0.0,0.0,0.0,0.0,0.0,0.0,0.0,0.0,0.0,0.0,0.0,0.0,0.0,0.0,0.0,0.0,0.0,0.0,0.0,0.0,0.0,0.0,0.0,0.0,0.0,0.0,0.0,0.0,0.0,0.0,0.0,0.0,0.0,0.0,0.0,0.0,0.0,0.0,0.0,0.0,0.0,0.0,0.0,0.0,0.0,0.0,0.0,0.0,0.0,0.0,0.0,0.0,0.0,0.0,0.0,0.0,0.0,0.0,0.0,0.0,0.0,0.0,0.0,0.0,0.0,0.0,0.0,0.0,0.0,0.0,0.0,0.0,0.0,0.0,0.0,0.0,0.0,0.0,0.0,0.0,0.0,0.0,0.0,0.0,0.0,0.0,0.0,0.0,0.0,0.0,0.0,0.0,0.0,0.0,0.0,0.0,0.0,0.0,0.0,-1.4381,-1.3144,-1.317,-1.4701,-1.4771,-1.379,0.0,0.0,0.0,0.0,0.0,0.0,0.0,0.0,0.0,0.0,0.0,0.0,0.0,0.0,0.0,0.0,0.0,0.0,0.0,0.0,0.0,0.0,0.0,0.0,0.0,0.0,0.0,0.0,0.0,0.0,0.0,0.0,0.0,0.0,0.0,0.0,0.0,0.0,0.0,0.0,0.0,0.0,0.0,0.0,0.0,0.0,0.0,0.0,0.0,0.0,0.0,0.0,0.0,0.0,0.0,0.0,0.0,0.0,0.0,0.0,0.0,0.0,0.0,0.0,0.0,0.0,0.0,0.0,0.0,0.0,0.0,0.0,0.0,0.0,0.0,0.0,0.0,0.0,0.0,0.0,0.0,0.0,0.0,0.0,0.0,0.0,0.0,0.0,0.0,0.0,0.0,0.0,0.0,0.0,0.0,0.0,0.0,0.0,0.0,0.0,0.0,0.0,0.0,0.0,0.0,0.0,0.0,0.0,0.0,-1.1333,-1.1576,-1.2899,-1.5217,-1.3493,-1.2348,0.0,0.0,0.0,0.0,0.0,0.0,0.0,0.0,0.0,0.0,0.0,0.0,0.0,0.0,0.0,0.0,0.0,0.0,0.0,0.0,0.0,0.0,0.0,0.0,0.0,0.0,0.0,0.0,0.0,0.0,0.0,0.0,0.0,0.0,0.0,0.0,0.0,0.0,0.0,0.0,0.0,0.0,0.0,0.0,0.0,0.0,0.0,0.0,0.0,0.0,0.0,0.0,0.0,0.0,0.0,0.0,0.0,0.0,0.0,0.0,0.0,0.0,0.0,0.0,0.0,0.0,0.0,0.0,0.0,0.0,0.0,0.0,0.0,0.0,0.0,0.0,0.0,0.0,0.0,0.0,0.0,0.0,0.0,0.0,0.0,0.0,0.0,0.0,0.0,0.0,0.0,0.0,0.0,0.0,0.0,0.0,0.0,0.0,0.0,0.0,0.0,0.0,0.0,0.0,0.0,0.0,0.0,0.0,0.0,-1.1018,-1.216,-1.3514,-1.4937,-1.2785,-1.1312,0.0,0.0,0.0,0.0,0.0,0.0,0.0,0.0,0.0,0.0,0.0,0.0,0.0,0.0,0.0,0.0,0.0,0.0,0.0,0.0,0.0,0.0,0.0,0.0,0.0,0.0,0.0,0.0,0.0,0.0,0.0,0.0,0.0,0.0,0.0,0.0,0.0,0.0,0.0,0.0,0.0,0.0,0.0,0.0,0.0,0.0,0.0,0.0,0.0,0.0,0.0,0.0,0.0,0.0,0.0,0.0,0.0,0.0,0.0,0.0,0.0,0.0,0.0,0.0,0.0,0.0,0.0,0.0,0.0,0.0,0.0,0.0,0.0,0.0,0.0,0.0,0.0,0.0,0.0,0.0,0.0,0.0,0.0,0.0,0.0,0.0,0.0,0.0,0.0,0.0,0.0,0.0,0.0,0.0,0.0,0.0,0.0,0.0,0.0,0.0,0.0,0.0,0.0,0.0,0.0,0.0,0.0,0.0,-1.137,-1.4157,-1.5107,-1.4958,-1.3927,-1.2939,-1.09,0.0,0.0,0.0,0.0,0.0,0.0,0.0,0.0,0.0,0.0,0.0,0.0,0.0,0.0,0.0,0.0,0.0,0.0,0.0,0.0,0.0,0.0,0.0,0.0,0.0,0.0,0.0,0.0,0.0,0.0,0.0,0.0,0.0,0.0,0.0,0.0,0.0,0.0,0.0,0.0,0.0,0.0,0.0,0.0,0.0,0.0,0.0,0.0,0.0,0.0,0.0,0.0,0.0,0.0,0.0,0.0,0.0,0.0,0.0,0.0,0.0,0.0,0.0,0.0,0.0,0.0,0.0,0.0,0.0,0.0,0.0,0.0,0.0,0.0,0.0,0.0,0.0,0.0,0.0,0.0,0.0,0.0,0.0,0.0,0.0,0.0,0.0,0.0,0.0,0.0,0.0,0.0,0.0,0.0,0.0,0.0,0.0,0.0,0.0,0.0,0.0,0.0,0.0,0.0,0.0,0.0,0.0,0.0,0.0,-1.1472,-1.2666,-1.327,-1.3164,-1.139,-1.0193,0.0,0.0,0.0,0.0,0.0,0.0,0.0,0.0,0.0,0.0,0.0,0.0,0.0,0.0,0.0,0.0,0.0,0.0,0.0,0.0,0.0,0.0,0.0,0.0,0.0,0.0,0.0,0.0,0.0,0.0,0.0,0.0,0.0,0.0,0.0,0.0,0.0,0.0,0.0,0.0,0.0,0.0,0.0,0.0,0.0,0.0,0.0,0.0,0.0,0.0,0.0,0.0,0.0,0.0,0.0,0.0,0.0,0.0,0.0,0.0,0.0,0.0,0.0,0.0,0.0,0.0,0.0,0.0,0.0,0.0,0.0,0.0,0.0,0.0,0.0,0.0,0.0,0.0,0.0,0.0,0.0,0.0,0.0,0.0,0.0,0.0,0.0,0.0,0.0,0.0,0.0,0.0,0.0,0.0,0.0,0.0,0.0,0.0,0.0,0.0,0.0,0.0,0.0,0.0,0.0,0.0,0.0,0.0,0.0,-1.197,-1.3336,-1.3965,-1.3619,-1.1411,-1.0208,-1.0137,0.0,0.0,0.0,0.0,0.0,0.0,0.0,0.0,0.0,0.0,0.0,0.0,0.0,0.0,0.0,0.0,0.0,0.0,0.0,0.0,0.0,0.0,0.0,0.0,0.0,0.0,0.0,0.0,0.0,0.0,0.0,0.0,0.0,0.0,0.0,0.0,0.0,0.0,0.0,0.0,0.0,0.0,0.0,0.0,0.0,0.0,0.0,0.0,0.0,0.0,0.0,0.0,0.0,0.0,0.0,0.0,0.0,0.0,0.0,0.0,0.0,0.0,0.0,0.0,0.0,0.0,0.0,0.0,0.0,0.0,0.0,0.0,0.0,0.0,0.0,0.0,0.0,0.0,0.0,0.0,0.0,0.0,0.0,0.0,0.0,0.0,0.0,0.0,0.0,0.0,0.0,0.0,0.0,0.0,0.0,0.0,0.0,0.0,0.0,0.0,0.0,0.0,0.0,0.0,0.0,0.0,0.0,0.0,-1.4832,-1.6524,-1.6604,-1.4873,-1.2768,-1.088,0.0,0.0,0.0,0.0,0.0,0.0,0.0,0.0,0.0,0.0,0.0,0.0,0.0,0.0,0.0,0.0,0.0,0.0,0.0,0.0,0.0,0.0,0.0,0.0,0.0,0.0,0.0,0.0,0.0,0.0,0.0,0.0,0.0,0.0,0.0,0.0,0.0,0.0,0.0,0.0,0.0,0.0,0.0,0.0,0.0,0.0,0.0,0.0,0.0,0.0,0.0,0.0,0.0,0.0,0.0,0.0,0.0,0.0,0.0,0.0,0.0,0.0,0.0,0.0,0.0,0.0,0.0,0.0,0.0,0.0,0.0,0.0,0.0,0.0,0.0,0.0,0.0,0.0,0.0,0.0,0.0,0.0,0.0,0.0,0.0,0.0,0.0,0.0,0.0,0.0,0.0,0.0,0.0,0.0,0.0,0.0,0.0,0.0,0.0,0.0,0.0,0.0,0.0,0.0,0.0,0.0,0.0,0.0,0.0,-1.6234,-1.7276,-1.7168,-1.5772,-1.3678,-1.2178,0.0,0.0,0.0,0.0,0.0,0.0,0.0,0.0,0.0,0.0,0.0,0.0,0.0,0.0,0.0,0.0,0.0,0.0,0.0,0.0,0.0,0.0,0.0,0.0,0.0,0.0,0.0,0.0,0.0,0.0,0.0,0.0,0.0,0.0,0.0,0.0,0.0,0.0,0.0,0.0,0.0,0.0,0.0,0.0,0.0,0.0,0.0,0.0,0.0,0.0,0.0,0.0,0.0,0.0,0.0,0.0,0.0,0.0,0.0,0.0,0.0,0.0,0.0,0.0,0.0,0.0,0.0,0.0,0.0,0.0,0.0,0.0,0.0,0.0,0.0,0.0,0.0,0.0,0.0,0.0,0.0,0.0,0.0,0.0,0.0,0.0,0.0,0.0,0.0,0.0,0.0,0.0,0.0,0.0,0.0,0.0,0.0,0.0,0.0,0.0,0.0,0.0,0.0,0.0,0.0,0.0,0.0,0.0,-1.6399,-1.7812,-1.7939,-1.7646,-1.6926,-1.498,-1.3398,0.0,0.0,0.0,0.0,0.0,0.0,0.0,0.0,0.0,0.0,0.0,0.0,0.0,0.0,0.0,0.0,0.0,0.0,0.0,0.0,0.0,0.0,0.0,0.0,0.0,0.0,0.0,0.0,0.0,0.0,0.0,0.0,0.0,0.0,0.0,0.0,0.0,0.0,0.0,0.0,0.0,0.0,0.0,0.0,0.0,0.0,0.0,0.0,0.0,0.0,0.0,0.0,0.0,0.0,0.0,0.0,0.0,0.0,0.0,0.0,0.0,0.0,0.0,0.0,0.0,0.0,0.0,0.0,0.0,0.0,0.0,0.0,0.0,0.0,0.0,0.0,0.0,0.0,0.0,0.0,0.0,0.0,0.0,0.0,0.0,0.0,0.0,0.0,0.0,0.0,0.0,0.0,0.0,0.0,0.0,0.0,0.0,0.0,0.0,0.0,0.0,0.0,0.0,0.0,0.0,0.0,0.0,0.0,-1.8376,-1.9135,-1.8405,-1.8008,-1.7959,-1.6367,-1.4475,0.0,0.0,0.0,0.0,0.0,0.0,0.0,0.0,0.0,0.0,0.0,0.0,0.0,0.0,0.0,0.0,0.0,0.0,0.0,0.0,0.0,0.0,0.0,0.0,0.0,0.0,0.0,0.0,0.0,0.0,0.0,0.0,0.0,0.0,0.0,0.0,0.0,0.0,0.0,0.0,0.0,0.0,0.0,0.0,0.0,0.0,0.0,0.0,0.0,0.0,0.0,0.0,0.0,0.0,0.0,0.0,0.0,0.0,0.0,0.0,0.0,0.0,0.0,0.0,0.0,0.0,0.0,0.0,0.0,0.0,0.0,0.0,0.0,0.0,0.0,0.0,0.0,0.0,0.0,0.0,0.0,0.0,0.0,0.0,0.0,0.0,0.0,0.0,0.0,0.0,0.0,0.0,0.0,0.0,0.0,0.0,0.0,0.0,0.0,0.0,0.0,0.0,0.0,0.0,0.0,0.0,0.0,0.0,-1.7735,-1.8244,-1.811,-1.8008,-1.8008,-1.666,-1.5078,0.0,0.0,0.0,0.0,0.0,0.0,0.0,0.0,0.0,0.0,0.0,0.0,0.0,0.0,0.0,0.0,0.0,0.0,0.0,0.0,0.0,0.0,0.0,0.0,0.0,0.0,0.0,0.0,0.0,0.0,0.0,0.0,0.0,0.0,0.0,0.0,0.0,0.0,0.0,0.0,0.0,0.0,0.0,0.0,0.0,0.0,0.0,0.0,-0.8987,0.0,0.0,0.0,0.0,0.0,0.0,0.0,0.0,0.0,0.0,0.0,0.0,0.0,0.0,0.0,0.0,0.0,0.0,0.0,0.0,0.0,0.0,0.0,0.0,0.0,0.0,0.0,0.0,0.0,0.0,0.0,0.0,0.0,0.0,0.0,0.0,0.0,0.0,0.0,0.0,0.0,0.0,0.0,0.0,0.0,0.0,0.0,0.0,0.0,0.0,0.0,0.0,0.0,0.0,0.0,0.0,0.0,0.0,0.0,-1.78,-1.8569,-1.8212,-1.8008,-1.7988,-1.7334,-1.5909,0.0,0.0,0.0,0.0,0.0,0.0,0.0,0.0,0.0,0.0,0.0,0.0,0.0,0.0,0.0,0.0,0.0,0.0,0.0,0.0,0.0,0.0,0.0,0.0,0.0,0.0,0.0,0.0,0.0,0.0,0.0,0.0,0.0,0.0,0.0,0.0,0.0,0.0,0.0,0.0,0.0,0.0,0.0,0.0,0.0,0.0,0.0,0.0,0.0,0.0,0.0,0.0,0.0,0.0,0.0,0.0,0.0,0.0,0.0,0.0,0.0,0.0,0.0,0.0,0.0,0.0,0.0,0.0,0.0,0.0,0.0,0.0,0.0,0.0,0.0,0.0,0.0,0.0,0.0,0.0,0.0,0.0,0.0,0.0,0.0,0.0,0.0,0.0,0.0,0.0,0.0,0.0,0.0,0.0,0.0,0.0,0.0,0.0,0.0,0.0,0.0,0.0,0.0,0.0,0.0,0.0,0.0,-1.6828,-1.8134,-1.9025,-1.8361,-1.8008,-1.8008,-1.8008,-1.6592,-1.3643,0.0,0.0,0.0,0.0,0.0,0.0,0.0,0.0,0.0,0.0,0.0,0.0,0.0,0.0,0.0,0.0,0.0,0.0,0.0,0.0,0.0,0.0,0.0,0.0,0.0,0.0,0.0,0.0,0.0,0.0,0.0,0.0,0.0,0.0,0.0,0.0,0.0,0.0,-0.709,-0.8811,0.0,0.0,0.0,0.0,0.0,0.0,0.0,0.0,-0.8562,0.0,0.0,0.0,0.0,0.0,0.0,0.0,0.0,0.0,0.0,0.0,0.0,0.0,0.0,0.0,0.0,0.0,0.0,0.0,0.0,0.0,0.0,0.0,0.0,0.0,0.0,0.0,0.0,0.0,0.0,0.0,0.0,0.0,0.0,0.0,0.0,0.0,0.0,0.0,0.0,0.0,0.0,0.0,0.0,0.0,0.0,0.0,0.0,0.0,0.0,0.0,0.0,0.0,0.0,0.0,0.0,-1.7507,-1.7867,-1.8089,-1.8196,-1.8076,-1.8008,-1.8008,-1.8008,-1.6592,-1.3701,0.0,0.0,0.0,0.0,0.0,0.0,0.0,0.0,0.0,0.0,0.0,0.0,0.0,0.0,0.0,0.0,0.0,0.0,0.0,0.0,0.0,0.0,0.0,0.0,0.0,0.0,0.0,0.0,0.0,0.0,0.0,0.0,0.0,0.0,0.0,0.0,0.0,0.0,0.0,-1.1348,-1.1784,0.0,0.0,0.0,0.0,0.0,0.0,0.0,0.0,-0.9244,0.0,0.0,0.0,0.0,0.0,0.0,0.0,0.0,0.0,0.0,0.0,0.0,0.0,0.0,0.0,0.0,0.0,0.0,0.0,0.0,0.0,0.0,0.0,0.0,0.0,0.0,0.0,0.0,0.0,0.0,0.0,0.0,0.0,0.0,0.0,0.0,0.0,0.0,0.0,0.0,0.0,0.0,0.0,0.0,0.0,0.0,0.0,0.0,0.0,0.0,0.0,0.0,0.0,0.0,0.0,-1.6058,-1.7581,-1.8329,-1.8311,-1.8555,-1.8564,-1.834,-1.8305,-1.6709,0.0,0.0,0.0,0.0,0.0,0.0,0.0,0.0,0.0,0.0,0.0,0.0,0.0,0.0,0.0,0.0,0.0,0.0,0.0,0.0,0.0,0.0,0.0,0.0,0.0,0.0,0.0,0.0,0.0,0.0,0.0,0.0,0.0,0.0,0.0,0.0,0.0,0.0,0.0,0.0,-1.177,-1.2129,-1.2803,0.0,0.0,0.0,0.0,0.0,0.0,-0.9679,-0.8887,0.0,0.0,0.0,0.0,0.0,0.0,0.0,0.0,0.0,0.0,0.0,0.0,0.0,0.0,0.0,0.0,0.0,0.0,0.0,0.0,0.0,0.0,0.0,0.0,0.0,0.0,0.0,0.0,0.0,0.0,0.0,0.0,0.0,0.0,0.0,0.0,0.0,0.0,0.0,0.0,0.0,0.0,0.0,0.0,0.0,0.0,0.0,0.0,0.0,0.0,0.0,0.0,0.0,0.0,0.0,-1.4711,-1.7198,-1.8576,-1.8769,-1.9111,-1.9121,-1.8744,-1.8724,-1.6953,0.0,0.0,0.0,0.0,0.0,0.0,0.0,0.0,0.0,0.0,0.0,0.0,0.0,0.0,0.0,0.0,0.0,0.0,0.0,0.0,0.0,0.0,0.0,0.0,0.0,0.0,0.0,0.0,0.0,0.0,0.0,0.0,0.0,0.0,0.0,0.0,0.0,0.0,0.0,0.0,0.0,-1.2553,-1.3379,-1.3252,0.0,0.0,0.0,0.0,-1.1663,-1.0016,0.0,0.0,0.0,0.0,0.0,0.0,0.0,0.0,0.0,0.0,0.0,0.0,0.0,0.0,0.0,0.0,0.0,0.0,0.0,0.0,0.0,0.0,0.0,0.0,0.0,0.0,0.0,0.0,0.0,0.0,0.0,0.0,0.0,0.0,0.0,0.0,0.0,0.0,0.0,0.0,0.0,0.0,0.0,0.0,0.0,0.0,0.0,0.0,0.0,0.0,0.0,0.0,0.0,0.0,0.0,0.0,-1.6026,-1.743,-1.8532,-1.9187,-1.9268,-1.9294,-1.9209,-1.9209,-1.7393,0.0,0.0,0.0,0.0,0.0,0.0,0.0,0.0,0.0,0.0,0.0,0.0,0.0,0.0,0.0,0.0,0.0,0.0,0.0,0.0,0.0,0.0,0.0,0.0,0.0,0.0,0.0,0.0,0.0,0.0,0.0,0.0,0.0,0.0,0.0,0.0,0.0,0.0,0.0,0.0,0.0,-1.4216,-1.3594,-1.3558,-1.3243,0.0,0.0,-1.1343,-1.2566,-1.1899,0.0,0.0,0.0,0.0,0.0,0.0,0.0,0.0,0.0,0.0,0.0,0.0,0.0,0.0,0.0,0.0,0.0,0.0,0.0,0.0,0.0,0.0,0.0,0.0,0.0,0.0,0.0,0.0,0.0,0.0,0.0,0.0,0.0,0.0,0.0,0.0,0.0,0.0,0.0,0.0,0.0,0.0,0.0,0.0,0.0,0.0,0.0,0.0,0.0,0.0,0.0,0.0,0.0,0.0,0.0,-1.4517,-1.6283,-1.8141,-1.9288,-1.9619,-1.992,-1.9902,-1.9648,-1.9639,-1.7715,0.0,0.0,0.0,0.0,0.0,0.0,0.0,0.0,0.0,0.0,0.0,0.0,0.0,0.0,0.0,0.0,0.0,0.0,0.0,0.0,0.0,0.0,0.0,0.0,0.0,0.0,0.0,0.0,0.0,0.0,0.0,0.0,0.0,0.0,0.0,0.0,0.0,0.0,0.0,0.0,0.0,0.0,-1.5147,-1.5371,0.0,0.0,0.0,-1.3458,-1.3276,0.0,0.0,0.0,0.0,0.0,0.0,0.0,0.0,0.0,0.0,0.0,0.0,0.0,0.0,0.0,0.0,0.0,0.0,0.0,0.0,0.0,0.0,0.0,0.0,0.0,0.0,0.0,0.0,0.0,0.0,0.0,0.0,0.0,0.0,0.0,0.0,0.0,0.0,0.0,0.0,0.0,0.0,0.0,0.0,0.0,0.0,0.0,0.0,0.0,0.0,0.0,0.0,0.0,0.0,0.0,0.0,0.0,-1.6638,-1.9141,-2.0333,-2.0078,-2.0429,-2.0449,-2.0098,-2.0078,0.0,0.0,0.0,0.0,0.0,0.0,0.0,0.0,0.0,0.0,0.0,0.0,0.0,0.0,0.0,0.0,0.0,0.0,0.0,0.0,0.0,0.0,0.0,0.0,0.0,0.0,0.0,-0.2456,0.0,0.0,0.0,0.0,0.0,0.0,0.0,0.0,0.0,0.0,0.0,0.0,0.0,0.0,-1.3975,-1.6073,-1.6736,-1.6592,0.0,0.0,-1.5078,-1.4114,-1.355,-1.2712,0.0,0.0,0.0,0.0,0.0,0.0,0.0,0.0,0.0,0.0,0.0,0.0,0.0,0.0,0.0,0.0,0.0,0.0,0.0,0.0,0.0,0.0,0.0,0.0,0.0,0.0,0.0,0.0,0.0,0.0,0.0,0.0,0.0,0.0,0.0,0.0,0.0,0.0,0.0,0.0,0.0,0.0,0.0,0.0,0.0,0.0,0.0,0.0,0.0,0.0,0.0,0.0,0.0,0.0,-1.6348,-1.7654,-2.0397,-2.1428,-2.0595,-2.0586,-2.0595,-2.0556,-2.0556,-1.8506,0.0,0.0,0.0,0.0,0.0,0.0,0.0,0.0,0.0,0.0,0.0,0.0,0.0,0.0,0.0,0.0,0.0,0.0,0.0,0.0,0.0,0.0,0.0,0.0,0.0,0.0,0.0,0.0,0.0,0.0,0.0,0.0,0.0,0.0,0.0,0.0,0.0,0.0,0.0,0.0,0.0,-1.4377,-1.5342,-1.6885,-1.7451,0.0,-1.5654,-1.5342,-1.5303,-1.4615,-1.3413,-1.1343,0.0,0.0,0.0,0.0,0.0,0.0,0.0,0.0,0.0,0.0,0.0,0.0,0.0,0.0,0.0,0.0,0.0,0.0,0.0,0.0,0.0,0.0,0.0,0.0,0.0,0.0,0.0,0.0,-0.7003,0.0,0.0,0.0,0.0,0.0,0.0,0.0,0.0,0.0,0.0,0.0,0.0,0.0,0.0,0.0,0.0,0.0,0.0,0.0,0.0,0.0,0.0,0.0,0.0,-1.6298,-1.8074,-2.1279,-2.244,-2.1517,-2.1479,-2.1183,-2.0605,-2.0615,-1.9206,0.0,0.0,0.0,0.0,0.0,0.0,0.0,0.0,0.0,0.0,0.0,0.0,0.0,0.0,0.0,0.0,0.0,0.0,0.0,0.0,0.0,0.0,0.0,0.0,0.0,0.0,0.0,0.0,-1.1349,-1.1712,-0.9414,0.0,0.0,0.0,0.0,0.0,0.0,0.0,0.0,0.0,0.0,-1.5644,-1.6504,-1.6973,0.0,0.0,-1.5869,-1.542,-1.542,-1.4927,-1.4026,-1.2404,-1.1573,0.0,0.0,0.0,0.0,0.0,0.0,0.0,0.0,0.0,0.0,0.0,0.0,0.0,0.0,0.0,0.0,0.0,0.0,0.0,0.0,0.0,0.0,0.0,0.0,0.0,0.0,-0.6815,-0.6674,0.0,0.0,0.0,0.0,0.0,0.0,0.0,0.0,0.0,0.0,0.0,0.0,0.0,0.0,0.0,0.0,0.0,0.0,0.0,0.0,0.0,0.0,0.0,0.0,-1.6412,-1.8563,-2.1689,-2.2832,-2.1966,-2.1966,-2.1674,-2.1036,-2.084,-1.9756,-1.7627,0.0,0.0,0.0,0.0,0.0,0.0,0.0,0.0,0.0,0.0,0.0,0.0,0.0,0.0,0.0,0.0,0.0,0.0,0.0,0.0,0.0,0.0,0.0,0.0,0.0,0.0,0.0,-1.2586,-1.2115,-0.9324,0.0,0.0,0.0,0.0,0.0,0.0,0.0,0.0,0.0,0.0,-1.6418,-1.7246,-1.7194,-1.7038,-1.6943,-1.6034,-1.542,-1.542,-1.5273,-1.4752,-1.3469,0.0,0.0,0.0,0.0,0.0,0.0,0.0,0.0,0.0,0.0,0.0,0.0,0.0,0.0,0.0,0.0,0.0,0.0,0.0,0.0,0.0,0.0,0.0,0.0,0.0,0.0,0.0,-0.7381,0.0,0.0,-0.6603,0.0,0.0,0.0,0.0,0.0,0.0,0.0,0.0,0.0,0.0,0.0,0.0,0.0,0.0,0.0,0.0,0.0,0.0,0.0,0.0,0.0,0.0,-1.6991,-1.9163,-2.1656,-2.2556,-2.2022,-2.1938,-2.195,-2.1899,-2.1445,-2.0205,-1.8027,0.0,0.0,0.0,0.0,0.0,0.0,0.0,0.0,0.0,0.0,0.0,0.0,0.0,0.0,0.0,0.0,0.0,0.0,0.0,0.0,0.0,0.0,0.0,0.0,0.0,0.0,-0.7514,-0.8891,-0.9819,0.0,0.0,0.0,0.0,0.0,0.0,0.0,0.0,0.0,-1.3897,-1.5234,-1.6427,-1.7288,-1.7725,-1.7842,-1.7465,-1.6299,-1.5459,-1.5478,-1.5771,-1.5635,0.0,0.0,0.0,0.0,0.0,0.0,0.0,0.0,0.0,0.0,0.0,0.0,0.0,0.0,0.0,0.0,0.0,0.0,0.0,0.0,0.0,0.0,0.0,0.0,0.0,0.0,0.0,-1.1057,-1.0695,0.0,0.0,0.0,0.0,0.0,0.0,0.0,0.0,0.0,0.0,0.0,-1.8795,-2.0263,0.0,0.0,0.0,0.0,0.0,0.0,0.0,0.0,0.0,0.0,0.0,0.0,-1.8506,-2.0708,-2.44,-2.5858,-2.5048,-2.501,-2.4355,-2.3001,-2.2816,-2.1095,-1.7719,0.0,0.0,0.0,0.0,0.0,0.0,0.0,0.0,0.0,0.0,0.0,0.0,0.0,0.0,0.0,0.0,0.0,0.0,0.0,0.0,0.0,0.0,0.0,0.0,0.0,-0.9527,0.0,0.0,0.0,0.0,0.0,0.0,0.0,0.0,0.0,0.0,-1.387,-1.5353,-1.6241,-1.7168,-1.7676,-1.7455,-1.8232,-1.8613,0.0,0.0,0.0,0.0,0.0,0.0,0.0,0.0,0.0,0.0,0.0,0.0,0.0,-1.5762,-1.5791,-1.225,-1.1232,-1.0985,-1.1149,0.0,0.0,0.0,0.0,0.0,0.0,0.0,0.0,0.0,0.0,0.0,0.0,0.0,0.0,-1.4456,-1.4124,-1.379,0.0,0.0,0.0,0.0,0.0,0.0,0.0,0.0,-2.0928,-2.251,-2.2217,-2.3653,-2.3547,-2.2167,-2.1443,-1.966,0.0,0.0,0.0,0.0,0.0,0.0,0.0,0.0,-1.9691,-2.2579,-2.5503,-2.688,-2.6562,-2.6158,-2.5529,-2.4565,-2.4374,-2.2797,-1.9626,-1.8798,-1.7319,0.0,0.0,0.0,0.0,0.0,0.0,0.0,0.0,0.0,0.0,0.0,0.0,0.0,0.0,0.0,0.0,0.0,0.0,0.0,0.0,0.0,0.0,0.0,-1.0816,0.0,0.0,0.0,0.0,0.0,0.0,0.0,0.0,0.0,-1.5136,-1.6743,-1.8096,-1.8597,-1.9006,-1.9002,-1.8187,0.0,0.0,0.0,0.0,0.0,0.0,0.0,-1.6697,-1.7272,-1.6677,-1.6063,-1.5928,-1.6855,-1.7447,-1.6999,0.0,0.0,-1.4891,-1.3903,-1.3707,-1.3965,-1.4248,-1.4449,-1.4449,-1.504,-1.551,0.0,0.0,0.0,0.0,-1.5831,0.0,0.0,0.0,-1.7913,-1.7687,0.0,-1.7599,0.0,0.0,0.0,0.0,-1.5318,-1.8906,0.0,0.0,-2.659,-2.8047,-2.8009,-2.7996,-2.8059,-2.8034,-2.6927,-2.5607,-2.3853,-1.9221,-1.5622,0.0,0.0,0.0,0.0,0.0,-2.0664,-2.4661,-2.5107,-2.5645,-2.6565,-2.5537,-2.5475,-2.6487,-2.6042,-2.5087,-2.356,-2.1562,-1.9554,-1.7589,-1.3866,0.0,0.0,0.0,0.0,0.0,0.0,0.0,0.0,0.0,0.0,0.0,0.0,0.0,0.0,0.0,0.0,0.0,0.0,0.0,0.0,-1.1446,0.0,0.0,0.0,0.0,0.0,0.0,0.0,0.0,0.0,-1.98,-1.7474,-1.8979,-2.0434,-2.083,0.0,0.0,0.0,0.0,-1.8174,-1.8719,-1.9783,-1.9891,-1.7958,-1.8144,-1.8588,-1.8676,0.0,0.0,-1.8291,-1.8769,-1.8926,-1.7734,-1.8564,-1.9326,-1.9238,-1.812,-1.7344,-1.7344,-1.7305,-1.7412,-1.7519,-1.8188,-1.9046,-2.1669,0.0,0.0,0.0,0.0,-1.9434,-2.0893,-2.3439,-2.2912,-2.246,-2.2071,-2.1641,0.0,0.0,0.0,0.0,0.0,0.0,-2.2611,-2.4079,-2.6059,-2.7344,-2.8109,-2.8109,-2.8109,-2.8097,-2.7783,-2.7394,-2.6879,-2.5498,-2.1267,-1.4607,0.0,0.0,0.0,0.0,-2.3979,-2.5963,-2.7164,-2.793,-2.8195,-2.7892,-2.7702,-2.7631,-2.6775,-2.5943,-2.5172,-2.4554,-2.3139,-2.0786,-1.8224,0.0,0.0,0.0,0.0,0.0,0.0,0.0,0.0,0.0,0.0,0.0,0.0,0.0,0.0,0.0,0.0,0.0,0.0,0.0,-1.0616,-1.3389,-1.4766,0.0,0.0,0.0,0.0,0.0,0.0,0.0,0.0,0.0,-2.1391,-2.1933,-2.2509,0.0,0.0,-2.084,-2.0313,-1.8944,-1.8877,-2.1295,-2.1077,0.0,-2.1662,-1.9975,-1.9017,-2.0255,-2.0439,-2.0282,-1.993,-2.0077,-2.0126,-1.9725,-1.9989,-2.0243,-2.0184,-1.9451,-1.8779,-1.874,-1.874,-1.8883,-1.915,-1.9512,-1.9834,-2.6864,-2.4205,-2.2046,-2.1895,-2.3062,-2.2791,-2.4161,-2.6578,-2.6264,-2.5937,-2.5636,-2.5465,-2.376,-2.0939,-2.05,0.0,0.0,0.0,-2.5008,-2.6339,-2.7354,-2.8171,-2.875,-2.8787,-2.8888,-2.9076,-2.8637,-2.8662,-2.9089,-2.8612,-2.5423,-1.9736,0.0,-2.123,-2.0238,-2.3452,-2.6,-2.7769,-2.8536,-2.9038,-2.9264,-2.9277,-2.8897,-2.8135,-2.7894,-2.7445,-2.6708,-2.6697,-2.5727,-2.3587,-2.1643,-1.9809,0.0,0.0,0.0,0.0,0.0,0.0,0.0,0.0,0.0,0.0,0.0,-1.1698,-1.3089,0.0,0.0,0.0,-1.2808,-1.3889,-1.4895,-1.6898,0.0,0.0,0.0,0.0,0.0,0.0,0.0,-2.165,-2.3354,-2.4406,-2.47,-2.4444,-2.4162,-2.4013,-2.3394,-2.2729,-2.2163,0.0,-2.0809,-2.2973,-2.3846,-2.4073,-2.3627,-2.2253,-2.1445,-2.1989,-2.153,-2.1075,-2.0948,-2.1203,-2.1395,-2.1359,-2.1231,-2.1155,-2.1145,-2.042,-1.9795,-1.9795,-1.9832,-1.9883,-2.0127,-2.0166,-2.0254,-3.1386,-3.0947,-2.5912,-2.465,-2.6038,-2.605,-2.6942,-2.8348,-2.8373,-2.8373,-2.8411,-2.89,-2.7431,-2.4544,-2.3489,0.0,-2.6101,-2.713,-2.846,-2.9917,-2.993,-2.993,-2.9917,-2.993,-3.0181,-3.0605,-2.9616,-2.9666,-3.057,-2.9577,-2.8348,-2.6889,-2.585,-2.544,-2.5724,-2.595,-2.7331,-2.9854,-2.9352,-2.9289,-2.9842,-2.9854,-2.939,-2.8423,-2.9327,-2.9349,-2.8355,-2.8227,-2.7592,-2.6143,-2.4419,-2.2948,-2.1801,0.0,0.0,0.0,0.0,0.0,0.0,0.0,0.0,0.0,0.0,0.0,0.0,0.0,0.0,-1.5703,-1.9121,0.0,-2.1343,-2.1094,0.0,0.0,0.0,-1.7384,-1.8781,-2.0991,-2.2875,-2.4058,0.0,0.0,-2.7155,-2.6276,-2.5473,-2.4958,-2.5272,-2.5257,-2.4514,-2.3744,-2.3573,-2.4269,-2.7354,-2.8343,-2.4969,-2.4626,-2.4548,-2.3623,-2.2788,-2.2169,-2.1909,-2.2376,-2.2808,-2.2783,-2.2493,-2.2201,-2.2153,-2.143,-2.082,-2.0752,-2.0625,-2.0586,-2.0576,-2.0576,-2.0566,-3.1386,-3.1286,-2.9967,-2.9654,-3.0018,-3.0018,-3.0244,-3.0608,-3.0608,-3.0608,-3.062,-3.0746,-3.0369,-2.9616,-2.9352,-2.9515,-3.003,-3.0294,-3.0633,-3.0997,-3.1009,-3.1009,-3.105,-3.1009,-3.1072,-3.1185,-3.0934,-3.0947,-3.1198,-3.0934,-3.0608,-3.0218,-2.9955,-2.885,-2.703,-2.8963,-3.0331,-3.1009,-3.0482,-3.0281,-3.0419,-3.0419,-3.0495,-3.0608,-3.0482,-3.0276,-3.0025,-2.9628,-2.9225,-2.8831,-2.731,-2.6338,-2.5979,-2.0169,0.0,0.0,0.0,0.0,0.0,0.0,0.0,0.0,0.0,-1.9259,-1.5811,0.0,-1.6098,0.0,-2.2916,-2.3796,-2.0552,-2.1606,0.0,0.0,-2.1104,-2.1136,-2.4728,-2.4198,-2.4185,-2.5744,-2.6399,-2.6524,-2.6063,-2.6172,-2.6072,-2.5498,-2.5139,-2.5081,-2.5219,-2.5553,-2.6036,-2.7027,-2.8612,-2.9128,-2.7379,-2.6204,-2.5386,-2.4419,-2.4332,-2.4395,-2.4329,-2.4431,-2.4587,-2.4564,-2.4503,-2.4105,-2.3331,-2.2939,-2.2501,-2.1747,-2.1085,-2.0615,-2.0615,-2.0615,-2.0615,-3.2139,-3.2139,-3.2181,-3.2139,-3.2143,-3.1599,-3.1386,-3.1386,-3.1386,-3.1386,-3.1386,-3.1386,-3.1386,-3.1386,-3.1386,-3.1386,-3.1386,-3.1386,-3.1386,-3.1386,-3.1386,-3.1386,-3.1386,-3.1386,-3.1512,-3.1763,-3.175,-3.1763,-3.1763,-3.1763,-3.175,-3.1763,-3.1763,-3.1122,-2.9955,-3.0884,-3.116,-3.0696,-3.0871,-3.0846,-3.0593,-3.0846,-3.0633,-2.998,-3.0608,-3.0608,-2.9905,-3.0055,-2.9817,-2.9076,-2.7989,-2.7409,-2.7347,-2.3381,-2.1015,0.0,0.0,0.0,0.0,0.0,0.0,0.0,0.0,0.0,0.0,0.0,-1.9359,-2.0251,-2.4513,-2.5774,-2.233,-2.3998,-2.5473,-2.5787,-2.4525,-2.465,-2.719,-2.6283,-2.5745,-2.6425,-2.6724,-2.6751,-2.6402,-2.6449,-2.6386,-2.6059,-2.5737,-2.5837,-2.6628,-2.7406,-2.8209,-2.8787,-2.939,-2.9624,-2.8937,-2.7498,-2.6424,-2.6163,-2.591,-2.5865,-2.6211,-2.6173,-2.6256,-2.6621,-2.6238,-2.5651,-2.501,-2.4513,-2.4021,-2.3541,-2.3006,-2.2257,-2.1125,-2.0713,-2.0615,-3.3124,-3.3124,-3.3124,-3.3119,-3.3106,-3.2051,-3.1562,-3.1486,-3.1486,-3.1461,-3.1386,-3.1386,-3.1386,-3.1386,-3.1386,-3.1386,-3.1386,-3.1386,-3.1386,-3.1386,-3.1386,-3.1386,-3.1386,-3.1386,-3.1637,-3.2102,-3.2177,-3.2202,-3.2202,-3.229,-3.2328,-3.2328,-3.2328,-3.2503,-3.2805,-3.2068,-3.1148,-3.0244,-3.0997,-3.1173,-3.0733,-3.116,-3.0482,-2.8725,-3.0457,-3.0821,-2.9414,-3.0192,-3.0043,-2.8624,-2.8072,-2.777,-2.7695,-2.6889,-2.5423,0.0,-2.2239,0.0,0.0,0.0,0.0,0.0,0.0,0.0,0.0,-2.5385,-2.2819,-2.0627,-2.5109,-2.7318,-2.539,-2.703,-2.821,-2.8197,-2.7783,-2.7584,-2.7727,-2.7485,-2.7102,-2.6549,-2.6927,-2.718,-2.7253,-2.6939,-2.67,-2.6738,-2.6826,-2.7228,-2.8134,-2.8963,-2.9478,-2.9741,-2.9779,-2.9753,-2.9586,-2.8558,-2.778,-2.8084,-2.7613,-2.718,-2.7768,-2.7755,-2.7898,-2.8486,-2.785,-2.7016,-2.6842,-2.6113,-2.5542,-2.5313,-2.5133,-2.4368,-2.2437,-2.1471,-2.1006,-3.3124,-3.3124,-3.3124,-3.3332,-3.3684,-3.3031,-3.2491,-3.2064,-3.2051,-3.18,-3.1386,-3.1386,-3.1386,-3.1386,-3.1386,-3.1386,-3.1386,-3.1386,-3.1386,-3.1386,-3.1386,-3.1386,-3.1386,-3.1386,-3.1436,-3.1574,-3.2001,-3.2202,-3.2215,-3.2679,-3.2918,-3.2918,-3.2905,-3.2516,-3.1788,0.0,0.0,0.0,-3.175,-3.1336,-3.1248,-3.1336,-3.1198,-3.0809,-3.1599,0.0,-3.1599,-3.1373,-3.1097,-3.0796,-3.067,0.0,-2.998,0.0,0.0,0.0,0.0,0.0,0.0,0.0,0.0,0.0,-2.4895,-2.487,-2.4274,-2.5966,-2.6251,-2.4161,-2.6452,-2.7946,-2.7544,-2.826,-2.8737,-2.8725,-2.8637,-2.8573,-2.8469,-2.7803,-2.7102,-2.6575,-2.66,-2.6839,-2.7278,-2.7557,-2.777,-2.7745,-2.8172,-2.8712,-2.9315,-2.9139,-2.9151,-2.9654,-2.9867,-2.9817,-2.9779,-2.951,-2.9254,-2.9443,-2.9378,-2.9157,-2.9236,-2.9291,-2.9282,-2.9541,-2.9362,-2.8813,-2.8023,-2.764,-2.7252,-2.6436,-2.5999,-2.5441,-2.4591,-2.367,-2.2962,-3.3897,-3.3897,-3.3897,-3.4048,0.0,-3.3721,-3.3169,-3.2629,-3.2629,-3.2478,-3.2215,-3.2227,-3.2227,-3.2215,-3.2227,-3.2227,-3.2227,-3.2227,-3.2215,-3.2227,-3.2227,-3.2227,-3.2269,-3.2227,-3.2227,-3.224,-3.278,-3.2918,-3.2679,-3.325,-3.3483,-3.347,-3.3219,-3.293,-3.2641,-3.2918,-3.3124,-3.3124,-3.2516,-3.2269,-3.2227,-3.2269,-3.1838,-3.1085,-3.2077,0.0,0.0,0.0,0.0,0.0,0.0,0.0,0.0,-2.762,-2.6954,-2.7231,-2.5925,-2.5247,-2.5498,-2.5523,-2.6364,-2.8273,-2.821,-2.7697,-2.6844,-2.8612,-2.9264,-2.821,-2.9101,-2.9729,-2.9729,-2.9754,-2.9767,-2.9703,-2.9226,-2.8787,-2.8445,-2.7981,-2.7582,-2.7344,-2.7304,-2.7394,-2.7645,-2.7908,-2.8097,-2.8134,-2.8574,-2.9063,-2.9302,-2.9315,-2.9553,-3.0407,-3.0583,-3.0583,-3.0557,-3.0331,-3.0193,-3.0181,-2.998,-2.9804,-2.9779,-2.9779,-2.9779,-2.9779,-2.9779,-2.9573,-2.9106,-2.8937,-2.8779,-2.8279,-2.7917,-2.7707,-2.7409,-2.5823,-2.4338,-3.468,-3.468,-3.468,-3.4731,-3.4768,-3.4173,-3.3583,-3.3099,-3.2867,0.0,0.0,-3.2822,-3.278,-3.2792,-3.278,-3.2822,-3.2822,-3.2767,-3.2822,-3.278,-3.2822,-3.2822,-3.281,-3.2822,-3.2822,-3.2805,-3.3345,-3.3357,-3.2968,-3.3583,-3.3909,-3.3872,-3.3533,-3.3596,-3.3985,-3.3596,-3.337,-3.3345,-3.298,-3.283,-3.2918,-3.2742,-3.2039,-3.0783,-3.2064,-3.2139,-3.0821,-3.116,-3.0809,-2.954,-2.8549,-2.8009,-2.8021,-2.8436,-2.9214,-3.0369,-3.0959,-3.121,-3.1122,-3.111,-3.111,-3.111,-3.0809,-3.062,-3.062,-3.0922,-3.111,-3.111,-3.111,-3.1085,-3.1097,-3.0721,-3.047,-3.0457,-2.9502,-2.875,-2.8448,-2.8197,-2.8147,-2.8335,-2.821,-2.8147,-2.8235,-2.8373,-2.8398,-2.8499,-2.9076,-2.9389,-2.9477,-2.9829,-3.0244,-3.1085,-3.1235,-3.1336,-3.1311,-3.1035,-3.0771,-3.0733,-3.0394,-3.0068,-2.9967,-2.9942,-2.9905,-2.9804,-2.9792,-2.9779,-2.9779,-2.9702,-2.9779,-2.9779,-2.9779,-2.9779,-2.9588,-2.7828,-2.6096,-3.4693,-3.468,-3.468,-3.4956,-3.5307,-3.4336,-3.3583,-3.3006,-3.2064,-3.1637,-3.1625,-3.1625,-3.1666,-3.1625,-3.1625,-3.1625,-3.1637,-3.1637,-3.1625,-3.1637,-3.1625,-3.1625,-3.1637,-3.1625,-3.1625,-3.1675,-3.2202,-3.2403,-3.2453,-3.3407,-3.3909,-3.3947,-3.4299,-3.4512,-3.4555,-3.4525,-3.4487,-3.4462,-3.2604,-3.1863,-3.2303,-3.1436,-3.1072,-3.1286,-3.1537,-3.1549,-3.1298,-3.1373,-3.1512,-3.1712,-3.1148,-3.0809,-3.0809,-3.0846,-3.0633,-3.0005,-3.0419,-3.052,-3.0068,-3.0018,-3.0018,-3.0043,-3.0382,-3.062,-3.0595,-3.0244,-3.0018,-3.003,-3.0118,-3.0018,-3.0005,-3.0005,-2.9967,-2.9917,-2.9302,-2.9038,-2.9415,-2.8712,-2.8511,-2.934,-2.8687,-2.8335,-2.8725,-2.9202,-2.9453,-2.9654,-3.0055,-3.1072,-3.1298,-3.1022,-3.0796,-3.1223,-3.1386,-3.1386,-3.1486,-3.1361,-3.1286,-3.1286,-3.1185,-3.0922,-3.0557,-3.0495,-3.0357,-2.9905,-2.9867,-2.9829,-2.9817,-2.9779,-2.9779,-2.9779,-2.9779,-2.9779,-2.9779,-2.9206,-2.8655,-3.5617,-3.5604,-3.5617,-3.5755,-3.5918,-3.5082,-3.4474,-3.3947,-3.342,-3.2842,-3.2315,-3.2303,-3.2303,-3.2303,-3.2303,-3.2303,-3.2303,-3.2344,-3.2303,-3.2303,-3.2303,-3.2303,-3.2303,-3.2344,-3.2303,-3.234,-3.2867,-3.2968,-3.2805,-3.3796,-3.4186,-3.3935,-3.4148,-3.4274,-3.4261,-3.3972,-3.3972,-3.4248,-3.3558,-3.3319,-3.3558,-3.3093,-3.2955,-3.3194,-3.3194,-3.3194,-3.3194,-3.2905,-3.2855,-3.3119,-3.2604,-3.2039,-3.1436,-3.1675,-3.1361,-3.0357,-3.0746,-3.0922,-3.067,-3.0658,-3.0658,-3.0658,-3.062,-3.062,-3.062,-3.0645,-3.067,-3.0658,-3.0658,-3.0658,-3.0645,-3.0407,-3.0244,-3.0231,-2.9741,-2.9515,-2.9679,-2.939,-2.9239,-2.9654,-2.9352,-2.9126,-2.9365,-2.9628,-2.9779,-2.9842,-3.0294,-3.0934,-3.2014,-3.1556,-3.1357,-3.2131,-3.2344,-3.2303,-3.2277,-3.2014,-3.1876,-3.1838,-3.1587,-3.1336,-3.1072,-3.1035,-3.0922,-3.0696,-3.0444,-3.0256,-3.0231,-2.9967,-2.9829,-2.9779,-2.9779,-2.9779,-2.9779,-2.9779,-2.9404,-3.6417,-3.6417,-3.6417,-3.6342,-3.6144,-3.5683,-3.5182,-3.4693,-3.4668,-3.4248,-3.3495,-3.3332,-3.3237,-3.3124,-3.3124,-3.3124,-3.3124,-3.3124,-3.3124,-3.3124,-3.3124,-3.3124,-3.3124,-3.3124,-3.3124,-3.3144,-3.3646,-3.3671,-3.3432,-3.4374,-3.4763,-3.4487,-3.4449,-3.4387,-3.4274,-3.3859,-3.3784,-3.4098,-3.45,-3.4731,-3.4901,-3.4675,-3.4542,-3.4713,-3.4449,-3.4349,-3.4324,-3.3935,-3.3771,-3.3859,-3.3257,-3.2591,-3.2026,-3.224,-3.1976,-3.1148,-3.1474,-3.165,-3.1411,-3.1386,-3.1386,-3.1373,-3.1022,-3.0796,-3.0821,-3.116,-3.1273,-3.1072,-3.0947,-3.0959,-3.0884,-3.0633,-3.0432,-3.0407,-3.0055,-2.9779,-2.9779,-2.9779,-2.9779,-2.9779,-2.9779,-2.9754,-2.9779,-2.9779,-2.9917,-3.0156,-3.0143,-3.0771,-3.1989,-3.2041,-3.223,-3.2777,-3.3124,-3.3061,-3.3056,-3.2717,-3.2441,-3.2403,-3.2089,-3.1825,-3.1662,-3.1574,-3.1474,-3.1348,-3.1047,-3.0821,-3.0746,-3.0369,-3.0068,-3.003,-2.9917,-2.9779,-2.9779,-2.9779,-2.9573,-3.6417,-3.6417,-3.6417,-3.6069,-3.5633,-3.5545,-3.5219,-3.4801,-3.4693,-3.4675,-3.45,-3.4048,-3.3558,-3.3162,-3.3149,-3.3149,-3.3124,-3.3124,-3.3124,-3.3124,-3.3124,-3.3124,-3.3124,-3.3124,-3.3124,-3.3156,-3.3646,-3.3872,-3.3884,-3.4843,-3.5667,-3.6128,-3.6191,-3.5805,-3.537,-3.5245,-3.5031,-3.4618,-3.4655,-3.4919,-3.532,-3.4487,-3.4223,-3.47,-3.3771,-3.3232,-3.3395,-3.3224,-3.3407,-3.3759,-3.2955,-3.2754,-3.347,-3.3244,-3.2717,-3.2114,-3.2566,-3.2491,-3.1512,-3.1386,-3.1386,-3.1386,-3.1323,-3.1286,-3.1286,-3.1348,-3.0972,-3.0306,-3.0018,-3.0118,-2.9942,-2.9967,-3.003,-3.0093,-2.9967,-2.9779,-2.9842,-2.9779,-2.9779,-2.9779,-2.9942,-2.9792,-2.9917,-2.9917,-3.0231,-3.0972,-3.1035,-3.1449,-3.2546,-3.2751,-3.2739,-3.3011,-3.3124,-3.3124,-3.3111,-3.3099,-3.2918,-3.2943,-3.2986,-3.2629,-3.2277,-3.2114,-3.2014,-3.1775,-3.1486,-3.1424,-3.1223,-3.0909,-3.0557,-3.047,-3.0218,-2.9829,-2.9792,-2.9792,-2.9675,-3.6417,-3.6417,-3.6417,-3.6279,-3.6031,-3.6031,-3.5906,-3.5705,-3.5692,-3.5504,-3.5157,-3.4931,-3.4399,-3.3571,-3.3571,-3.3438,-3.3093,-3.3124,-3.3124,-3.3124,-3.3124,-3.3124,-3.3124,-3.3124,-3.3244,-3.3558,-3.3796,-3.4073,-3.4424,-3.4818,-3.5504,-3.6241,-3.573,-3.5441,-3.5445,-3.5182,-3.5056,-3.5169,-3.5157,-3.542,-3.5868,-3.5278,-3.4931,-3.5094,-3.4731,-3.455,-3.4537,-3.4537,-3.4788,-3.529,-3.4901,-3.4562,-3.4374,-3.3859,-3.3156,-3.2315,-3.2114,-3.1876,-3.1424,-3.1386,-3.1386,-3.1386,-3.1386,-3.1386,-3.1386,-3.1386,-3.1185,-3.0846,-3.0733,-3.0746,-3.0733,-3.0733,-3.0746,-3.0746,-3.0733,-3.0645,-3.0457,-3.062,-3.0809,-3.1009,-3.0884,-3.0721,-3.0733,-3.0746,-3.0922,-3.1336,-3.1399,-3.1825,-3.2466,-3.2571,-3.2739,-3.3028,-3.3124,-3.3124,-3.3124,-3.3124,-3.3124,-3.3124,-3.3124,-3.2918,-3.2805,-3.2729,-3.2629,-3.2378,-3.2315,-3.2152,-3.1913,-3.1461,-3.106,-3.0959,-3.067,-3.0281,-3.0281,-3.0018,-2.9842,-3.6417,-3.6417,-3.6417,-3.6417,-3.6417,-3.6417,-3.6417,-3.6417,-3.6417,-3.6132,-3.578,-3.5721,-3.5207,-3.4412,-3.4198,-3.3897,-3.3558,-3.3533,-3.352,-3.352,-3.3533,-3.3533,-3.352,-3.3533,-3.3734,-3.4098,-3.4299,-3.465,-3.5115,-3.5177,-3.5579,-3.6132,-3.5567,-3.5245,-3.5433,-3.5069,-3.5019,-3.5245,-3.527,-3.5545,-3.5994,-3.5755,-3.5571,-3.5683,-3.5571,-3.5495,-3.5495,-3.5495,-3.5683,-3.6107,-3.6006,-3.5629,-3.4956,-3.4424,-3.3822,-3.3126,-3.2466,-3.2077,-3.2077,-3.1938,-3.1851,-3.1863,-3.1851,-3.1851,-3.1851,-3.1851,-3.1851,-3.1851,-3.1851,-3.1763,-3.1399,-3.1386,-3.1386,-3.1386,-3.1386,-3.1273,-3.106,-3.126,-3.1461,-3.1738,-3.1436,-3.1461,-3.1587,-3.175,-3.1951,-3.2139,-3.2152,-3.2265,-3.2734,-3.2976,-3.3161,-3.3456,-3.3545,-3.3451,-3.3212,-3.3124,-3.3124,-3.3124,-3.3124,-3.3124,-3.3124,-3.3124,-3.3068,-3.281,-3.3048,-3.2998,-3.2516,-3.2039,-3.1524,-3.1361,-3.1097,-3.0834,-3.0834,-3.0394,-3.0105,-3.6417,-3.6417,-3.6417,-3.6417,-3.6417,-3.6417,-3.6417,-3.6417,-3.6417,-3.638,-3.6342,-3.6342,-3.5994,-3.537,-3.4893,-3.4675,-3.4625,-3.4562,-3.455,-3.455,-3.453,-3.458,-3.465,-3.465,-3.4638,-3.4605,-3.5056,-3.5629,-3.6229,-3.6292,-3.6355,-3.638,-3.6279,-3.6006,-3.5608,-3.5508,-3.5232,-3.4989,-3.4893,-3.5102,-3.5508,-3.5545,-3.5818,-3.6182,-3.5771,-3.5495,-3.5495,-3.5495,-3.552,-3.5558,-3.5203,-3.5064,-3.5345,-3.4931,-3.4768,-3.5019,-3.4274,-3.3709,-3.3583,-3.3169,-3.296,-3.2986,-3.2855,-3.2998,-3.2885,-3.2842,-3.2885,-3.2998,-3.2855,-3.2533,-3.1687,-3.1599,-3.1537,-3.1553,-3.1461,-3.1461,-3.1424,-3.1537,-3.1411,-3.1537,-3.1625,-3.1888,-3.2215,-3.2667,-3.3156,-3.3533,-3.3721,-3.3859,-3.4167,-3.4405,-3.4436,-3.4477,-3.4455,-3.4254,-3.337,-3.3262,-3.3224,-3.3124,-3.3124,-3.3124,-3.3124,-3.3124,-3.3124,-3.3124,-3.3124,-3.3074,-3.293,-3.2604,-3.2077,-3.1775,-3.1562,-3.1386,-3.1373,-3.0922,-3.0645,-3.6417,-3.6417,-3.6417,-3.6417,-3.6417,-3.6417,-3.6417,-3.6417,-3.6417,-3.6417,-3.6417,-3.6417,-3.6292,-3.6056,-3.5855,-3.5391,-3.4718,-3.468,-3.468,-3.468,-3.468,-3.468,-3.468,-3.468,-3.468,-3.4768,-3.5232,-3.583,-3.6367,-3.6417,-3.6417,-3.6417,-3.6417,-3.6292,-3.6094,-3.6056,-3.5956,-3.5839,-3.5768,-3.5868,-3.6019,-3.6069,-3.6182,-3.6367,-3.583,-3.5495,-3.5495,-3.5495,-3.5658,-3.6044,-3.5868,-3.5855,-3.5956,-3.5203,-3.4625,-3.4449,-3.3784,-3.337,-3.3357,-3.3194,-3.3124,-3.3124,-3.3124,-3.3124,-3.3124,-3.3124,-3.3124,-3.3124,-3.3124,-3.286,-3.2629,-3.252,-3.2508,-3.2508,-3.2466,-3.2453,-3.2466,-3.2466,-3.2508,-3.2516,-3.2754,-3.3219,-3.3621,-3.3997,-3.4198,-3.4374,-3.4437,-3.455,-3.4568,-3.4558,-3.4558,-3.4726,-3.4886,-3.4856,-3.4299,-3.3809,-3.3545,-3.3262,-3.3124,-3.3124,-3.3124,-3.3124,-3.3124,-3.3124,-3.3124,-3.3111,-3.298,-3.293,-3.2466,-3.2428,-3.2202,-3.1938,-3.1913,-3.1474,-3.1223,-3.6417,-3.6417,-3.6417,-3.6417,-3.6417,-3.6417,-3.6417,-3.6417,-3.6417,-3.6417,-3.6417,-3.6417,-3.6417,-3.6417,-3.6417,-3.604,-3.5303,-3.5253,-3.524,-3.5253,-3.5253,-3.524,-3.524,-3.5253,-3.5253,-3.5303,-3.5617,-3.6019,-3.6367,-3.6417,-3.6417,-3.6417,-3.6417,-3.6417,-3.6417,-3.6417,-3.6417,-3.6417,-3.6417,-3.6405,-3.6417,-3.6417,-3.6417,-3.6355,-3.6006,-3.5671,-3.5508,-3.5495,-3.5646,-3.6031,-3.6094,-3.6094,-3.6006,-3.5228,-3.4605,-3.4399,-3.3746,-3.337,-3.3426,-3.3262,-3.3124,-3.3124,-3.3124,-3.3124,-3.3124,-3.3124,-3.3124,-3.3124,-3.3124,-3.3124,-3.3124,-3.3111,-3.3187,-3.3282,-3.3345,-3.3432,-3.3583,-3.3608,-3.3608,-3.3671,-3.4073,-3.4505,-3.4881,-3.5127,-3.524,-3.5253,-3.524,-3.524,-3.5194,-3.5098,-3.4957,-3.5219,-3.5506,-3.541,-3.5023,-3.4663,-3.4085,-3.3709,-3.3224,-3.3174,-3.3162,-3.3162,-3.3124,-3.3124,-3.3124,-3.3124,-3.3124,-3.3124,-3.3111,-3.3043,-3.283,-3.2503,-3.2303,-3.2026,-3.18,-3.6417,-3.6417,-3.6417,-3.6417,-3.6417,-3.6417,-3.6417,-3.6417,-3.6417,-3.6417,-3.6417,-3.6417,-3.6417,-3.6417,-3.6417,-3.6367,-3.6279,-3.6229,-3.6241,-3.6254,-3.6279,-3.6279,-3.6267,-3.6241,-3.6229,-3.6229,-3.6329,-3.6367,-3.6405,-3.6417,-3.6417,-3.6417,-3.6417,-3.6417,-3.6417,-3.6417,-3.6417,-3.6417,-3.6417,-3.6417,-3.6417,-3.6417,-3.6417,-3.6417,-3.6367,-3.6081,-3.5558,-3.5545,-3.5596,-3.5596,-3.5608,-3.5533,-3.5571,-3.5019,-3.4881,-3.5069,-3.4424,-3.3985,-3.4016,-3.3463,-3.3124,-3.3124,-3.3124,-3.3124,-3.3124,-3.3124,-3.3124,-3.3124,-3.3124,-3.3124,-3.3124,-3.3124,-3.3282,-3.3771,-3.3809,-3.3997,-3.4462,-3.4675,-3.4668,-3.4726,-3.5019,-3.5433,-3.5596,-3.5881,-3.6107,-3.6191,-3.6204,-3.6179,-3.6141,-3.6069,-3.6304,-3.6304,-3.616,-3.5947,-3.5708,-3.5433,-3.4781,-3.4211,-3.3583,-3.3244,-3.3287,-3.3275,-3.3149,-3.3124,-3.3124,-3.3124,-3.3124,-3.3124,-3.3124,-3.3099,-3.2968,-3.2918,-3.2717,-3.2466,-3.234,-3.6417,-3.6417,-3.6417,-3.6417,-3.6417,-3.6417,-3.6417,-3.6417,-3.6417,-3.6417,-3.6417,-3.6417,-3.6417,-3.6417,-3.6417,-3.6417,-3.6417,-3.6417,-3.6417,-3.6417,-3.6417,-3.6417,-3.6417,-3.6417,-3.6417,-3.6342,-3.5968,-3.6019,-3.6355,-3.6417,-3.6417,-3.6417,-3.6417,-3.6417,-3.6417,-3.6417,-3.6417,-3.6417,-3.6417,-3.6417,-3.6417,-3.6417,-3.6417,-3.6417,-3.6417,-3.6317,-3.6132,-3.6107,-3.6107,-3.6107,-3.6107,-3.6107,-3.5943,-3.5228,-3.4826,-3.4839,-3.3947,-3.3357,-3.3426,-3.3275,-3.3124,-3.3124,-3.3124,-3.3124,-3.3124,-3.3124,-3.3124,-3.3124,-3.3124,-3.3124,-3.3124,-3.3124,-3.3363,-3.3834,-3.3909,-3.4148,-3.4713,-3.4743,-3.4868,-3.5194,-3.5408,-3.5646,-3.6006,-3.638,-3.6405,-3.6417,-3.6417,-3.6417,-3.6417,-3.6417,-3.6417,-3.6417,-3.638,-3.6367,-3.6081,-3.5843,-3.5403,-3.4813,-3.4198,-3.3671,-3.3583,-3.3483,-3.3363,-3.3174,-3.3174,-3.3124,-3.3124,-3.3124,-3.3124,-3.3124,-3.3074,-3.3074,-3.3086,-3.296,-3.2717,-3.6417,-3.6417,-3.6417,-3.6417,-3.6417,-3.6417,-3.6417,-3.6417,-3.6417,-3.6417,-3.6417,-3.6417,-3.6417,-3.6417,-3.6417,-3.6417,-3.6417,-3.6417,-3.6417,-3.6417,-3.6417,-3.6417,-3.6417,-3.6417,-3.6417,-3.6367,-3.6019,-3.6019,-3.638,-3.6417,-3.6417,-3.6417,-3.6417,-3.6417,-3.6417,-3.6417,-3.6417,-3.6417,-3.6417,-3.6417,-3.6417,-3.6417,-3.6417,-3.6417,-3.6417,-3.6417,-3.6417,-3.6417,-3.6417,-3.6417,-3.6417,-3.6417,-3.6329,-3.5353,-3.468,-3.4525,-3.3759,-3.3136,-3.3124,-3.3149,-3.3124,-3.3124,-3.3124,-3.3124,-3.3124,-3.3124,-3.3124,-3.3124,-3.3124,-3.324,-3.3598,-3.327,-3.3611,-3.4714,-3.4433,-3.4582,-3.5115,-3.5328,-3.5466,-3.578,-3.5868,-3.6044,-3.6304,-3.6417,-3.6417,-3.6417,-3.6417,-3.6417,-3.6417,-3.6417,-3.6417,-3.6417,-3.6405,-3.6392,-3.6392,-3.6144,-3.5918,-3.5416,-3.4889,-3.4449,-3.4173,-3.406,-3.3909,-3.3495,-3.3345,-3.3162,-3.3124,-3.3124,-3.3124,-3.3124,-3.3124,-3.3124,-3.3111,-3.3111,-3.2986,-3.6417,-3.6417,-3.6417,-3.6417,-3.6417,-3.6417,-3.6417,-3.6417,-3.6417,-3.6417,-3.6417,-3.6417,-3.6417,-3.6417,-3.6417,-3.6417,-3.6417,-3.6417,-3.6417,-3.6417,-3.6417,-3.6417,-3.6417,-3.6417,-3.6417,-3.6405,-3.6367,-3.638,-3.6417,-3.6417,-3.6417,-3.6417,-3.6417,-3.6417,-3.6417,-3.6417,-3.6417,-3.6417,-3.6417,-3.6417,-3.6417,-3.6417,-3.6417,-3.6417,-3.6417,-3.6417,-3.6417,-3.6417,-3.6417,-3.6417,-3.6417,-3.6417,-3.6229,-3.5353,-3.4781,-3.4801,-3.3771,-3.3382,-3.3262,-3.3388,-3.3375,-3.3345,-3.3312,-3.3162,-3.3206,-3.3144,-3.3174,-3.3237,-3.325,-3.3568,-3.4176,-3.3913,-3.43,-3.5757,-3.5443,-3.5407,-3.6204,-3.6317,-3.6267,-3.6317,-3.6405,-3.6417,-3.6417,-3.6417,-3.6417,-3.6417,-3.6417,-3.6417,-3.6417,-3.6417,-3.6417,-3.6417,-3.6417,-3.6405,-3.6405,-3.6367,-3.6107,-3.5931,-3.5479,-3.5165,-3.4663,-3.4449,-3.4198,-3.3796,-3.3458,-3.3275,-3.3124,-3.3124,-3.3124,-3.3124,-3.3124,-3.3124,-3.3124,-3.3124,-3.3124,-3.6417,-3.6417,-3.6417,-3.6417,-3.6417,-3.6417,-3.6417,-3.6417,-3.6417,-3.6417,-3.6417,-3.6417,-3.6417,-3.6417,-3.6417,-3.6417,-3.6417,-3.6417,-3.6417,-3.6417,-3.6417,-3.6417,-3.6417,-3.6417,-3.6417,-3.6417,-3.6417,-3.6417,-3.6417,-3.6417,-3.6417,-3.6417,-3.6417,-3.6417,-3.6417,-3.6417,-3.6417,-3.6417,-3.6417,-3.6417,-3.6417,-3.6417,-3.6417,-3.6417,-3.6417,-3.6417,-3.6417,-3.6417,-3.6417,-3.6417,-3.6417,-3.6417,-3.6355,-3.568,-3.5232,-3.5107,-3.4675,-3.4261,-3.4248,-3.4236,-3.4261,-3.4248,-3.3872,-3.3684,-3.3671,-3.3307,-3.3375,-3.3545,-3.3696,-3.3966,-3.4546,-3.4471,-3.5213,-3.6523,-3.6321,-3.6096,-3.6386,-3.6417,-3.6417,-3.6417,-3.6417,-3.6417,-3.6417,-3.6417,-3.6417,-3.6417,-3.6417,-3.6417,-3.6417,-3.6417,-3.6417,-3.6417,-3.6417,-3.6417,-3.6417,-3.6417,-3.638,-3.6342,-3.6103,-3.583,-3.5215,-3.4638,-3.4261,-3.3834,-3.3533,-3.3282,-3.3187,-3.3124,-3.3124,-3.3124,-3.3124,-3.3124,-3.3124,-3.3124,-3.3124,-3.6417,-3.6417,-3.6417,-3.6417,-3.6417,-3.6417,-3.6417,-3.6417,-3.6417,-3.6417,-3.6417,-3.6417,-3.6417,-3.6417,-3.6417,-3.6417,-3.6417,-3.6417,-3.6417,-3.6417,-3.6417,-3.6417,-3.6417,-3.6417,-3.6417,-3.6417,-3.6417,-3.6417,-3.6417,-3.6417,-3.6417,-3.6417,-3.6417,-3.6417,-3.6417,-3.6417,-3.6417,-3.6417,-3.6417,-3.6417,-3.6417,-3.6417,-3.6417,-3.6417,-3.6417,-3.6417,-3.6417,-3.6417,-3.6417,-3.6417,-3.6417,-3.6417,-3.6367,-3.5843,-3.5508,-3.547,-3.4981,-3.4668,-3.468,-3.468,-3.468,-3.4675,-3.4374,-3.4274,-3.4198,-3.3935,-3.396,-3.4186,-3.4248,-3.461,-3.5251,-3.5539,-3.5968,-3.6412,-3.6862,-3.7044,-3.7116,-3.6709,-3.6452,-3.6417,-3.6417,-3.6417,-3.6417,-3.6417,-3.6417,-3.6417,-3.6417,-3.6417,-3.6417,-3.6417,-3.6417,-3.6417,-3.6417,-3.6417,-3.6417,-3.6417,-3.6417,-3.6405,-3.6367,-3.6169,-3.5755,-3.5039,-3.4663,-3.4261,-3.3771,-3.337,-3.33,-3.3187,-3.3124,-3.3124,-3.3124,-3.3124,-3.3124,-3.3124,-3.3124,-3.6417,-3.6417,-3.6417,-3.6417,-3.6417,-3.6417,-3.6417,-3.6417,-3.6417,-3.6417,-3.6417,-3.6417,-3.6417,-3.6417,-3.6417,-3.6417,-3.6417,-3.6417,-3.6417,-3.6417,-3.6417,-3.6443,-3.6593,-3.6455,-3.6417,-3.6417,-3.6417,-3.6417,-3.6417,-3.6417,-3.6417,-3.6417,-3.6417,-3.6417,-3.6417,-3.6417,-3.6417,-3.6417,-3.6417,-3.6417,-3.6417,-3.6417,-3.6417,-3.6417,-3.6417,-3.6417,-3.6417,-3.6417,-3.6417,-3.6417,-3.6417,-3.6417,-3.6355,-3.5881,-3.5646,-3.5583,-3.5328,-3.5039,-3.4951,-3.5052,-3.4977,-3.5002,-3.4926,-3.4768,-3.4731,-3.4593,-3.46,-3.4756,-3.4891,-3.5558,-3.6335,-3.6914,-3.6805,-3.6559,-3.726,-3.7763,-3.7912,-3.7276,-3.6722,-3.6581,-3.6628,-3.6581,-3.6405,-3.6417,-3.6417,-3.6417,-3.6417,-3.6417,-3.6417,-3.6417,-3.6417,-3.6417,-3.6417,-3.6417,-3.6417,-3.6417,-3.6417,-3.6405,-3.6405,-3.6317,-3.6169,-3.5655,-3.529,-3.4793,-3.4173,-3.3684,-3.337,-3.3269,-3.3199,-3.3124,-3.3124,-3.3124,-3.3124,-3.3124,-3.3124,-3.6417,-3.6417,-3.6417,-3.6417,-3.6417,-3.6417,-3.6417,-3.6417,-3.6417,-3.6417,-3.6417,-3.6417,-3.6443,-3.643,-3.6493,-3.6417,-3.6505,-3.6505,-3.6417,-3.6417,-3.6417,-3.6681,-3.687,-3.6694,-3.6455,-3.6455,-3.643,-3.643,-3.6443,-3.6443,-3.6417,-3.6443,-3.6443,-3.6417,-3.6417,-3.6417,-3.6417,-3.6417,-3.6417,-3.6417,-3.6417,-3.6417,-3.6417,-3.6417,-3.6417,-3.6417,-3.6417,-3.6417,-3.6417,-3.6417,-3.6417,-3.6417,-3.638,-3.6279,-3.6144,-3.6094,-3.6056,-3.5968,-3.5994,-3.5918,-3.5981,-3.5868,-3.5567,-3.532,-3.5295,-3.4944,-3.4969,-3.5365,-3.618,-3.6824,-3.7498,-3.7785,-3.7657,-3.7449,-3.7219,-3.7363,-3.7962,-3.8644,-3.8424,-3.7886,-3.7652,-3.7415,-3.6581,-3.6452,-3.6417,-3.6417,-3.6452,-3.6465,-3.6452,-3.6499,-3.6417,-3.6417,-3.6417,-3.6417,-3.6417,-3.6417,-3.6417,-3.6417,-3.6417,-3.6405,-3.6304,-3.6069,-3.5629,-3.5044,-3.4442,-3.406,-3.3684,-3.3332,-3.325,-3.3187,-3.3124,-3.3124,-3.3124,-3.3124,-3.3124,-3.6417,-3.6417,-3.6417,-3.6417,-3.6417,-3.6417,-3.6417,-3.6417,-3.6417,-3.6417,-3.648,-3.6609,-3.6782,-3.682,-3.7046,-3.7149,-3.7136,-3.7136,-3.7149,-3.7161,-3.7174,-3.7299,-3.745,-3.7274,-3.7036,-3.681,-3.6795,-3.6795,-3.6744,-3.6533,-3.6556,-3.6697,-3.6556,-3.6417,-3.6417,-3.6417,-3.6417,-3.6417,-3.6417,-3.6417,-3.6417,-3.6417,-3.6417,-3.6417,-3.6417,-3.6417,-3.6417,-3.6417,-3.6417,-3.6417,-3.6417,-3.6417,-3.6417,-3.6417,-3.6417,-3.6417,-3.6417,-3.6417,-3.6405,-3.6417,-3.638,-3.6417,-3.6081,-3.5994,-3.5893,-3.5617,-3.5642,-3.6045,-3.6739,-3.7518,-3.8339,-3.8471,-3.8392,-3.8206,-3.8075,-3.8172,-3.8407,-3.8805,-3.8864,-3.8247,-3.8028,-3.7801,-3.7381,-3.6803,-3.6849,-3.7023,-3.7494,-3.7494,-3.7057,-3.7023,-3.6499,-3.6417,-3.6417,-3.6417,-3.6417,-3.6417,-3.6417,-3.6417,-3.6417,-3.6417,-3.6367,-3.6119,-3.5868,-3.5378,-3.4868,-3.4424,-3.4048,-3.3684,-3.3319,-3.3199,-3.3136,-3.3124,-3.3124,-3.3124,-3.3124,-3.6417,-3.6417,-3.6417,-3.6417,-3.643,-3.6518,-3.6568,-3.6556,-3.6631,-3.6807,-3.6744,-3.7123,-3.7312,-3.74,-3.7726,-3.7965,-3.7952,-3.7927,-3.7814,-3.7814,-3.7814,-3.7952,-3.8065,-3.804,-3.7889,-3.7462,-3.7337,-3.7312,-3.7186,-3.6958,-3.701,-3.7174,-3.6807,-3.6656,-3.6581,-3.643,-3.6417,-3.6417,-3.6417,-3.6417,-3.6417,-3.6417,-3.6417,-3.6417,-3.6417,-3.6417,-3.6417,-3.6417,-3.6417,-3.6417,-3.6417,-3.6417,-3.6417,-3.6417,-3.6417,-3.6417,-3.6417,-3.6417,-3.6455,-3.6493,-3.6556,-3.6455,-3.6518,-3.6531,-3.6518,-3.6518,-3.6568,-3.6865,-3.7438,-3.808,-3.8805,-3.8853,-3.8589,-3.837,-3.905,-3.9224,-3.8859,-3.8472,-3.8641,-3.8769,-3.8688,-3.8442,-3.7723,-3.7116,-3.7415,-3.771,-3.8153,-3.832,-3.7848,-3.7368,-3.6803,-3.6417,-3.6417,-3.6417,-3.6417,-3.6417,-3.6417,-3.6417,-3.6417,-3.6417,-3.6417,-3.6292,-3.6056,-3.583,-3.5403,-3.4926,-3.4437,-3.4035,-3.3671,-3.335,-3.3149,-3.3124,-3.3124,-3.3124,-3.3124,-3.6417,-3.6417,-3.6417,-3.6417,-3.6493,-3.6847,-3.7048,-3.7123,-3.7487,-3.7713,-3.7701,-3.7839,-3.7877,-3.7927,-3.7939,-3.8027,-3.8153,-3.8191,-3.8153,-3.814,-3.8165,-3.8316,-3.868,-3.8718,-3.8655,-3.8492,-3.8191,-3.7952,-3.7877,-3.7789,-3.7676,-3.7713,-3.7324,-3.7061,-3.6923,-3.6681,-3.6493,-3.6493,-3.6455,-3.6417,-3.6493,-3.6493,-3.6443,-3.643,-3.6417,-3.6417,-3.6417,-3.6417,-3.6417,-3.6417,-3.6417,-3.6417,-3.6417,-3.6417,-3.6417,-3.6417,-3.6417,-3.6417,-3.6443,-3.6772,-3.6769,-3.6656,-3.6845,-3.7036,-3.7048,-3.7121,-3.7321,-3.7975,-3.8656,-3.9297,-3.8938,-3.9203,-3.8747,-3.8455,-3.8464,-3.8746,-3.891,-3.9177,-3.9699,-3.997,-3.9633,-3.9064,-3.8347,-3.7906,-3.8153,-3.8198,-3.8166,-3.8211,-3.7815,-3.7381,-3.6896,-3.6593,-3.6417,-3.6417,-3.6417,-3.6417,-3.6417,-3.6417,-3.6417,-3.6417,-3.6417,-3.6417,-3.6279,-3.6031,-3.5818,-3.5395,-3.4964,-3.4462,-3.4123,-3.3834,-3.3483,-3.3174,-3.3212,-3.3275,-3.3136,-3.6417,-3.6443,-3.6707,-3.6832,-3.6885,-3.7374,-3.76,-3.7638,-3.7889,-3.8002,-3.809,-3.8291,-3.8454,-3.853,-3.8793,-3.8881,-3.8856,-3.8881,-3.8881,-3.8881,-3.8906,-3.8981,-3.927,-3.9283,-3.9295,-3.922,-3.8994,-3.8668,-3.8442,-3.8103,-3.8228,-3.8278,-3.7889,-3.7613,-3.7487,-3.7086,-3.6883,-3.6795,-3.6606,-3.6581,-3.6807,-3.6784,-3.6732,-3.6493,-3.6443,-3.6417,-3.6417,-3.6417,-3.6417,-3.6417,-3.6417,-3.6417,-3.6417,-3.6417,-3.6417,-3.6417,-3.6417,-3.6417,-3.6493,-3.6847,-3.7023,-3.6923,-3.7299,-3.7575,-3.76,-3.77,-3.8159,-3.9233,-4.0145,-4.1094,-4.1781,-4.0495,-4.0109,-4.0222,-3.9625,-3.9328,-3.97,-3.9889,-4.0301,-4.0774,-4.0189,-3.9536,-3.9108,-3.8872,-3.9036,-3.8814,-3.8437,-3.8179,-3.7965,-3.752,-3.7163,-3.7645,-3.7461,-3.6849,-3.6803,-3.6675,-3.6499,-3.6405,-3.6417,-3.6417,-3.6417,-3.6417,-3.6417,-3.6329,-3.6056,-3.583,-3.5458,-3.4981,-3.4643,-3.4336,-3.3947,-3.3608,-3.347,-3.3357,-3.3275,-3.6744,-3.6782,-3.7161,-3.7349,-3.745,-3.7939,-3.8178,-3.8203,-3.8329,-3.8417,-3.8404,-3.8806,-3.9082,-3.9145,-3.9421,-3.9659,-3.9697,-3.9647,-3.9609,-3.9584,-3.9584,-3.9659,-3.9685,-3.9697,-3.9647,-3.9584,-3.9572,-3.9459,-3.9057,-3.868,-3.8705,-3.8755,-3.8467,-3.8178,-3.8078,-3.7626,-3.7425,-3.7211,-3.7021,-3.696,-3.7249,-3.7324,-3.7161,-3.6795,-3.6732,-3.6757,-3.6656,-3.6644,-3.6531,-3.6468,-3.6417,-3.6417,-3.6417,-3.6417,-3.6417,-3.6417,-3.6417,-3.6417,-3.6556,-3.7048,-3.7349,-3.7136,-3.7801,-3.809,-3.8241,-3.8441,-3.8941,-4.0331,-4.1038,-4.1556,-4.203,-4.1588,-4.1299,-4.1496,-4.0771,-4.0173,-4.0731,-4.0873,-4.036,-4.049,-4.0318,-4.0059,-3.9667,-3.9417,-3.9492,-3.9566,-3.9183,-3.9183,-3.8885,-3.8043,-3.7906,-3.8769,-3.8725,-3.7678,-3.7289,-3.7103,-3.6803,-3.6452,-3.6405,-3.6417,-3.6417,-3.6417,-3.6417,-3.6417,-3.638,-3.6107,-3.583,-3.552,-3.5144,-3.4756,-3.4387,-3.4035,-3.3759,-3.3545,-3.3395,-3.7814,-3.7814,-3.7877,-3.7914,-3.8002,-3.8517,-3.8818,-3.8831,-3.9233,-3.9496,-3.9358,-3.9509,-3.9546,-3.9584,-3.9622,-3.9697,-3.9697,-3.9697,-3.9697,-3.9697,-3.9697,-3.9697,-3.9697,-3.9697,-3.9697,-3.9697,-3.9697,-3.9672,-3.9496,-3.9383,-3.9433,-3.9408,-3.9044,-3.8818,-3.8705,-3.8203,-3.7927,-3.7902,-3.7839,-3.7814,-3.7852,-3.7877,-3.7852,-3.7751,-3.7676,-3.7487,-3.7111,-3.7023,-3.6908,-3.6568,-3.6455,-3.6417,-3.6417,-3.6417,-3.6417,-3.6417,-3.6417,-3.6417,-3.6556,-3.7174,-3.7626,-3.7525,-3.8177,-3.8693,-3.8944,-3.9436,-3.9867,-3.9663,-4.054,-4.1146,-4.1483,-4.0732,-4.1016,-4.1127,-4.0773,-4.1254,-4.2044,-4.1699,-4.1183,-4.1042,-4.1127,-4.0746,-4.0318,-4.0073,-3.9899,-3.9986,-4.0015,-4.0015,-3.9754,-3.8917,-3.8424,-3.9244,-3.8992,-3.7939,-3.7196,-3.7103,-3.6883,-3.6439,-3.6405,-3.6417,-3.6417,-3.6417,-3.6417,-3.6417,-3.6417,-3.6405,-3.6144,-3.5881,-3.5571,-3.527,-3.4964,-3.4462,-3.396,-3.3759,-3.3583,-3.8592,-3.8027,-3.8366,-3.8492,-3.8567,-3.9094,-3.9333,-3.9383,-3.9584,-3.9697,-3.9697,-3.9697,-3.9697,-3.9697,-3.9697,-3.9697,-3.9697,-3.9697,-3.9697,-3.9697,-3.9697,-3.9697,-3.9697,-3.9697,-3.9697,-3.9697,-3.9697,-3.9697,-3.9697,-3.9697,-3.9697,-3.9659,-3.9471,-3.9333,-3.9233,-3.8768,-3.8555,-3.8492,-3.8467,-3.8316,-3.8178,-3.8291,-3.8341,-3.804,-3.804,-3.7889,-3.7676,-3.7287,-3.7299,-3.7061,-3.6857,-3.6581,-3.6694,-3.6619,-3.6417,-3.6417,-3.6417,-3.6417,-3.6518,-3.7197,-3.7475,-3.7852,-3.8391,-3.9007,-3.9563,-4.0713,-4.1654,-4.1923,-4.2152,-4.2196,-4.1599,-4.0391,-4.0782,-4.0926,-4.0702,-4.1534,-4.2374,-4.2426,-4.2167,-4.207,-4.1891,-4.1476,-4.1267,-4.1491,-4.1449,-4.1491,-4.1309,-4.1042,-4.0618,-3.9885,-3.9566,-3.9538,-3.8845,-3.7861,-3.715,-3.6756,-3.6709,-3.6452,-3.6405,-3.6417,-3.6417,-3.6417,-3.6417,-3.6417,-3.6417,-3.6405,-3.6392,-3.6267,-3.5981,-3.5768,-3.552,-3.509,-3.4587,-3.396,-3.3734,-3.9195,-3.8479,-3.8944,-3.9082,-3.9107,-3.9534,-3.9685,-3.9685,-3.9697,-3.9697,-3.9697,-3.9697,-3.9697,-3.9697,-3.9697,-3.9697,-3.9697,-3.9697,-3.9697,-3.9697,-3.9697,-3.9697,-3.9697,-3.9697,-3.9697,-3.9697,-3.9697,-3.9697,-3.9697,-3.9697,-3.9697,-3.9697,-3.9647,-3.9647,-3.9572,-3.9308,-3.9069,-3.9069,-3.9069,-3.8868,-3.8655,-3.8894,-3.8806,-3.8592,-3.8417,-3.8354,-3.8178,-3.7914,-3.7914,-3.7663,-3.7299,-3.7098,-3.7262,-3.6996,-3.6719,-3.6644,-3.6568,-3.6417,-3.6631,-3.7048,-3.7525,-3.8065,-3.868,-3.9295,-3.9752,-4.1654,-4.2509,-4.1923,-4.2814,-4.3184,-4.3114,-4.0787,-4.1007,-4.1113,-4.0886,-4.1662,-4.2266,-4.2237,-4.2211,-4.209,-4.202,-4.229,-4.2304,-4.286,-4.3036,-4.3076,-4.2725,-4.2126,-4.1518,-4.0831,-4.0788,-4.0632,-3.9522,-3.8604,-3.803,-3.7415,-3.7023,-3.6452,-3.6417,-3.6417,-3.6417,-3.6417,-3.6417,-3.6417,-3.6417,-3.6405,-3.6405,-3.6405,-3.6405,-3.6132,-3.5906,-3.5717,-3.5207,-3.455,-3.3822,-3.9659,-3.9584,-3.9609,-3.9609,-3.9609,-3.9672,-3.9697,-3.9697,-3.9697,-3.9697,-3.9697,-3.9697,-3.9697,-3.9697,-3.9697,-3.9697,-3.9697,-3.9697,-3.9697,-3.9697,-3.9697,-3.9697,-3.9697,-3.9697,-3.9697,-3.9697,-3.9697,-3.9697,-3.9697,-3.9697,-3.9697,-3.9697,-3.9697,-3.9697,-3.9672,-3.9572,-3.9509,-3.9509,-3.9509,-3.9534,-3.9421,-3.9521,-3.9496,-3.9509,-3.9471,-3.9346,-3.8906,-3.8693,-3.8504,-3.8216,-3.7839,-3.7764,-3.7801,-3.7412,-3.7149,-3.7061,-3.6744,-3.6593,-3.6732,-3.7123,-3.7789,-3.8266,-3.8881,-3.9546,-3.9775,-3.9762,-4.0096,-4.0626,-4.1923,-4.2278,-4.2251,-4.1884,-4.1193,-4.0914,-4.0673,-4.1086,-4.1617,-4.1852,-4.1881,-4.1955,-4.2189,-4.2552,-4.2684,-4.3076,-4.3265,-4.321,-4.321,-4.2644,-4.2426,-4.1906,-4.2044,-4.1726,-4.0546,-3.9768,-3.9448,-3.8707,-3.7507,-3.6722,-3.6417,-3.6417,-3.6417,-3.6417,-3.6417,-3.6417,-3.6417,-3.6417,-3.6417,-3.6417,-3.6417,-3.6417,-3.6279,-3.5956,-3.5508,-3.4818,-3.4073,-3.9697,-3.9697,-3.9697,-3.9697,-3.9697,-3.9697,-3.9697,-3.9697,-3.9697,-3.9697,-3.9697,-3.9697,-3.9697,-3.9697,-3.9697,-3.9697,-3.9697,-3.9697,-3.9697,-3.9697,-3.9697,-3.9697,-3.9697,-3.9697,-3.9697,-3.9697,-3.9697,-3.9697,-3.9697,-3.9697,-3.9697,-3.9697,-3.9697,-3.9697,-3.9697,-3.9697,-3.9697,-3.9697,-3.9697,-3.9697,-3.9697,-3.9697,-3.9697,-3.9697,-3.9697,-3.9609,-3.9358,-3.9019,-3.8969,-3.8831,-3.8379,-3.8354,-3.8404,-3.7965,-3.7726,-3.7626,-3.7161,-3.6897,-3.682,-3.7073,-3.7249,-3.8178,-3.8981,-3.9685,-3.9725,-4.0019,-4.0316,-4.0781,-4.124,-4.1604,-4.1259,-4.0701,-4.0103,-4.0136,-4.0332,-4.0631,-4.11,-4.1425,-4.2058,-4.2325,-4.2692,-4.305,-4.3076,-4.313,-4.321,-4.3305,-4.3305,-4.325,-4.2941,-4.2644,-4.2603,-4.2263,-4.1099,-4.0015,-3.961,-3.868,-3.771,-3.7103,-3.6499,-3.6417,-3.6417,-3.6417,-3.6417,-3.6417,-3.6417,-3.6417,-3.6417,-3.6417,-3.6417,-3.6417,-3.6329,-3.6107,-3.5642,-3.5082,-3.4487,-3.9697,-3.9697,-3.9697,-3.9697,-3.9697,-3.9697,-3.9697,-3.9697,-3.9697,-3.9697,-3.9697,-3.9697,-3.9697,-3.9697,-3.9697,-3.9697,-3.9697,-3.9697,-3.9697,-3.9697,-3.9697,-3.9697,-3.9697,-3.9697,-3.9697,-3.9697,-3.9697,-3.9697,-3.9697,-3.9697,-3.9697,-3.9697,-3.9697,-3.9697,-3.9697,-3.9697,-3.9697,-3.9697,-3.9697,-3.9697,-3.9697,-3.9697,-3.9697,-3.9697,-3.9697,-3.9685,-3.9572,-3.9358,-3.9358,-3.9283,-3.9069,-3.8831,-3.8781,-3.8655,-3.8329,-3.809,-3.7789,-3.74,-3.7149,-3.7161,-3.7362,-3.858,-3.9182,-3.9546,-3.9677,-3.9925,-3.987,-3.979,-4.0542,-4.0982,-4.0377,-4.0056,-3.9959,-4.0095,-3.9782,-4.0041,-4.085,-4.141,-4.2208,-4.2809,-4.29,-4.2644,-4.2644,-4.2563,-4.29,-4.3076,-4.3305,-4.329,-4.3155,-4.29,-4.2644,-4.2208,-4.1435,-4.039,-3.942,-3.8635,-3.7939,-3.7494,-3.6943,-3.6499,-3.6417,-3.6417,-3.6417,-3.6417,-3.6417,-3.6417,-3.6417,-3.6417,-3.6417,-3.6417,-3.6329,-3.6241,-3.5768,-3.5232,-3.4906,-3.9697,-3.9697,-3.9697,-3.9697,-3.9697,-3.9697,-3.9697,-3.9697,-3.9697,-3.9697,-3.9697,-3.9697,-3.9697,-3.9697,-3.9697,-3.9697,-3.9697,-3.9697,-3.9697,-3.9697,-3.9697,-3.9697,-3.9697,-3.9697,-3.9697,-3.9697,-3.9697,-3.9697,-3.9697,-3.9697,-3.9697,-3.9697,-3.9697,-3.9697,-3.9697,-3.9697,-3.9697,-3.9697,-3.9697,-3.9697,-3.9697,-3.9697,-3.9697,-3.9697,-3.9697,-3.9697,-3.9647,-3.9609,-3.9584,-3.9559,-3.9546,-3.9433,-3.9446,-3.9107,-3.8868,-3.8856,-3.8304,-3.7801,-3.7362,-3.7726,-3.8366,-3.9107,-3.9484,-3.9521,-3.9107,-3.9007,-3.9092,-3.92,-3.9572,-3.9748,-3.9706,-3.9816,-3.9953,-3.9931,-3.956,-3.9584,-4.0395,-4.1294,-4.204,-4.2351,-4.2005,-4.1726,-4.1767,-4.1906,-4.2412,-4.2805,-4.317,-4.325,-4.3195,-4.2805,-4.2426,-4.1947,-4.1351,-4.0703,-3.9697,-3.8859,-3.8198,-3.7815,-3.7415,-3.6943,-3.6546,-3.6417,-3.6417,-3.6417,-3.6417,-3.6417,-3.6417,-3.6417,-3.6417,-3.6417,-3.6417,-3.6279,-3.5818,-3.5483,-3.529,-3.9697,-3.9697,-3.9697,-3.9697,-3.9697,-3.9697,-3.9697,-3.9697,-3.9697,-3.9697,-3.9697,-3.9697,-3.9697,-3.9697,-3.9697,-3.9697,-3.9697,-3.9697,-3.9697,-3.9697,-3.9697,-3.9697,-3.9697,-3.9697,-3.9697,-3.9697,-3.9697,-3.9697,-3.9697,-3.9697,-3.9697,-3.9697,-3.9697,-3.9697,-3.9697,-3.9697,-3.9697,-3.9697,-3.9697,-3.9697,-3.9697,-3.9697,-3.9697,-3.9697,-3.9697,-3.9697,-3.9697,-3.9697,-3.9697,-3.9697,-3.9697,-3.9697,-3.9697,-3.9383,-3.9396,-3.9295,-3.8894,-3.873,-3.863,-3.8831,-3.8756,-3.922,-3.9496,-3.9584,-3.9396,-3.8642,-3.8662,-3.8891,-3.9089,-3.9336,-3.9751,-3.9481,-3.9514,-3.9612,-3.9465,-3.935,-3.9924,-4.091,-4.163,-4.1566,-4.1298,-4.2102,-4.2386,-4.1823,-4.2029,-4.2249,-4.2563,-4.2941,-4.2981,-4.233,-4.1864,-4.1518,-4.1042,-4.0618,-4.0015,-3.9169,-3.8469,-3.7984,-3.7678,-3.7368,-3.7023,-3.6499,-3.6417,-3.6417,-3.6417,-3.6417,-3.6417,-3.6417,-3.6417,-3.6417,-3.6417,-3.6417,-3.6132,-3.5956,-3.5855,-3.9697,-3.9697,-3.9697,-3.9697,-3.9697,-3.9697,-3.9697,-3.9697,-3.9697,-3.9697,-3.9697,-3.9697,-3.9697,-3.9697,-3.9697,-3.9697,-3.9697,-3.9697,-3.9697,-3.9697,-3.9697,-3.9697,-3.9697,-3.9735,-3.9697,-3.971,-3.971,-3.9697,-3.9697,-3.9697,-3.9697,-3.9697,-3.9697,-3.9697,-3.9697,-3.9697,-3.9697,-3.9697,-3.9697,-3.9697,-3.9697,-3.9697,-3.9697,-3.9697,-3.9697,-3.9697,-3.9697,-3.9697,-3.9697,-3.9697,-3.9697,-3.9697,-3.9697,-3.9697,-3.9697,-3.9546,-3.9459,-3.9446,-3.9659,-3.9685,-3.9659,-3.9936,-3.981,-3.9572,-3.9333,-3.8542,-3.8524,-3.8714,-3.8856,-3.8873,-3.8927,-3.8694,-3.914,-3.9285,-3.9034,-3.8905,-4.0285,-4.1325,-4.0546,-4.0513,-4.0871,-4.1883,-4.2603,-4.2167,-4.1699,-4.1823,-4.1947,-4.229,-4.2534,-4.1903,-4.1392,-4.1155,-4.0661,-4.0176,-3.9844,-3.9434,-3.8769,-3.8198,-3.7802,-3.7461,-3.6977,-3.6417,-3.6417,-3.6417,-3.6417,-3.6417,-3.6417,-3.6417,-3.6417,-3.6417,-3.6417,-3.6417,-3.6417,-3.6329,-3.6169,-3.9697,-3.9697,-3.9697,-3.9697,-3.9697,-3.9697,-3.9697,-3.9697,-3.9697,-3.9697,-3.9697,-3.9697,-3.9697,-3.9697,-3.9697,-3.9697,-3.9697,-3.9697,-3.9772,-3.9785,-3.986,-3.9848,-3.991,-3.9948,-4.0061,-3.9898,-3.9823,-3.991,-3.976,-3.9697,-3.9697,-3.9697,-3.9697,-3.9697,-3.9697,-3.9697,-3.9697,-3.9697,-3.9697,-3.9697,-3.9697,-3.9697,-3.9697,-3.9697,-3.9697,-3.9697,-3.9697,-3.9697,-3.9697,-3.9697,-3.9697,-3.9697,-3.9697,-3.9697,-3.9697,-3.9685,-3.9659,-4.0036,-4.04,-4.0425,-4.0714,-4.0827,-4.0237,-3.9609,-3.8994,-3.8542,-3.836,-3.8242,-3.8212,-3.7831,-3.759,-3.8274,-3.8922,-3.8693,-3.8334,-3.9292,-4.1043,-4.1042,-3.9741,-3.9502,-3.9954,-4.0632,-4.1225,-4.1141,-4.1042,-4.1267,-4.1309,-4.1253,-4.1433,-4.1263,-4.09,-4.1028,-4.0448,-3.9704,-3.9352,-3.9023,-3.8769,-3.8107,-3.754,-3.715,-3.6675,-3.6417,-3.6417,-3.6417,-3.6417,-3.6417,-3.6417,-3.6417,-3.6417,-3.6417,-3.6417,-3.6417,-3.6417,-3.6417,-3.6329,-3.9697,-3.9697,-3.9697,-3.9697,-3.9697,-3.9697,-3.9697,-3.9697,-3.9697,-3.9697,-3.9697,-3.9697,-3.9697,-3.9697,-3.9697,-3.9697,-3.9697,-3.976,-3.9998,-4.0099,-4.0187,-4.0513,-4.0701,-4.0764,-4.084,-4.0689,-4.0501,-4.0275,-4.0187,-3.9986,-3.976,-3.9697,-3.9772,-3.976,-3.971,-3.9697,-3.9697,-3.9697,-3.9697,-3.9697,-3.9697,-3.9697,-3.9697,-3.9697,-3.9697,-3.9697,-3.9697,-3.9697,-3.9697,-3.9697,-3.9697,-3.9697,-3.9697,-3.9697,-3.9697,-3.9747,-4.0049,-4.0513,-4.0912,-4.105,-4.1291,-4.1492,-4.0852,-4.0124,-3.9408,-3.8743,-3.8309,-3.8306,-3.8007,-3.7749,-3.7577,-3.8009,-3.833,-3.8043,-3.7848,-3.8667,-4.0204,-4.0304,-3.905,-3.8738,-3.9183,-3.9492,-4.0045,-4.0218,-4.0175,-4.0532,-4.076,-4.0703,-4.0276,-4.0065,-4.0364,-4.0491,-3.9475,-3.851,-3.8555,-3.8366,-3.8243,-3.8017,-3.7402,-3.6883,-3.6581,-3.6417,-3.6417,-3.6417,-3.6417,-3.6417,-3.6417,-3.6417,-3.6417,-3.6417,-3.6417,-3.6417,-3.6417,-3.6417,-3.6417,-3.9697,-3.9697,-3.9697,-3.9697,-3.9697,-3.9697,-3.9697,-3.9697,-3.9697,-3.9697,-3.9697,-3.9697,-3.9697,-3.9697,-3.9697,-3.9697,-3.9697,-3.9722,-3.9948,-4.0375,-4.0576,-4.0774,-4.1087,-4.1313,-4.12,-4.1137,-4.1037,-4.084,-4.0714,-4.0551,-4.0337,-4.0061,-4.0023,-3.9873,-3.976,-3.9697,-3.9697,-3.9697,-3.9697,-3.9697,-3.9697,-3.9697,-3.9697,-3.9697,-3.9697,-3.9697,-3.9697,-3.9697,-3.9697,-3.9697,-3.9697,-3.9697,-3.9697,-3.9697,-3.9697,-3.9785,-4.0187,-4.0538,-4.0915,-4.1455,-4.1668,-4.1643,-4.1204,-4.0526,-3.971,-3.8957,-3.893,-3.8971,-3.8338,-3.7882,-3.7814,-3.7719,-3.7568,-3.7394,-3.7599,-3.7848,-3.8501,-3.9169,-3.8814,-3.832,-3.8379,-3.8604,-3.8872,-3.9094,-3.9522,-4.0145,-4.0575,-4.0661,-3.9757,-3.8747,-3.9264,-3.98,-3.8403,-3.7091,-3.7384,-3.771,-3.7494,-3.7368,-3.7103,-3.6675,-3.6452,-3.6417,-3.6417,-3.6417,-3.6417,-3.6417,-3.6417,-3.6417,-3.6417,-3.6417,-3.6417,-3.6417,-3.6417,-3.6417,-3.6417,-3.9697,-3.971,-3.9735,-3.981,-3.9772,-3.986,-3.9898,-3.981,-3.9848,-3.9735,-3.971,-3.9697,-3.9747,-3.986,-3.9885,-3.9948,-4.0049,-4.0111,-4.0413,-4.0664,-4.089,-4.1204,-4.1501,-4.1463,-4.1769,-4.1539,-4.1338,-4.1329,-4.1238,-4.105,-4.0786,-4.0601,-4.0588,-4.0438,-4.0149,-4.0099,-4.0136,-4.0149,-3.9973,-3.9848,-3.9722,-3.9697,-3.9697,-3.9697,-3.9697,-3.9697,-3.9697,-3.9697,-3.9697,-3.9697,-3.9697,-3.9697,-3.9697,-3.9697,-3.9697,-3.986,-4.0224,-4.0475,-4.084,-4.1367,-4.1555,-4.1517,-4.1213,-4.0689,-3.9936,-3.9132,-3.9082,-3.9076,-3.8533,-3.829,-3.8175,-3.8437,-3.8452,-3.7796,-3.754,-3.7556,-3.7666,-3.8273,-3.8469,-3.7984,-3.7848,-3.8043,-3.7893,-3.8166,-3.8783,-3.9623,-4.0232,-4.0447,-3.9578,-3.8063,-3.8322,-3.9088,-3.7801,-3.6667,-3.6988,-3.715,-3.6769,-3.6546,-3.6593,-3.6593,-3.6465,-3.6417,-3.6417,-3.6417,-3.6417,-3.6417,-3.6417,-3.6417,-3.6417,-3.6417,-3.6417,-3.6417,-3.6417,-3.6417,-3.6417,-3.9697,-3.9747,-4.0149,-4.0312,-4.0388,-4.0777,-4.0927,-4.0902,-4.0475,-4.0099,-3.9747,-3.9747,-3.9961,-4.03,-4.0325,-4.0463,-4.0736,-4.0739,-4.1241,-4.1517,-4.1697,-4.1819,-4.2421,-4.2384,-4.2484,-4.2434,-4.2208,-4.1781,-4.1539,-4.1388,-4.1288,-4.1125,-4.1087,-4.0937,-4.0749,-4.0777,-4.0764,-4.0714,-4.0463,-4.0136,-3.9898,-3.976,-3.9697,-3.9697,-3.9697,-3.9697,-3.9697,-3.9697,-3.9697,-3.9697,-3.9697,-3.9697,-3.9697,-3.9697,-3.9697,-3.9798,-4.0162,-4.0362,-4.0626,-4.1053,-4.1279,-4.1204,-4.0965,-4.0664,-4.0124,-3.9333,-3.8995,-3.9003,-3.8885,-3.8696,-3.8615,-3.9029,-3.9107,-3.8267,-3.7571,-3.7362,-3.7104,-3.7484,-3.7959,-3.7723,-3.7461,-3.7276,-3.715,-3.7448,-3.8075,-3.8827,-3.9681,-3.9861,-3.9104,-3.801,-3.7989,-3.8332,-3.7376,-3.6624,-3.6849,-3.6803,-3.6499,-3.6417,-3.6499,-3.6452,-3.6417,-3.6417,-3.6417,-3.6417,-3.6417,-3.6417,-3.6417,-3.6417,-3.6417,-3.6417,-3.6417,-3.6417,-3.6417,-3.6417,-3.6417,-4.0425,-4.0463,-4.0699,-4.0837,-4.0887,-4.1163,-4.1275,-4.1225,-4.1015,-4.0714,-4.0388,-4.0224,-4.0362,-4.0774,-4.0837,-4.1015,-4.1313,-4.125,-4.158,-4.2024,-4.2313,-4.2514,-4.2828,-4.2986,-4.2911,-4.2848,-4.2698,-4.2346,-4.202,-4.2057,-4.207,-4.1769,-4.1693,-4.1551,-4.1388,-4.13,-4.1326,-4.1225,-4.1015,-4.0714,-4.0287,-4.0061,-3.9747,-3.9697,-3.9697,-3.971,-3.9697,-3.9697,-3.9697,-3.9697,-3.9697,-3.9697,-3.9697,-3.9697,-3.9697,-3.976,-3.9948,-4.0149,-4.0325,-4.0588,-4.0811,-4.0689,-4.1372,-4.1286,-4.108,-4.0371,-3.9854,-3.98,-3.9461,-3.9247,-3.883,-3.8998,-3.8753,-3.8121,-3.839,-3.8558,-3.7985,-3.7693,-3.7562,-3.6977,-3.6849,-3.6849,-3.6756,-3.6756,-3.7276,-3.7507,-3.8405,-3.9094,-3.8401,-3.7863,-3.7939,-3.7758,-3.6916,-3.6499,-3.6546,-3.6593,-3.6452,-3.6417,-3.6417,-3.6417,-3.6417,-3.6417,-3.6417,-3.6417,-3.6417,-3.6417,-3.6417,-3.6417,-3.6417,-3.6417,-3.6417,-3.6417,-3.6417,-3.6417,-3.6417,-4.1238,-4.1288,-4.1417,-4.1455,-4.1413,-4.1489,-4.1539,-4.1526,-4.1467,-4.1505,-4.148,-4.099,-4.1078,-4.1304,-4.1442,-4.1492,-4.1605,-4.1819,-4.2045,-4.2263,-4.2376,-4.2678,-4.2836,-4.2986,-4.2986,-4.2986,-4.2898,-4.2886,-4.2773,-4.2748,-4.2559,-4.2363,-4.217,-4.2032,-4.1626,-4.1526,-4.1718,-4.1706,-4.158,-4.1413,-4.1003,-4.0488,-4.0187,-3.9973,-3.9772,-3.9747,-3.976,-3.9722,-3.9722,-3.9697,-3.9697,-3.9697,-3.9697,-3.9697,-3.9697,-3.9747,-3.9747,-3.981,-3.9873,-4.0162,-4.0162,-4.0359,-4.1529,-4.1819,-4.1476,-4.1045,-4.0516,-4.0236,-3.9892,-3.9676,-3.931,-3.9171,-3.8867,-3.8441,-3.9013,-3.9281,-3.8554,-3.7852,-3.7146,-3.6518,-3.6493,-3.654,-3.6502,-3.649,-3.664,-3.6781,-3.707,-3.754,-3.7847,-3.752,-3.7351,-3.7287,-3.6794,-3.6546,-3.6417,-3.6417,-3.6417,-3.6417,-3.6417,-3.6417,-3.6417,-3.6417,-3.6417,-3.6417,-3.6417,-3.6417,-3.6417,-3.6417,-3.6417,-3.6417,-3.6417,-3.6417,-3.6417,-3.6417,-3.6417,-4.1275,-4.1313,-4.1806,-4.2049,-4.2057,-4.2446,-4.266,-4.2585,-4.2225,-4.2233,-4.2371,-4.2108,-4.1999,-4.2062,-4.2062,-4.212,-4.2396,-4.2472,-4.261,-4.2823,-4.271,-4.2848,-4.2949,-4.2986,-4.2986,-4.2986,-4.2986,-4.2986,-4.2986,-4.2974,-4.3004,-4.2773,-4.2785,-4.2723,-4.2698,-4.2585,-4.2484,-4.2384,-4.2145,-4.1995,-4.1856,-4.1442,-4.1087,-4.0674,-4.0162,-4.0162,-4.0111,-3.9898,-3.976,-3.9697,-3.9812,-3.9849,-3.9927,-3.9888,-3.9772,-3.9697,-3.9697,-3.9697,-3.981,-3.9885,-3.9848,-4.0189,-4.0991,-4.0965,-4.067,-4.0568,-4.0275,-4.03,-4.0096,-4.0134,-3.9994,-4.0422,-4.0279,-3.9398,-3.9371,-3.8925,-3.832,-3.7701,-3.7102,-3.6845,-3.6795,-3.6732,-3.6666,-3.6758,-3.7045,-3.716,-3.7222,-3.7599,-3.7103,-3.6946,-3.687,-3.6773,-3.664,-3.6499,-3.6417,-3.6417,-3.6417,-3.6417,-3.6417,-3.6417,-3.6417,-3.6417,-3.6417,-3.6417,-3.6417,-3.6417,-3.6417,-3.6417,-3.6417,-3.6417,-3.6417,-3.6417,-3.6417,-3.6417,-3.6417]},{"header":{"parameterUnit":"m.s-1","parameterCategory":1,"la1":31.0,"la2":29.5877,"lo1":-88.7671,"lo2":-86.6584,"dx":0.0162,"dy":0.0185,"nx":115,"ny":88,"refTime":"2022-11-27T06:00:00:Z","depth":0,"parameterNumber":3,"parameterNumberName":"V-component_of_WINDS"},"data":[0.0,0.0,0.0,0.0,0.0,0.0,0.0,0.0,0.0,0.0,0.0,0.0,0.0,0.0,0.0,0.0,0.0,0.0,0.0,0.0,0.0,0.0,0.0,0.0,0.0,0.0,0.0,0.0,0.0,0.0,0.0,0.0,0.0,0.0,0.0,0.0,0.0,0.0,0.0,0.0,0.0,0.0,0.0,0.0,0.0,0.0,0.0,0.0,0.0,0.0,0.0,0.0,0.0,0.0,0.0,0.0,0.0,0.0,0.0,0.0,0.0,0.0,0.0,0.0,0.0,0.0,0.0,0.0,0.0,0.0,0.0,0.0,0.0,0.0,0.0,0.0,0.0,0.0,0.0,0.0,0.0,0.0,0.0,0.0,0.0,0.0,0.0,0.0,0.0,0.0,0.0,0.0,0.0,0.0,0.0,0.0,0.0,0.0,0.0,0.0,0.0,0.0,0.0,0.0,0.0,0.0,0.0,0.0,0.0,0.0,0.0,0.0,0.0,0.0,0.0,0.0,0.0,0.0,0.0,0.0,0.0,0.0,0.0,0.0,0.0,0.0,0.0,0.0,0.0,0.0,0.0,0.0,0.0,0.0,0.0,0.0,0.0,0.0,0.0,0.0,0.0,0.0,0.0,0.0,0.0,0.0,0.0,0.0,0.0,0.0,0.0,0.0,0.0,0.0,0.0,0.0,0.0,0.0,0.0,0.0,0.0,0.0,0.0,0.0,0.0,0.0,0.0,0.0,0.0,0.0,0.0,0.0,0.0,0.0,0.0,0.0,0.0,0.0,0.0,0.0,0.0,0.0,0.0,0.0,0.0,0.0,0.0,0.0,0.0,0.0,0.0,0.0,0.0,0.0,0.0,0.0,0.0,0.0,0.0,0.0,0.0,0.0,0.0,0.0,0.0,0.0,0.0,0.0,0.0,0.0,0.0,0.0,0.0,0.0,0.0,0.0,0.0,0.0,0.0,0.0,0.0,0.0,0.0,0.0,0.0,0.0,0.0,0.0,0.0,0.0,0.0,0.0,0.0,0.0,0.0,0.0,0.0,0.0,0.0,0.0,0.0,0.0,0.0,0.0,0.0,0.0,0.0,0.0,0.0,0.0,0.0,0.0,0.0,0.0,0.0,0.0,0.0,0.0,0.0,0.0,0.0,0.0,0.0,0.0,0.0,0.0,0.0,0.0,0.0,0.0,0.0,0.0,0.0,0.0,0.0,0.0,0.0,0.0,0.0,0.0,0.0,0.0,0.0,0.0,0.0,0.0,0.0,0.0,0.0,0.0,0.0,0.0,0.0,0.0,0.0,0.0,0.0,0.0,0.0,0.0,0.0,0.0,0.0,0.0,0.0,0.0,0.0,0.0,0.0,0.0,0.0,0.0,0.0,0.0,0.0,0.0,0.0,0.0,0.0,0.0,0.0,0.0,0.0,0.0,0.0,0.0,0.0,0.0,0.0,0.0,0.0,0.0,0.0,0.0,0.0,0.0,0.0,0.0,0.0,0.0,0.0,0.0,0.0,0.0,0.0,0.0,0.0,0.0,0.0,0.0,0.0,0.0,0.0,0.0,0.0,0.0,0.0,0.0,0.0,0.0,0.0,0.0,0.0,0.0,0.0,0.0,0.0,0.0,0.0,0.0,0.0,0.0,0.0,0.0,0.0,0.0,0.0,0.0,0.0,0.0,0.0,0.0,0.0,0.0,0.0,0.0,0.0,0.0,0.0,0.0,0.0,0.0,0.0,0.0,0.0,0.0,0.0,0.0,0.0,0.0,0.0,0.0,0.0,0.0,0.0,0.0,0.0,0.0,0.0,0.0,0.0,0.0,0.0,0.0,0.0,0.0,0.0,0.0,0.0,0.0,0.0,0.0,0.0,0.0,0.0,0.0,0.0,0.0,0.0,0.0,0.0,0.0,0.0,0.0,0.0,0.0,0.0,0.0,0.0,0.0,0.0,0.0,0.0,0.0,0.0,0.0,0.0,0.0,0.0,0.0,0.0,0.0,0.0,0.0,0.0,0.0,0.0,0.0,0.0,0.0,0.0,0.0,0.0,0.0,0.0,0.0,0.0,0.0,0.0,0.0,0.0,0.0,0.0,0.0,0.0,0.0,0.0,0.0,0.0,0.0,0.0,0.0,0.0,0.0,0.0,0.0,0.0,0.0,0.0,0.0,0.0,0.0,0.0,0.0,0.0,0.0,0.0,0.0,0.0,0.0,0.0,0.0,0.0,0.0,0.0,0.0,0.0,0.0,0.0,0.0,0.0,0.0,0.0,0.0,0.0,0.0,0.0,0.0,0.0,0.0,0.0,0.0,0.0,0.0,0.0,0.0,0.0,0.0,0.0,0.0,0.0,0.0,0.0,0.0,0.0,0.0,0.0,0.0,0.0,0.0,0.0,0.0,0.0,0.0,0.0,0.0,0.0,0.0,0.0,0.0,0.0,0.0,0.0,0.0,0.0,0.0,0.0,0.0,0.0,0.0,0.0,0.0,0.0,0.0,0.0,0.0,0.0,0.0,0.0,0.0,0.0,0.0,0.0,0.0,0.0,0.0,0.0,0.0,0.0,0.0,0.0,0.0,0.0,0.0,0.0,0.0,0.0,0.0,0.0,0.0,0.0,0.0,0.0,0.0,0.0,0.0,0.0,0.0,0.0,0.0,0.0,0.0,0.0,0.0,0.0,0.0,0.0,0.0,0.0,0.0,0.0,0.0,0.0,0.0,0.0,0.0,0.0,0.0,0.0,0.0,0.0,0.0,0.0,0.0,0.0,0.0,0.0,0.0,0.0,0.0,0.0,0.0,0.0,0.0,0.0,0.0,0.0,0.0,0.0,0.0,0.0,0.0,0.0,0.0,0.0,0.0,0.0,0.0,0.0,0.0,0.0,0.0,0.0,0.0,0.0,0.0,0.0,0.0,0.0,0.0,0.0,0.0,0.0,0.0,0.0,0.0,0.0,0.0,0.0,0.0,0.0,0.0,0.0,0.0,0.0,0.0,0.0,0.0,0.0,0.0,0.0,0.0,0.0,0.0,0.0,0.0,0.0,0.0,0.0,0.0,0.0,0.0,0.0,0.0,0.0,0.0,0.0,0.0,0.0,0.0,0.0,0.0,0.0,0.0,0.0,0.0,0.0,0.0,0.0,0.0,0.0,0.0,0.0,0.0,0.0,0.0,0.0,0.0,0.0,0.0,0.0,0.0,0.0,0.0,0.0,0.0,0.0,0.0,0.0,0.0,0.0,0.0,0.0,0.0,0.0,0.0,0.0,0.0,0.0,0.0,0.0,0.0,0.0,0.0,0.0,0.0,0.0,0.0,0.0,0.0,0.0,0.0,0.0,0.0,0.0,0.0,0.0,0.0,0.0,0.0,0.0,0.0,0.0,0.0,0.0,0.0,0.0,0.0,0.0,0.0,0.0,0.0,0.0,0.0,0.0,0.0,0.0,0.0,0.0,0.0,0.0,0.0,0.0,0.0,0.0,0.0,0.0,0.0,0.0,0.0,0.0,0.0,0.0,0.0,0.0,0.0,0.0,0.0,0.0,0.0,0.0,0.0,0.0,0.0,0.0,0.0,0.0,0.0,0.0,0.0,0.0,0.0,0.0,0.0,0.0,0.0,0.0,0.0,0.0,0.0,0.0,0.0,0.0,0.0,0.0,0.0,0.0,0.0,0.0,0.0,0.0,0.0,0.0,0.0,0.0,0.0,0.0,0.0,0.0,0.0,0.0,0.0,0.0,0.0,0.0,0.0,0.0,0.0,0.0,0.0,0.0,0.0,0.0,0.0,0.0,0.0,0.0,0.0,0.0,0.0,0.0,0.0,0.0,0.0,0.0,0.0,0.0,0.0,0.0,0.0,0.0,0.0,0.0,0.0,0.0,0.0,0.0,0.0,0.0,0.0,0.0,0.0,0.0,0.0,0.0,0.0,0.0,0.0,0.0,0.0,0.0,0.0,0.0,0.0,0.0,0.0,0.0,0.0,0.0,0.0,0.0,0.0,0.0,0.0,0.0,0.0,0.0,0.0,0.0,0.0,0.0,0.0,0.0,0.0,0.0,0.0,0.0,0.0,0.0,0.0,0.0,0.0,0.0,0.0,0.0,0.0,0.0,0.0,0.0,0.0,0.0,0.0,0.0,0.0,0.0,0.0,0.0,0.0,0.0,0.0,0.0,0.0,0.0,0.0,0.0,0.0,0.0,0.0,0.0,0.0,0.0,0.0,0.0,0.0,0.0,0.0,0.0,0.0,0.0,0.0,0.0,0.0,1.313,0.0,0.0,0.0,1.2164,0.0,0.0,0.0,0.0,0.0,0.0,0.0,0.0,0.0,0.0,0.0,0.0,0.0,0.0,0.0,0.0,0.0,0.0,0.0,0.0,0.0,0.0,0.0,0.0,0.0,0.0,0.0,0.0,0.0,0.0,0.0,0.0,0.0,0.0,0.0,0.0,0.0,0.0,0.0,0.0,0.0,0.0,0.0,0.0,0.0,0.0,0.0,0.0,0.0,0.0,0.0,0.0,0.0,0.0,0.0,0.0,0.0,0.0,0.0,0.0,0.0,0.0,0.0,0.0,0.0,0.0,0.0,0.0,0.0,0.0,0.0,0.0,0.0,0.0,0.0,0.0,0.0,0.0,0.0,0.0,0.0,0.0,0.0,0.0,0.0,0.0,0.0,0.0,0.0,0.0,0.0,0.0,0.0,0.0,0.0,0.0,0.0,0.0,0.0,0.0,0.0,0.0,0.0,0.0,0.0,0.0,0.0,0.0,0.0,0.0,1.3139,1.1905,1.3822,1.3912,1.1899,0.0,0.0,0.0,0.0,0.0,0.0,0.0,0.0,0.0,0.0,0.0,0.0,0.0,0.0,0.0,0.0,0.0,0.0,0.0,0.0,0.0,0.0,0.0,0.0,0.0,0.0,0.0,0.0,0.0,0.0,0.0,0.0,0.0,0.0,0.0,0.0,0.0,0.0,0.0,0.0,0.0,0.0,0.0,0.0,0.0,0.0,0.0,0.0,0.0,0.0,0.0,0.0,0.0,0.0,0.0,0.0,0.0,0.0,0.0,0.0,0.0,0.0,0.0,0.0,0.0,0.0,0.0,0.0,0.0,0.0,0.0,0.0,0.0,0.0,0.0,0.0,0.0,0.0,0.0,0.0,0.0,0.0,0.0,0.0,0.0,0.0,0.0,0.0,0.0,0.0,0.0,0.0,0.0,0.0,0.0,0.0,0.0,0.0,0.0,0.0,0.0,0.0,0.0,0.0,0.0,0.0,0.0,0.0,0.0,0.0,0.0,0.0,1.4496,1.4614,1.2598,0.0,0.0,0.0,0.0,0.0,0.0,0.0,0.0,0.0,0.0,0.0,0.0,0.0,0.0,0.0,0.0,0.0,0.0,0.0,0.0,0.0,0.0,0.0,0.0,0.0,0.0,0.0,0.0,0.0,0.0,0.0,0.0,0.0,0.0,0.0,0.0,0.0,0.0,0.0,0.0,0.0,0.0,0.0,0.0,0.0,0.0,0.0,0.0,0.0,0.0,0.0,0.0,0.0,0.0,0.0,0.0,0.0,0.0,0.0,0.0,0.0,0.0,0.0,0.0,0.0,0.0,0.0,0.0,0.0,0.0,0.0,0.0,0.0,0.0,0.0,0.0,0.0,0.0,0.0,0.0,0.0,0.0,0.0,0.0,0.0,0.0,0.0,0.0,0.0,0.0,0.0,0.0,0.0,0.0,0.0,0.0,0.0,0.0,0.0,0.0,0.0,0.0,0.0,0.0,0.0,0.0,0.0,0.0,0.0,0.0,1.2792,1.4481,1.4737,0.0,1.4541,0.0,0.0,0.0,0.0,0.0,0.0,0.0,0.0,0.0,0.0,0.0,0.0,0.0,0.0,0.0,0.0,0.0,0.0,0.0,0.0,0.0,0.0,0.0,0.0,0.0,0.0,0.0,0.0,0.0,0.0,0.0,0.0,0.0,0.0,0.0,0.0,0.0,0.0,0.0,0.0,0.0,0.0,0.0,0.0,0.0,0.0,0.0,0.0,0.0,0.0,0.0,0.0,0.0,0.0,0.0,0.0,0.0,0.0,0.0,0.0,0.0,0.0,0.0,0.0,0.0,0.0,0.0,0.0,0.0,0.0,0.0,0.0,0.0,0.0,0.0,0.0,0.0,0.0,0.0,0.0,0.0,0.0,0.0,0.0,0.0,0.0,0.0,0.0,0.0,0.0,0.0,0.0,0.0,0.0,0.0,0.0,0.0,0.0,0.0,0.0,0.0,0.0,0.0,0.0,0.0,0.0,0.0,0.0,0.0,0.0,1.3972,1.4796,1.4796,1.4796,0.0,0.0,0.0,0.0,0.0,0.0,0.0,0.0,0.0,0.0,0.0,0.0,0.0,0.0,0.0,0.0,0.0,0.0,0.0,0.0,0.0,0.0,0.0,0.0,0.0,0.0,0.0,0.0,0.0,0.0,0.0,0.0,0.0,0.0,0.0,0.0,0.0,0.0,0.0,0.0,0.0,0.0,0.0,0.0,0.0,0.0,0.0,0.0,0.0,0.0,0.0,0.0,0.0,0.0,0.0,0.0,0.0,0.0,0.0,0.0,0.0,0.0,0.0,0.0,0.0,0.0,0.0,0.0,0.0,0.0,0.0,0.0,0.0,0.0,0.0,0.0,0.0,0.0,0.0,0.0,0.0,0.0,0.0,0.0,0.0,0.0,0.0,0.0,0.0,0.0,0.0,0.0,0.0,0.0,0.0,0.0,0.0,0.0,0.0,0.0,0.0,0.0,0.0,0.0,0.0,0.0,0.0,0.0,0.0,0.0,1.4346,1.5052,1.5545,1.559,1.5276,1.4543,0.0,0.0,0.0,0.0,0.0,0.0,0.0,0.0,0.0,0.0,0.0,0.0,0.0,0.0,0.0,0.0,0.0,0.0,0.0,0.0,0.0,0.0,0.0,0.0,0.0,0.0,0.0,0.0,0.0,0.0,0.0,0.0,0.0,0.0,0.0,0.0,0.0,0.0,0.0,0.0,0.0,0.0,0.0,0.0,0.0,0.0,0.0,0.0,0.0,0.0,0.0,0.0,0.0,0.0,0.0,0.0,0.0,0.0,0.0,0.0,0.0,0.0,0.0,0.0,0.0,0.0,0.0,0.0,0.0,0.0,0.0,0.0,0.0,0.0,0.0,0.0,0.0,0.0,0.0,0.0,0.0,0.0,0.0,0.0,0.0,0.0,0.0,0.0,0.0,0.0,0.0,0.0,0.0,0.0,0.0,0.0,0.0,0.0,0.0,0.0,0.0,0.0,0.0,0.0,0.0,0.0,0.0,0.0,1.7101,1.5665,1.5695,1.752,1.7564,1.6398,0.0,0.0,0.0,0.0,0.0,0.0,0.0,0.0,0.0,0.0,0.0,0.0,0.0,0.0,0.0,0.0,0.0,0.0,0.0,0.0,0.0,0.0,0.0,0.0,0.0,0.0,0.0,0.0,0.0,0.0,0.0,0.0,0.0,0.0,0.0,0.0,0.0,0.0,0.0,0.0,0.0,0.0,0.0,0.0,0.0,0.0,0.0,0.0,0.0,0.0,0.0,0.0,0.0,0.0,0.0,0.0,0.0,0.0,0.0,0.0,0.0,0.0,0.0,0.0,0.0,0.0,0.0,0.0,0.0,0.0,0.0,0.0,0.0,0.0,0.0,0.0,0.0,0.0,0.0,0.0,0.0,0.0,0.0,0.0,0.0,0.0,0.0,0.0,0.0,0.0,0.0,0.0,0.0,0.0,0.0,0.0,0.0,0.0,0.0,0.0,0.0,0.0,0.0,0.0,0.0,0.0,0.0,0.0,0.0,1.412,1.4849,1.6887,2.0057,1.7193,1.5733,0.0,0.0,0.0,0.0,0.0,0.0,0.0,0.0,0.0,0.0,0.0,0.0,0.0,0.0,0.0,0.0,0.0,0.0,0.0,0.0,0.0,0.0,0.0,0.0,0.0,0.0,0.0,0.0,0.0,0.0,0.0,0.0,0.0,0.0,0.0,0.0,0.0,0.0,0.0,0.0,0.0,0.0,0.0,0.0,0.0,0.0,0.0,0.0,0.0,0.0,0.0,0.0,0.0,0.0,0.0,0.0,0.0,0.0,0.0,0.0,0.0,0.0,0.0,0.0,0.0,0.0,0.0,0.0,0.0,0.0,0.0,0.0,0.0,0.0,0.0,0.0,0.0,0.0,0.0,0.0,0.0,0.0,0.0,0.0,0.0,0.0,0.0,0.0,0.0,0.0,0.0,0.0,0.0,0.0,0.0,0.0,0.0,0.0,0.0,0.0,0.0,0.0,0.0,0.0,0.0,0.0,0.0,0.0,0.0,1.4588,1.6852,1.9077,2.0941,1.7436,1.5392,0.0,0.0,0.0,0.0,0.0,0.0,0.0,0.0,0.0,0.0,0.0,0.0,0.0,0.0,0.0,0.0,0.0,0.0,0.0,0.0,0.0,0.0,0.0,0.0,0.0,0.0,0.0,0.0,0.0,0.0,0.0,0.0,0.0,0.0,0.0,0.0,0.0,0.0,0.0,0.0,0.0,0.0,0.0,0.0,0.0,0.0,0.0,0.0,0.0,0.0,0.0,0.0,0.0,0.0,0.0,0.0,0.0,0.0,0.0,0.0,0.0,0.0,0.0,0.0,0.0,0.0,0.0,0.0,0.0,0.0,0.0,0.0,0.0,0.0,0.0,0.0,0.0,0.0,0.0,0.0,0.0,0.0,0.0,0.0,0.0,0.0,0.0,0.0,0.0,0.0,0.0,0.0,0.0,0.0,0.0,0.0,0.0,0.0,0.0,0.0,0.0,0.0,0.0,0.0,0.0,0.0,0.0,0.0,1.439,1.9264,2.1777,2.2021,2.0123,1.8479,1.5495,0.0,0.0,0.0,0.0,0.0,0.0,0.0,0.0,0.0,0.0,0.0,0.0,0.0,0.0,0.0,0.0,0.0,0.0,0.0,0.0,0.0,0.0,0.0,0.0,0.0,0.0,0.0,0.0,0.0,0.0,0.0,0.0,0.0,0.0,0.0,0.0,0.0,0.0,0.0,0.0,0.0,0.0,0.0,0.0,0.0,0.0,0.0,0.0,0.0,0.0,0.0,0.0,0.0,0.0,0.0,0.0,0.0,0.0,0.0,0.0,0.0,0.0,0.0,0.0,0.0,0.0,0.0,0.0,0.0,0.0,0.0,0.0,0.0,0.0,0.0,0.0,0.0,0.0,0.0,0.0,0.0,0.0,0.0,0.0,0.0,0.0,0.0,0.0,0.0,0.0,0.0,0.0,0.0,0.0,0.0,0.0,0.0,0.0,0.0,0.0,0.0,0.0,0.0,0.0,0.0,0.0,0.0,0.0,0.0,1.6383,1.9929,2.1761,2.1482,1.8009,1.6155,0.0,0.0,0.0,0.0,0.0,0.0,0.0,0.0,0.0,0.0,0.0,0.0,0.0,0.0,0.0,0.0,0.0,0.0,0.0,0.0,0.0,0.0,0.0,0.0,0.0,0.0,0.0,0.0,0.0,0.0,0.0,0.0,0.0,0.0,0.0,0.0,0.0,0.0,0.0,0.0,0.0,0.0,0.0,0.0,0.0,0.0,0.0,0.0,0.0,0.0,0.0,0.0,0.0,0.0,0.0,0.0,0.0,0.0,0.0,0.0,0.0,0.0,0.0,0.0,0.0,0.0,0.0,0.0,0.0,0.0,0.0,0.0,0.0,0.0,0.0,0.0,0.0,0.0,0.0,0.0,0.0,0.0,0.0,0.0,0.0,0.0,0.0,0.0,0.0,0.0,0.0,0.0,0.0,0.0,0.0,0.0,0.0,0.0,0.0,0.0,0.0,0.0,0.0,0.0,0.0,0.0,0.0,0.0,0.0,1.8565,2.236,2.4188,2.353,1.9324,1.7244,1.7557,0.0,0.0,0.0,0.0,0.0,0.0,0.0,0.0,0.0,0.0,0.0,0.0,0.0,0.0,0.0,0.0,0.0,0.0,0.0,0.0,0.0,0.0,0.0,0.0,0.0,0.0,0.0,0.0,0.0,0.0,0.0,0.0,0.0,0.0,0.0,0.0,0.0,0.0,0.0,0.0,0.0,0.0,0.0,0.0,0.0,0.0,0.0,0.0,0.0,0.0,0.0,0.0,0.0,0.0,0.0,0.0,0.0,0.0,0.0,0.0,0.0,0.0,0.0,0.0,0.0,0.0,0.0,0.0,0.0,0.0,0.0,0.0,0.0,0.0,0.0,0.0,0.0,0.0,0.0,0.0,0.0,0.0,0.0,0.0,0.0,0.0,0.0,0.0,0.0,0.0,0.0,0.0,0.0,0.0,0.0,0.0,0.0,0.0,0.0,0.0,0.0,0.0,0.0,0.0,0.0,0.0,0.0,0.0,2.4263,2.8122,2.8686,2.5761,2.206,1.8797,0.0,0.0,0.0,0.0,0.0,0.0,0.0,0.0,0.0,0.0,0.0,0.0,0.0,0.0,0.0,0.0,0.0,0.0,0.0,0.0,0.0,0.0,0.0,0.0,0.0,0.0,0.0,0.0,0.0,0.0,0.0,0.0,0.0,0.0,0.0,0.0,0.0,0.0,0.0,0.0,0.0,0.0,0.0,0.0,0.0,0.0,0.0,0.0,0.0,0.0,0.0,0.0,0.0,0.0,0.0,0.0,0.0,0.0,0.0,0.0,0.0,0.0,0.0,0.0,0.0,0.0,0.0,0.0,0.0,0.0,0.0,0.0,0.0,0.0,0.0,0.0,0.0,0.0,0.0,0.0,0.0,0.0,0.0,0.0,0.0,0.0,0.0,0.0,0.0,0.0,0.0,0.0,0.0,0.0,0.0,0.0,0.0,0.0,0.0,0.0,0.0,0.0,0.0,0.0,0.0,0.0,0.0,0.0,0.0,2.6427,2.9402,2.9736,2.7249,2.3632,2.1092,0.0,0.0,0.0,0.0,0.0,0.0,0.0,0.0,0.0,0.0,0.0,0.0,0.0,0.0,0.0,0.0,0.0,0.0,0.0,0.0,0.0,0.0,0.0,0.0,0.0,0.0,0.0,0.0,0.0,0.0,0.0,0.0,0.0,0.0,0.0,0.0,0.0,0.0,0.0,0.0,0.0,0.0,0.0,0.0,0.0,0.0,0.0,0.0,0.0,0.0,0.0,0.0,0.0,0.0,0.0,0.0,0.0,0.0,0.0,0.0,0.0,0.0,0.0,0.0,0.0,0.0,0.0,0.0,0.0,0.0,0.0,0.0,0.0,0.0,0.0,0.0,0.0,0.0,0.0,0.0,0.0,0.0,0.0,0.0,0.0,0.0,0.0,0.0,0.0,0.0,0.0,0.0,0.0,0.0,0.0,0.0,0.0,0.0,0.0,0.0,0.0,0.0,0.0,0.0,0.0,0.0,0.0,0.0,2.5191,2.8506,3.0303,3.0565,2.9244,2.5947,2.3207,0.0,0.0,0.0,0.0,0.0,0.0,0.0,0.0,0.0,0.0,0.0,0.0,0.0,0.0,0.0,0.0,0.0,0.0,0.0,0.0,0.0,0.0,0.0,0.0,0.0,0.0,0.0,0.0,0.0,0.0,0.0,0.0,0.0,0.0,0.0,0.0,0.0,0.0,0.0,0.0,0.0,0.0,0.0,0.0,0.0,0.0,0.0,0.0,0.0,0.0,0.0,0.0,0.0,0.0,0.0,0.0,0.0,0.0,0.0,0.0,0.0,0.0,0.0,0.0,0.0,0.0,0.0,0.0,0.0,0.0,0.0,0.0,0.0,0.0,0.0,0.0,0.0,0.0,0.0,0.0,0.0,0.0,0.0,0.0,0.0,0.0,0.0,0.0,0.0,0.0,0.0,0.0,0.0,0.0,0.0,0.0,0.0,0.0,0.0,0.0,0.0,0.0,0.0,0.0,0.0,0.0,0.0,0.0,2.7631,3.0327,3.0935,3.119,3.1106,2.8349,2.5134,0.0,0.0,0.0,0.0,0.0,0.0,0.0,0.0,0.0,0.0,0.0,0.0,0.0,0.0,0.0,0.0,0.0,0.0,0.0,0.0,0.0,0.0,0.0,0.0,0.0,0.0,0.0,0.0,0.0,0.0,0.0,0.0,0.0,0.0,0.0,0.0,0.0,0.0,0.0,0.0,0.0,0.0,0.0,0.0,0.0,0.0,0.0,0.0,0.0,0.0,0.0,0.0,0.0,0.0,0.0,0.0,0.0,0.0,0.0,0.0,0.0,0.0,0.0,0.0,0.0,0.0,0.0,0.0,0.0,0.0,0.0,0.0,0.0,0.0,0.0,0.0,0.0,0.0,0.0,0.0,0.0,0.0,0.0,0.0,0.0,0.0,0.0,0.0,0.0,0.0,0.0,0.0,0.0,0.0,0.0,0.0,0.0,0.0,0.0,0.0,0.0,0.0,0.0,0.0,0.0,0.0,0.0,0.0,2.7374,3.0894,3.1131,3.119,3.119,2.8856,2.6116,0.0,0.0,0.0,0.0,0.0,0.0,0.0,0.0,0.0,0.0,0.0,0.0,0.0,0.0,0.0,0.0,0.0,0.0,0.0,0.0,0.0,0.0,0.0,0.0,0.0,0.0,0.0,0.0,0.0,0.0,0.0,0.0,0.0,0.0,0.0,0.0,0.0,0.0,0.0,0.0,0.0,0.0,0.0,0.0,0.0,0.0,0.0,0.0,1.5605,0.0,0.0,0.0,0.0,0.0,0.0,0.0,0.0,0.0,0.0,0.0,0.0,0.0,0.0,0.0,0.0,0.0,0.0,0.0,0.0,0.0,0.0,0.0,0.0,0.0,0.0,0.0,0.0,0.0,0.0,0.0,0.0,0.0,0.0,0.0,0.0,0.0,0.0,0.0,0.0,0.0,0.0,0.0,0.0,0.0,0.0,0.0,0.0,0.0,0.0,0.0,0.0,0.0,0.0,0.0,0.0,0.0,0.0,0.0,2.8075,3.0677,3.1072,3.119,3.1157,3.0023,2.7486,0.0,0.0,0.0,0.0,0.0,0.0,0.0,0.0,0.0,0.0,0.0,0.0,0.0,0.0,0.0,0.0,0.0,0.0,0.0,0.0,0.0,0.0,0.0,0.0,0.0,0.0,0.0,0.0,0.0,0.0,0.0,0.0,0.0,0.0,0.0,0.0,0.0,0.0,0.0,0.0,0.0,0.0,0.0,0.0,0.0,0.0,0.0,0.0,0.0,0.0,0.0,0.0,0.0,0.0,0.0,0.0,0.0,0.0,0.0,0.0,0.0,0.0,0.0,0.0,0.0,0.0,0.0,0.0,0.0,0.0,0.0,0.0,0.0,0.0,0.0,0.0,0.0,0.0,0.0,0.0,0.0,0.0,0.0,0.0,0.0,0.0,0.0,0.0,0.0,0.0,0.0,0.0,0.0,0.0,0.0,0.0,0.0,0.0,0.0,0.0,0.0,0.0,0.0,0.0,0.0,0.0,0.0,2.5914,2.8811,3.0373,3.0938,3.119,3.119,3.119,2.8738,2.363,0.0,0.0,0.0,0.0,0.0,0.0,0.0,0.0,0.0,0.0,0.0,0.0,0.0,0.0,0.0,0.0,0.0,0.0,0.0,0.0,0.0,0.0,0.0,0.0,0.0,0.0,0.0,0.0,0.0,0.0,0.0,0.0,0.0,0.0,0.0,0.0,0.0,0.0,1.228,1.53,0.0,0.0,0.0,0.0,0.0,0.0,0.0,0.0,1.6987,0.0,0.0,0.0,0.0,0.0,0.0,0.0,0.0,0.0,0.0,0.0,0.0,0.0,0.0,0.0,0.0,0.0,0.0,0.0,0.0,0.0,0.0,0.0,0.0,0.0,0.0,0.0,0.0,0.0,0.0,0.0,0.0,0.0,0.0,0.0,0.0,0.0,0.0,0.0,0.0,0.0,0.0,0.0,0.0,0.0,0.0,0.0,0.0,0.0,0.0,0.0,0.0,0.0,0.0,0.0,0.0,2.5413,2.6302,2.8122,3.0968,3.1151,3.119,3.119,3.119,2.8738,2.3731,0.0,0.0,0.0,0.0,0.0,0.0,0.0,0.0,0.0,0.0,0.0,0.0,0.0,0.0,0.0,0.0,0.0,0.0,0.0,0.0,0.0,0.0,0.0,0.0,0.0,0.0,0.0,0.0,0.0,0.0,0.0,0.0,0.0,0.0,0.0,0.0,0.0,0.0,0.0,1.9655,2.0463,0.0,0.0,0.0,0.0,0.0,0.0,0.0,0.0,1.7757,0.0,0.0,0.0,0.0,0.0,0.0,0.0,0.0,0.0,0.0,0.0,0.0,0.0,0.0,0.0,0.0,0.0,0.0,0.0,0.0,0.0,0.0,0.0,0.0,0.0,0.0,0.0,0.0,0.0,0.0,0.0,0.0,0.0,0.0,0.0,0.0,0.0,0.0,0.0,0.0,0.0,0.0,0.0,0.0,0.0,0.0,0.0,0.0,0.0,0.0,0.0,0.0,0.0,0.0,0.0,2.4551,2.7797,3.0206,3.1715,3.2138,3.2154,3.1765,3.1785,2.8941,0.0,0.0,0.0,0.0,0.0,0.0,0.0,0.0,0.0,0.0,0.0,0.0,0.0,0.0,0.0,0.0,0.0,0.0,0.0,0.0,0.0,0.0,0.0,0.0,0.0,0.0,0.0,0.0,0.0,0.0,0.0,0.0,0.0,0.0,0.0,0.0,0.0,0.0,0.0,0.0,2.0335,2.1008,2.2175,0.0,0.0,0.0,0.0,0.0,0.0,1.8544,1.7873,0.0,0.0,0.0,0.0,0.0,0.0,0.0,0.0,0.0,0.0,0.0,0.0,0.0,0.0,0.0,0.0,0.0,0.0,0.0,0.0,0.0,0.0,0.0,0.0,0.0,0.0,0.0,0.0,0.0,0.0,0.0,0.0,0.0,0.0,0.0,0.0,0.0,0.0,0.0,0.0,0.0,0.0,0.0,0.0,0.0,0.0,0.0,0.0,0.0,0.0,0.0,0.0,0.0,0.0,0.0,2.3373,2.8835,3.2013,3.251,3.3102,3.3119,3.2547,3.2513,2.9364,0.0,0.0,0.0,0.0,0.0,0.0,0.0,0.0,0.0,0.0,0.0,0.0,0.0,0.0,0.0,0.0,0.0,0.0,0.0,0.0,0.0,0.0,0.0,0.0,0.0,0.0,0.0,0.0,0.0,0.0,0.0,0.0,0.0,0.0,0.0,0.0,0.0,0.0,0.0,0.0,0.0,2.1688,2.3173,2.2953,0.0,0.0,0.0,0.0,2.051,1.971,0.0,0.0,0.0,0.0,0.0,0.0,0.0,0.0,0.0,0.0,0.0,0.0,0.0,0.0,0.0,0.0,0.0,0.0,0.0,0.0,0.0,0.0,0.0,0.0,0.0,0.0,0.0,0.0,0.0,0.0,0.0,0.0,0.0,0.0,0.0,0.0,0.0,0.0,0.0,0.0,0.0,0.0,0.0,0.0,0.0,0.0,0.0,0.0,0.0,0.0,0.0,0.0,0.0,0.0,0.0,0.0,2.4385,2.803,3.0996,3.3148,3.3372,3.3334,3.3271,3.3271,3.0125,0.0,0.0,0.0,0.0,0.0,0.0,0.0,0.0,0.0,0.0,0.0,0.0,0.0,0.0,0.0,0.0,0.0,0.0,0.0,0.0,0.0,0.0,0.0,0.0,0.0,0.0,0.0,0.0,0.0,0.0,0.0,0.0,0.0,0.0,0.0,0.0,0.0,0.0,0.0,0.0,0.0,2.4561,2.3545,2.3543,2.3229,0.0,0.0,2.0152,2.2846,2.3354,0.0,0.0,0.0,0.0,0.0,0.0,0.0,0.0,0.0,0.0,0.0,0.0,0.0,0.0,0.0,0.0,0.0,0.0,0.0,0.0,0.0,0.0,0.0,0.0,0.0,0.0,0.0,0.0,0.0,0.0,0.0,0.0,0.0,0.0,0.0,0.0,0.0,0.0,0.0,0.0,0.0,0.0,0.0,0.0,0.0,0.0,0.0,0.0,0.0,0.0,0.0,0.0,0.0,0.0,0.0,2.1777,2.466,2.9749,3.2909,3.3981,3.4416,3.4472,3.4032,3.4015,3.0683,0.0,0.0,0.0,0.0,0.0,0.0,0.0,0.0,0.0,0.0,0.0,0.0,0.0,0.0,0.0,0.0,0.0,0.0,0.0,0.0,0.0,0.0,0.0,0.0,0.0,0.0,0.0,0.0,0.0,0.0,0.0,0.0,0.0,0.0,0.0,0.0,0.0,0.0,0.0,0.0,0.0,0.0,2.6302,2.6691,0.0,0.0,0.0,2.3488,2.3524,0.0,0.0,0.0,0.0,0.0,0.0,0.0,0.0,0.0,0.0,0.0,0.0,0.0,0.0,0.0,0.0,0.0,0.0,0.0,0.0,0.0,0.0,0.0,0.0,0.0,0.0,0.0,0.0,0.0,0.0,0.0,0.0,0.0,0.0,0.0,0.0,0.0,0.0,0.0,0.0,0.0,0.0,0.0,0.0,0.0,0.0,0.0,0.0,0.0,0.0,0.0,0.0,0.0,0.0,0.0,0.0,0.0,2.5198,3.1312,3.4605,3.4776,3.5295,3.5329,3.481,3.4776,0.0,0.0,0.0,0.0,0.0,0.0,0.0,0.0,0.0,0.0,0.0,0.0,0.0,0.0,0.0,0.0,0.0,0.0,0.0,0.0,0.0,0.0,0.0,0.0,0.0,0.0,0.0,0.4265,0.0,0.0,0.0,0.0,0.0,0.0,0.0,0.0,0.0,0.0,0.0,0.0,0.0,0.0,2.4205,2.791,2.9061,2.8738,0.0,0.0,2.6116,2.4508,2.4445,2.4099,0.0,0.0,0.0,0.0,0.0,0.0,0.0,0.0,0.0,0.0,0.0,0.0,0.0,0.0,0.0,0.0,0.0,0.0,0.0,0.0,0.0,0.0,0.0,0.0,0.0,0.0,0.0,0.0,0.0,0.0,0.0,0.0,0.0,0.0,0.0,0.0,0.0,0.0,0.0,0.0,0.0,0.0,0.0,0.0,0.0,0.0,0.0,0.0,0.0,0.0,0.0,0.0,0.0,0.0,2.3293,2.661,3.1863,3.4882,3.5493,3.5566,3.5583,3.5515,3.5515,3.2053,0.0,0.0,0.0,0.0,0.0,0.0,0.0,0.0,0.0,0.0,0.0,0.0,0.0,0.0,0.0,0.0,0.0,0.0,0.0,0.0,0.0,0.0,0.0,0.0,0.0,0.0,0.0,0.0,0.0,0.0,0.0,0.0,0.0,0.0,0.0,0.0,0.0,0.0,0.0,0.0,0.0,2.4965,2.664,2.9245,3.0226,0.0,2.7114,2.664,2.6505,2.6779,2.5562,2.1221,0.0,0.0,0.0,0.0,0.0,0.0,0.0,0.0,0.0,0.0,0.0,0.0,0.0,0.0,0.0,0.0,0.0,0.0,0.0,0.0,0.0,0.0,0.0,0.0,0.0,0.0,0.0,0.0,0.8402,0.0,0.0,0.0,0.0,0.0,0.0,0.0,0.0,0.0,0.0,0.0,0.0,0.0,0.0,0.0,0.0,0.0,0.0,0.0,0.0,0.0,0.0,0.0,0.0,2.2849,2.6421,3.1399,3.4309,3.4941,3.4965,3.5168,3.56,3.5616,3.3182,0.0,0.0,0.0,0.0,0.0,0.0,0.0,0.0,0.0,0.0,0.0,0.0,0.0,0.0,0.0,0.0,0.0,0.0,0.0,0.0,0.0,0.0,0.0,0.0,0.0,0.0,0.0,0.0,1.9608,2.0234,1.6306,0.0,0.0,0.0,0.0,0.0,0.0,0.0,0.0,0.0,0.0,2.7097,2.8586,2.9397,0.0,0.0,2.7486,2.6708,2.6708,2.645,2.5565,2.3577,2.2775,0.0,0.0,0.0,0.0,0.0,0.0,0.0,0.0,0.0,0.0,0.0,0.0,0.0,0.0,0.0,0.0,0.0,0.0,0.0,0.0,0.0,0.0,0.0,0.0,0.0,0.0,0.8177,0.7989,0.0,0.0,0.0,0.0,0.0,0.0,0.0,0.0,0.0,0.0,0.0,0.0,0.0,0.0,0.0,0.0,0.0,0.0,0.0,0.0,0.0,0.0,0.0,0.0,2.3008,2.7009,3.1781,3.4659,3.5583,3.5583,3.5806,3.6253,3.6096,3.4218,3.0531,0.0,0.0,0.0,0.0,0.0,0.0,0.0,0.0,0.0,0.0,0.0,0.0,0.0,0.0,0.0,0.0,0.0,0.0,0.0,0.0,0.0,0.0,0.0,0.0,0.0,0.0,0.0,2.1261,2.0314,1.5634,0.0,0.0,0.0,0.0,0.0,0.0,0.0,0.0,0.0,0.0,2.8365,2.9871,2.9856,2.9585,2.9347,2.7842,2.6708,2.6708,2.6454,2.5942,2.5067,0.0,0.0,0.0,0.0,0.0,0.0,0.0,0.0,0.0,0.0,0.0,0.0,0.0,0.0,0.0,0.0,0.0,0.0,0.0,0.0,0.0,0.0,0.0,0.0,0.0,0.0,0.0,0.8875,0.0,0.0,0.7921,0.0,0.0,0.0,0.0,0.0,0.0,0.0,0.0,0.0,0.0,0.0,0.0,0.0,0.0,0.0,0.0,0.0,0.0,0.0,0.0,0.0,0.0,2.3986,2.8679,3.3188,3.6273,3.7667,3.7807,3.7732,3.7739,3.7144,3.4996,3.1224,0.0,0.0,0.0,0.0,0.0,0.0,0.0,0.0,0.0,0.0,0.0,0.0,0.0,0.0,0.0,0.0,0.0,0.0,0.0,0.0,0.0,0.0,0.0,0.0,0.0,0.0,1.1655,1.3625,1.5048,0.0,0.0,0.0,0.0,0.0,0.0,0.0,0.0,0.0,2.3889,2.6387,2.8382,2.9869,3.07,3.0903,3.0173,2.823,2.6776,2.681,2.7317,2.7012,0.0,0.0,0.0,0.0,0.0,0.0,0.0,0.0,0.0,0.0,0.0,0.0,0.0,0.0,0.0,0.0,0.0,0.0,0.0,0.0,0.0,0.0,0.0,0.0,0.0,0.0,0.0,1.3235,1.2774,0.0,0.0,0.0,0.0,0.0,0.0,0.0,0.0,0.0,0.0,0.0,2.2448,2.4148,0.0,0.0,0.0,0.0,0.0,0.0,0.0,0.0,0.0,0.0,0.0,0.0,2.3686,2.7731,3.2016,3.4707,3.5607,3.5635,3.6108,3.7078,3.6871,3.4764,3.0613,0.0,0.0,0.0,0.0,0.0,0.0,0.0,0.0,0.0,0.0,0.0,0.0,0.0,0.0,0.0,0.0,0.0,0.0,0.0,0.0,0.0,0.0,0.0,0.0,0.0,1.4258,0.0,0.0,0.0,0.0,0.0,0.0,0.0,0.0,0.0,0.0,2.0611,2.3983,2.5802,2.8785,3.0615,3.0156,3.1579,3.2239,0.0,0.0,0.0,0.0,0.0,0.0,0.0,0.0,0.0,0.0,0.0,0.0,0.0,2.73,2.7351,2.1164,1.9406,1.9075,1.9656,0.0,0.0,0.0,0.0,0.0,0.0,0.0,0.0,0.0,0.0,0.0,0.0,0.0,0.0,1.7267,1.6832,1.6398,0.0,0.0,0.0,0.0,0.0,0.0,0.0,0.0,2.4941,2.6826,2.6537,2.8188,2.8124,2.6477,2.5555,2.343,0.0,0.0,0.0,0.0,0.0,0.0,0.0,0.0,2.4866,2.903,3.2496,3.4716,3.5571,3.519,3.5625,3.7026,3.6824,3.5358,3.2503,3.1132,2.8967,0.0,0.0,0.0,0.0,0.0,0.0,0.0,0.0,0.0,0.0,0.0,0.0,0.0,0.0,0.0,0.0,0.0,0.0,0.0,0.0,0.0,0.0,0.0,1.5268,0.0,0.0,0.0,0.0,0.0,0.0,0.0,0.0,0.0,1.9725,2.3419,2.6453,2.7506,2.9761,3.1008,3.0269,0.0,0.0,0.0,0.0,0.0,0.0,0.0,2.8993,2.9991,2.8959,2.7893,2.7588,2.9194,3.0296,2.9517,0.0,0.0,2.5728,2.402,2.3682,2.4188,2.4678,2.5216,2.58,2.6924,2.7981,0.0,0.0,0.0,0.0,1.8867,0.0,0.0,0.0,2.1301,2.1032,0.0,2.0927,0.0,0.0,0.0,0.0,1.8175,2.2482,0.0,0.0,3.1689,3.3425,3.338,3.3365,3.344,3.341,3.2019,3.0449,2.8427,2.2957,1.8659,0.0,0.0,0.0,0.0,0.0,2.7422,3.2431,3.4557,3.6286,3.7501,3.6386,3.6382,3.7652,3.7105,3.6674,3.654,3.3203,3.0917,3.001,2.2907,0.0,0.0,0.0,0.0,0.0,0.0,0.0,0.0,0.0,0.0,0.0,0.0,0.0,0.0,0.0,0.0,0.0,0.0,0.0,0.0,1.495,0.0,0.0,0.0,0.0,0.0,0.0,0.0,0.0,0.0,2.4126,2.2928,2.5072,2.7302,2.9069,0.0,0.0,0.0,0.0,3.1478,3.2178,3.418,3.4366,3.0948,3.1427,3.2276,3.2429,0.0,0.0,3.1681,3.251,3.278,3.0717,3.2154,3.3474,3.3322,3.1306,3.004,3.004,2.9973,3.0159,3.0345,3.1582,3.3072,2.5824,0.0,0.0,0.0,0.0,2.311,2.4844,2.7934,2.7305,2.6767,2.6303,2.5848,0.0,0.0,0.0,0.0,0.0,0.0,2.6946,2.8697,3.0987,3.2587,3.3499,3.3499,3.3499,3.3484,3.311,3.2647,3.2033,3.0387,2.5345,1.737,0.0,0.0,0.0,0.0,2.9414,3.1777,3.3846,3.5034,3.5447,3.5064,3.5537,3.6918,3.7279,3.7222,3.6711,3.5642,3.351,3.0174,2.7404,0.0,0.0,0.0,0.0,0.0,0.0,0.0,0.0,0.0,0.0,0.0,0.0,0.0,0.0,0.0,0.0,0.0,0.0,0.0,1.3168,1.635,1.7873,0.0,0.0,0.0,0.0,0.0,0.0,0.0,0.0,0.0,2.6181,2.8073,2.9601,0.0,0.0,3.0041,2.9694,3.0539,3.1495,3.2327,3.4226,0.0,3.492,3.3409,3.3021,3.517,3.5402,3.5042,3.4433,3.4687,3.4771,3.4078,3.4535,3.4974,3.4873,3.3605,3.2527,3.2459,3.2459,3.2624,3.3169,3.3795,3.4353,3.1944,2.8846,2.6273,2.6093,2.7485,2.7101,2.873,3.1674,3.13,3.0911,3.0552,3.0415,2.8378,2.5009,2.4485,0.0,0.0,0.0,2.9804,3.139,3.2527,3.3499,3.4262,3.4307,3.4427,3.4651,3.4128,3.4158,3.4666,3.4174,3.0298,2.3468,0.0,2.53,2.4118,2.7949,3.0986,3.302,3.4008,3.4607,3.4876,3.4891,3.5055,3.537,3.6352,3.6837,3.6677,3.6661,3.541,3.2764,3.0695,2.8356,0.0,0.0,0.0,0.0,0.0,0.0,0.0,0.0,0.0,0.0,0.0,1.4478,1.6716,0.0,0.0,0.0,1.5816,1.6849,1.7791,2.0139,0.0,0.0,0.0,0.0,0.0,0.0,0.0,2.5405,2.7648,2.9086,2.9502,3.0118,3.0444,3.0188,3.0351,3.0438,3.0226,0.0,3.049,3.2506,3.4374,3.5522,3.5444,3.4431,3.4319,3.6415,3.6643,3.6411,3.6191,3.5906,3.5519,3.5198,3.5161,3.5207,3.5191,3.4667,3.4286,3.4286,3.4264,3.4438,3.4861,3.4928,3.5081,3.7404,3.6881,3.0881,2.9442,3.1031,3.1046,3.2108,3.3784,3.3814,3.3814,3.3858,3.4442,3.2691,2.925,2.7993,0.0,3.1106,3.2332,3.3842,3.5654,3.5669,3.5669,3.5654,3.5669,3.5968,3.6555,3.5295,3.5355,3.6432,3.5327,3.3784,3.1974,3.0806,3.0385,3.0657,3.0926,3.2572,3.5579,3.4981,3.4983,3.5564,3.5579,3.5026,3.3873,3.4951,3.5921,3.6538,3.6538,3.6532,3.6483,3.3076,3.0592,2.9328,0.0,0.0,0.0,0.0,0.0,0.0,0.0,0.0,0.0,0.0,0.0,0.0,0.0,0.0,1.9049,2.2838,0.0,2.5435,2.5083,0.0,0.0,0.0,1.9954,1.9576,2.3831,2.7081,2.792,0.0,0.0,3.2362,3.1315,3.0357,2.9744,3.0118,3.0639,3.1236,2.9453,2.924,3.2798,3.4543,3.5078,3.4367,3.4925,3.5717,3.6289,3.7186,3.7355,3.6918,3.6247,3.5374,3.4668,3.4554,3.4766,3.4773,3.5315,3.5701,3.5763,3.5633,3.5566,3.5549,3.5549,3.5532,3.7404,3.7285,3.5714,3.534,3.5774,3.5774,3.6043,3.6477,3.6477,3.6477,3.6492,3.6641,3.6193,3.5295,3.4981,3.5175,3.5789,3.6103,3.6507,3.6941,3.6956,3.6956,3.6922,3.6956,3.703,3.7165,3.6866,3.6881,3.718,3.6866,3.6477,3.6013,3.5699,3.4382,3.2213,3.4517,3.6148,3.6956,3.6327,3.6088,3.6252,3.6252,3.6342,3.6477,3.6327,3.6322,3.6504,3.6021,3.577,3.5763,3.4877,3.4247,3.3857,2.6523,0.0,0.0,0.0,0.0,0.0,0.0,0.0,0.0,0.0,2.3002,1.8884,0.0,1.9356,0.0,2.725,2.8297,2.4492,2.5749,0.0,0.0,2.5151,2.5022,2.8889,2.8648,2.9015,3.13,3.1671,3.154,3.1061,3.1122,3.1002,3.0387,3.0026,3.0023,3.0594,3.0724,3.1236,3.3153,3.4632,3.5572,3.5762,3.615,3.6087,3.5118,3.5652,3.6082,3.5985,3.5798,3.5524,3.5326,3.5321,3.557,3.6013,3.6356,3.6629,3.7104,3.6428,3.5616,3.5616,3.5616,3.5616,3.8302,3.8302,3.8267,3.8302,3.8222,3.7659,3.7404,3.7404,3.7404,3.7404,3.7404,3.7404,3.7404,3.7404,3.7404,3.7404,3.7404,3.7404,3.7404,3.7404,3.7404,3.7404,3.7404,3.7404,3.7554,3.7853,3.7838,3.7853,3.7853,3.7853,3.7838,3.7853,3.7853,3.709,3.5699,3.6806,3.7135,3.6582,3.6791,3.6761,3.654,3.6761,3.6507,3.5729,3.6477,3.6477,3.5639,3.5818,3.5534,3.4651,3.4334,3.415,3.4074,2.9394,2.708,0.0,0.0,0.0,0.0,0.0,0.0,0.0,0.0,0.0,0.0,0.0,2.3071,2.4081,2.9149,3.0717,2.6671,2.8663,3.0357,3.0731,2.9164,2.9442,3.2765,3.1462,3.0818,3.2056,3.2061,3.1809,3.1465,3.1451,3.1376,3.0987,3.0672,3.0791,3.1734,3.2662,3.3543,3.4307,3.5026,3.5619,3.6054,3.6162,3.6038,3.56,3.6073,3.6513,3.6242,3.5859,3.5483,3.5087,3.5057,3.5224,3.5635,3.6002,3.6378,3.6598,3.6199,3.5792,3.6043,3.5876,3.5616,3.9388,3.9388,3.9388,3.9469,3.9454,3.8197,3.7614,3.7524,3.7524,3.7494,3.7404,3.7404,3.7404,3.7404,3.7404,3.7404,3.7404,3.7404,3.7404,3.7404,3.7404,3.7404,3.7404,3.7404,3.7704,3.8257,3.8347,3.8377,3.8377,3.8482,3.8527,3.8527,3.8527,3.8736,3.9095,3.8133,3.712,3.6043,3.6941,3.715,3.6626,3.7135,3.6327,3.4233,3.6297,3.6731,3.5132,3.6061,3.5804,3.4113,3.3455,3.3095,3.3006,3.1974,3.0298,0.0,2.6799,0.0,0.0,0.0,0.0,0.0,0.0,0.0,0.0,3.0253,2.7255,2.4582,2.9924,3.2557,3.0325,3.2213,3.3619,3.3604,3.311,3.2946,3.3412,3.2901,3.2228,3.157,3.2019,3.2392,3.2407,3.2034,3.175,3.1795,3.1899,3.2378,3.3529,3.4517,3.513,3.5444,3.5489,3.5537,3.5574,3.5582,3.5798,3.6353,3.681,3.7324,3.6766,3.6089,3.5309,3.4634,3.4623,3.4734,3.4745,3.537,3.5808,3.6066,3.5977,3.5958,3.6347,3.6179,3.575,3.9388,3.9388,3.9388,3.9723,4.0142,3.9364,3.8721,3.8212,3.8197,3.7898,3.7404,3.7404,3.7404,3.7404,3.7404,3.7404,3.7404,3.7404,3.7404,3.7404,3.7404,3.7404,3.7404,3.7404,3.7464,3.7629,3.8138,3.8377,3.8392,3.8945,3.923,3.923,3.9215,3.8751,3.7883,0.0,0.0,0.0,3.7838,3.7345,3.724,3.7345,3.718,3.6716,3.7659,0.0,3.7659,3.7389,3.706,3.6701,3.6552,0.0,3.5729,0.0,0.0,0.0,0.0,0.0,0.0,0.0,0.0,0.0,2.9669,2.9639,2.8992,3.1014,3.1285,2.8858,3.1524,3.3305,3.2826,3.3679,3.4324,3.4309,3.4204,3.3977,3.3554,3.2915,3.2228,3.16,3.163,3.1914,3.2437,3.2841,3.3095,3.3066,3.3574,3.4218,3.4936,3.4726,3.4741,3.534,3.5594,3.5534,3.5489,3.5561,3.5646,3.5718,3.5797,3.5926,3.5863,3.5691,3.5522,3.5205,3.5304,3.5502,3.603,3.6349,3.6495,3.7233,3.6873,3.6334,3.5948,3.6189,3.648,4.0397,4.0397,4.0397,4.0576,0.0,4.0187,3.9529,3.8886,3.8886,3.8706,3.8392,3.8407,3.8407,3.8392,3.8407,3.8407,3.8407,3.8407,3.8392,3.8407,3.8407,3.8407,3.8372,3.8407,3.8407,3.8422,3.9065,3.923,3.8945,3.9538,3.9903,3.9888,3.9589,3.9245,3.8901,3.923,3.9388,3.9388,3.8751,3.8372,3.8407,3.8372,3.7943,3.7045,3.8227,0.0,0.0,0.0,0.0,0.0,0.0,0.0,0.0,3.2916,3.2123,3.2452,3.0896,3.0088,3.0387,3.0417,3.142,3.3694,3.3619,3.3081,3.2062,3.4098,3.4876,3.3619,3.4681,3.5429,3.5429,3.5459,3.5474,3.5477,3.4908,3.4231,3.36,3.3199,3.2871,3.2587,3.2467,3.2647,3.2946,3.326,3.3484,3.3529,3.4053,3.4637,3.4921,3.4936,3.522,3.6237,3.6447,3.6447,3.6417,3.6148,3.5983,3.5968,3.5729,3.5519,3.5489,3.5489,3.5489,3.5489,3.5489,3.5636,3.5943,3.6054,3.618,3.6523,3.6383,3.6027,3.564,3.5871,3.6167,4.1422,4.1422,4.1422,4.1482,4.1527,4.0726,4.0023,3.9358,3.917,0.0,0.0,3.9029,3.9065,3.908,3.9065,3.9029,3.9029,3.905,3.9029,3.9065,3.9029,3.9029,3.9014,3.9029,3.9029,3.9095,3.9738,3.9753,3.929,4.0023,4.0412,4.0367,3.9963,4.0038,4.0502,4.0038,3.9768,3.9738,3.9305,3.9125,3.923,3.902,3.8182,3.6686,3.8212,3.8302,3.6731,3.7135,3.6716,3.5282,3.4023,3.338,3.3395,3.3888,3.4816,3.6193,3.6896,3.7195,3.709,3.7075,3.7075,3.7075,3.6716,3.6492,3.6492,3.6851,3.7075,3.7075,3.7075,3.7045,3.706,3.6611,3.6312,3.6297,3.5237,3.4339,3.3903,3.3604,3.3544,3.3769,3.3619,3.3544,3.3649,3.3814,3.3844,3.3963,3.4651,3.5102,3.5207,3.5549,3.6043,3.7045,3.7225,3.7345,3.7315,3.6985,3.6671,3.6626,3.6222,3.5833,3.5714,3.5684,3.5639,3.5519,3.5504,3.5489,3.5489,3.5554,3.5489,3.5489,3.5489,3.5489,3.5497,3.5538,3.5673,4.1437,4.1422,4.1422,4.1752,4.2171,4.092,4.0023,3.9334,3.8212,3.7704,3.7689,3.7689,3.7654,3.7689,3.7689,3.7689,3.7704,3.7704,3.7689,3.7704,3.7689,3.7689,3.7704,3.7689,3.7689,3.7749,3.8377,3.8616,3.8676,3.9813,4.0412,4.0457,4.0876,4.113,4.1272,4.1145,4.11,4.107,3.8856,3.7973,3.8497,3.7464,3.703,3.7285,3.7584,3.7599,3.73,3.7389,3.7554,3.7793,3.712,3.6716,3.6716,3.6761,3.6507,3.5759,3.6252,3.6372,3.5833,3.5774,3.5774,3.5804,3.6207,3.6492,3.6462,3.6043,3.5774,3.5789,3.5893,3.5774,3.5759,3.5759,3.5714,3.5654,3.4998,3.4683,3.5055,3.4218,3.3978,3.4966,3.4188,3.3769,3.4309,3.4801,3.51,3.534,3.5818,3.703,3.73,3.6971,3.6701,3.721,3.7404,3.7404,3.7524,3.7375,3.7285,3.7285,3.7165,3.6851,3.6417,3.6342,3.6178,3.5639,3.5594,3.5549,3.5534,3.5489,3.5489,3.5489,3.5489,3.5489,3.5489,3.5508,3.5704,4.2447,4.2432,4.2447,4.2611,4.2806,4.1901,4.1085,4.0457,3.9828,3.914,3.8512,3.8497,3.8497,3.8497,3.8497,3.8497,3.8497,3.8461,3.8497,3.8497,3.8497,3.8497,3.8497,3.8461,3.8497,3.8542,3.917,3.929,3.9095,4.0277,4.0741,4.0442,4.0696,4.0846,4.0831,4.0487,4.0487,4.0816,3.9993,3.9709,3.9993,3.9439,3.9275,3.9559,3.9559,3.9559,3.9559,3.9215,3.9155,3.9469,3.8856,3.8182,3.7464,3.7749,3.7375,3.6178,3.6641,3.6851,3.6552,3.6537,3.6537,3.6537,3.6492,3.6492,3.6492,3.6522,3.6552,3.6537,3.6537,3.6537,3.6522,3.6237,3.6043,3.6028,3.5444,3.5175,3.537,3.5026,3.4846,3.534,3.4981,3.4711,3.4996,3.531,3.5489,3.5564,3.6103,3.6866,3.8153,3.744,3.7122,3.8207,3.8461,3.8497,3.8467,3.8153,3.7988,3.7943,3.7644,3.7345,3.703,3.6985,3.6851,3.6582,3.6282,3.6058,3.6028,3.5714,3.5549,3.5489,3.5489,3.5489,3.5489,3.5489,3.575,4.3305,4.3305,4.3305,4.3215,4.3075,4.262,4.2021,4.1437,4.1407,4.0816,3.9918,3.9723,3.9523,3.9388,3.9388,3.9388,3.9388,3.9388,3.9388,3.9388,3.9388,3.9388,3.9388,3.9388,3.9388,3.9499,4.0098,4.0127,3.9843,4.0965,4.1429,4.11,4.1055,4.098,4.0846,4.0352,4.0262,4.0636,4.1115,4.1482,4.1594,4.1324,4.1257,4.1369,4.1055,4.0935,4.0905,4.0442,4.0247,4.0352,3.9634,3.8841,3.8167,3.8422,3.8108,3.712,3.7509,3.7719,3.7434,3.7404,3.7404,3.7389,3.6971,3.6701,3.6731,3.7135,3.727,3.703,3.6881,3.6896,3.6806,3.6507,3.6267,3.6237,3.5818,3.5489,3.5489,3.5489,3.5489,3.5489,3.5489,3.5459,3.5489,3.5489,3.5654,3.5938,3.5923,3.6671,3.8123,3.7848,3.8072,3.8889,3.9388,3.9313,3.9394,3.899,3.8661,3.8616,3.8242,3.7928,3.7734,3.7629,3.7509,3.736,3.7,3.6731,3.6641,3.6193,3.5833,3.5789,3.5654,3.5489,3.5489,3.5489,3.5636,4.3305,4.3305,4.3305,4.2985,4.256,4.2455,4.2066,4.1474,4.1437,4.1324,4.1115,4.0576,3.9993,3.9433,3.9418,3.9418,3.9388,3.9388,3.9388,3.9388,3.9388,3.9388,3.9388,3.9388,3.9388,3.9514,4.0098,4.0367,4.0382,4.1617,4.2506,4.2961,4.3035,4.2671,4.2246,4.2096,4.1841,4.1347,4.1392,4.1707,4.2186,4.11,4.0786,4.1354,4.0247,3.9604,3.9798,3.9508,3.9813,4.0232,3.9275,3.9035,3.9888,3.9619,3.899,3.8272,3.8811,3.8721,3.7554,3.7404,3.7404,3.7404,3.733,3.7285,3.7285,3.736,3.6911,3.6118,3.5774,3.5893,3.5684,3.5714,3.5789,3.5863,3.5714,3.5489,3.5564,3.5489,3.5489,3.5489,3.5684,3.5504,3.5654,3.5654,3.6028,3.6911,3.6985,3.7479,3.8701,3.8859,3.8844,3.9254,3.9388,3.9388,3.9373,3.9358,3.923,3.926,3.9224,3.8886,3.8467,3.8272,3.8153,3.7868,3.7524,3.7449,3.721,3.6836,3.6417,3.6312,3.6013,3.5549,3.5504,3.5504,3.5602,4.3305,4.3305,4.3305,4.314,4.294,4.294,4.2791,4.2551,4.2536,4.2312,4.1991,4.1722,4.0995,4.0008,4.0008,3.9762,3.9439,3.9388,3.9388,3.9388,3.9388,3.9388,3.9388,3.9388,3.9619,3.9993,4.0277,4.0606,4.1025,4.1587,4.2312,4.3095,4.2581,4.2237,4.2336,4.2021,4.1871,4.2006,4.1991,4.2306,4.2746,4.2043,4.1722,4.1916,4.1482,4.1175,4.116,4.116,4.1459,4.2058,4.1594,4.119,4.0965,4.0352,3.9514,3.8512,3.8272,3.7988,3.7449,3.7404,3.7404,3.7404,3.7404,3.7404,3.7404,3.7404,3.7165,3.6761,3.6626,3.6641,3.6626,3.6626,3.6641,3.6641,3.6626,3.6522,3.6297,3.6492,3.6716,3.6956,3.6806,3.6611,3.6626,3.6641,3.6851,3.7345,3.7419,3.7928,3.8691,3.8475,3.8588,3.9188,3.9388,3.9388,3.9388,3.9388,3.9388,3.9388,3.9388,3.923,3.9095,3.9005,3.8886,3.8586,3.8512,3.8317,3.8033,3.7494,3.7015,3.6896,3.6552,3.6088,3.6088,3.5774,3.5564,4.3305,4.3305,4.3305,4.3305,4.3305,4.3305,4.3305,4.3305,4.3305,4.306,4.2641,4.2665,4.2051,4.101,4.0756,4.0397,3.9993,3.9963,3.9948,3.9948,3.9963,3.9963,3.9948,3.9963,4.0202,4.0636,4.0876,4.1294,4.1848,4.1923,4.2402,4.306,4.2387,4.2096,4.2321,4.1886,4.1826,4.2096,4.2126,4.2455,4.2895,4.2611,4.2485,4.262,4.2485,4.2396,4.2396,4.2396,4.262,4.303,4.291,4.2462,4.1752,4.1025,4.0307,3.9565,3.8691,3.8227,3.8227,3.8063,3.7958,3.7973,3.7958,3.7958,3.7958,3.7958,3.7958,3.7958,3.7958,3.7853,3.7419,3.7404,3.7404,3.7404,3.7404,3.727,3.7015,3.7255,3.7494,3.7823,3.7464,3.7494,3.7644,3.7838,3.8078,3.8302,3.8317,3.8452,3.8925,3.8695,3.8485,3.9695,3.9978,3.9777,3.9493,3.9388,3.9388,3.9388,3.9388,3.9388,3.9388,3.9388,3.9409,3.9014,3.9298,3.9239,3.8751,3.8182,3.7569,3.7375,3.706,3.6746,3.6746,3.6222,3.5878,4.3305,4.3305,4.3305,4.3305,4.3305,4.3305,4.3305,4.3305,4.3305,4.326,4.3215,4.3215,4.2895,4.2246,4.1677,4.1324,4.1265,4.119,4.1175,4.1175,4.1242,4.1302,4.1294,4.1294,4.128,4.1332,4.1871,4.2462,4.308,4.3155,4.323,4.326,4.314,4.291,4.253,4.241,4.2081,4.1698,4.1677,4.1833,4.241,4.2455,4.2686,4.312,4.2725,4.2396,4.2396,4.2396,4.2425,4.247,4.1953,4.1788,4.2216,4.1722,4.1527,4.1826,4.0846,4.0172,4.0023,3.9529,3.9194,3.9224,3.9155,3.9239,3.9104,3.914,3.9104,3.9239,3.9155,3.8686,3.7764,3.7659,3.7584,3.752,3.7494,3.7494,3.7449,3.7584,3.7434,3.7584,3.7689,3.8003,3.8392,3.8931,3.9514,3.9963,4.0187,4.0352,4.0629,4.0017,3.9964,4.0726,4.1153,4.0913,3.9768,3.9553,3.9508,3.9388,3.9388,3.9388,3.9388,3.9388,3.9388,3.9388,3.9388,3.9328,3.9245,3.8856,3.8227,3.7868,3.7614,3.7404,3.7389,3.6851,3.6522,4.3305,4.3305,4.3305,4.3305,4.3305,4.3305,4.3305,4.3305,4.3305,4.3305,4.3305,4.3305,4.3155,4.297,4.2731,4.2177,4.1467,4.1422,4.1422,4.1422,4.1422,4.1422,4.1422,4.1422,4.1422,4.1527,4.2081,4.2701,4.3245,4.3305,4.3305,4.3305,4.3305,4.3155,4.3015,4.297,4.2851,4.2617,4.2626,4.2746,4.2925,4.2985,4.312,4.3245,4.2701,4.2396,4.2396,4.2396,4.259,4.2955,4.2746,4.2731,4.2851,4.1953,4.1265,4.1055,4.0262,3.9768,3.9753,3.9559,3.9388,3.9388,3.9388,3.9388,3.9388,3.9388,3.9388,3.9388,3.9388,3.9074,3.8886,3.8671,3.8656,3.8656,3.8691,3.8676,3.8691,3.8691,3.8656,3.8751,3.9035,3.9589,4.0068,4.0516,4.0756,4.0965,4.104,4.1175,4.1287,4.0912,4.0912,4.1384,4.2039,4.219,4.0876,4.0292,3.9978,3.9553,3.9388,3.9388,3.9388,3.9388,3.9388,3.9388,3.9388,3.9373,3.9305,3.9245,3.8691,3.8646,3.8377,3.8063,3.8033,3.7509,3.721,4.3305,4.3305,4.3305,4.3305,4.3305,4.3305,4.3305,4.3305,4.3305,4.3305,4.3305,4.3305,4.3305,4.3305,4.3305,4.2856,4.2073,4.2013,4.1998,4.2013,4.2013,4.1998,4.1998,4.2013,4.2013,4.2073,4.2447,4.2925,4.3245,4.3305,4.3305,4.3305,4.3305,4.3305,4.3305,4.3305,4.3305,4.3305,4.3305,4.329,4.3305,4.3305,4.3305,4.323,4.291,4.2605,4.241,4.2396,4.2575,4.294,4.3015,4.3015,4.291,4.1983,4.1332,4.0995,4.0217,3.9768,3.9747,3.9553,3.9388,3.9388,3.9388,3.9388,3.9388,3.9388,3.9388,3.9388,3.9388,3.9388,3.9388,3.9373,3.9463,3.9664,3.9738,3.9843,4.0023,4.0053,4.0053,4.0127,4.0606,4.1212,4.1662,4.1863,4.1998,4.2013,4.1998,4.1998,4.2036,4.2015,4.2031,4.2066,4.2692,4.267,4.1925,4.1309,4.0621,4.0172,3.9508,3.9448,3.9433,3.9433,3.9388,3.9388,3.9388,3.9388,3.9388,3.9388,3.9373,3.9379,3.9125,3.8736,3.8497,3.8167,3.7898,4.3305,4.3305,4.3305,4.3305,4.3305,4.3305,4.3305,4.3305,4.3305,4.3305,4.3305,4.3305,4.3305,4.3305,4.3305,4.3245,4.314,4.308,4.3095,4.311,4.314,4.314,4.3125,4.3095,4.308,4.308,4.32,4.3245,4.329,4.3305,4.3305,4.3305,4.3305,4.3305,4.3305,4.3305,4.3305,4.3305,4.3305,4.3305,4.3305,4.3305,4.3305,4.3305,4.3245,4.3,4.247,4.2455,4.2515,4.2515,4.253,4.244,4.2485,4.1826,4.1662,4.1886,4.1025,4.0502,4.0449,3.9792,3.9388,3.9388,3.9388,3.9388,3.9388,3.9388,3.9388,3.9388,3.9388,3.9388,3.9388,3.9388,3.9664,4.0247,4.0292,4.0516,4.107,4.1324,4.1407,4.1384,4.1826,4.2321,4.2515,4.2761,4.303,4.3035,4.305,4.3021,4.2976,4.2985,4.317,4.317,4.3189,4.2935,4.265,4.2321,4.1542,4.0771,4.0023,3.9619,3.9582,3.9568,3.9418,3.9388,3.9388,3.9388,3.9388,3.9388,3.9388,3.9358,3.929,3.923,3.899,3.8691,3.8542,4.3305,4.3305,4.3305,4.3305,4.3305,4.3305,4.3305,4.3305,4.3305,4.3305,4.3305,4.3305,4.3305,4.3305,4.3305,4.3305,4.3305,4.3305,4.3305,4.3305,4.3305,4.3305,4.3305,4.3305,4.3305,4.3215,4.2865,4.2925,4.323,4.3305,4.3305,4.3305,4.3305,4.3305,4.3305,4.3305,4.3305,4.3305,4.3305,4.3305,4.3305,4.3305,4.3305,4.3305,4.3305,4.3185,4.306,4.303,4.303,4.303,4.303,4.303,4.2836,4.1983,4.1504,4.1519,4.0457,3.9753,3.9747,3.9568,3.9388,3.9388,3.9388,3.9388,3.9388,3.9388,3.9388,3.9388,3.9388,3.9388,3.9388,3.9388,3.9672,4.0322,4.0412,4.0696,4.1369,4.1497,4.1647,4.2036,4.2291,4.2575,4.291,4.326,4.329,4.3305,4.3305,4.3305,4.3305,4.3305,4.3305,4.3305,4.326,4.3245,4.3,4.2716,4.2192,4.1489,4.0756,4.0127,4.0023,3.9903,3.9672,3.9448,3.9448,3.9388,3.9388,3.9388,3.9388,3.9388,3.9328,3.9328,3.9343,3.9194,3.899,4.3305,4.3305,4.3305,4.3305,4.3305,4.3305,4.3305,4.3305,4.3305,4.3305,4.3305,4.3305,4.3305,4.3305,4.3305,4.3305,4.3305,4.3305,4.3305,4.3305,4.3305,4.3305,4.3305,4.3305,4.3305,4.3245,4.2925,4.2925,4.326,4.3305,4.3305,4.3305,4.3305,4.3305,4.3305,4.3305,4.3305,4.3305,4.3305,4.3305,4.3305,4.3305,4.3305,4.3305,4.3305,4.3305,4.3305,4.3305,4.3305,4.3305,4.3305,4.3305,4.32,4.2132,4.1422,4.1145,4.0232,3.9403,3.9388,3.9418,3.9388,3.9388,3.9388,3.9388,3.9388,3.9388,3.9388,3.9388,3.9388,3.9265,3.8907,3.9213,3.9616,4.0111,4.0584,4.1122,4.1848,4.2102,4.2267,4.2641,4.2746,4.2955,4.317,4.3305,4.3305,4.3305,4.3305,4.3305,4.3305,4.3305,4.3305,4.3305,4.329,4.3275,4.3275,4.3075,4.2806,4.2207,4.1579,4.1055,4.0726,4.0591,4.0412,3.9918,3.9738,3.9433,3.9388,3.9388,3.9388,3.9388,3.9388,3.9388,3.9373,3.9373,3.9224,4.3305,4.3305,4.3305,4.3305,4.3305,4.3305,4.3305,4.3305,4.3305,4.3305,4.3305,4.3305,4.3305,4.3305,4.3305,4.3305,4.3305,4.3305,4.3305,4.3305,4.3305,4.3305,4.3305,4.3305,4.3305,4.329,4.3245,4.326,4.3305,4.3305,4.3305,4.3305,4.3305,4.3305,4.3305,4.3305,4.3305,4.3305,4.3305,4.3305,4.3305,4.3305,4.3305,4.3305,4.3305,4.3305,4.3305,4.3305,4.3305,4.3305,4.3305,4.3305,4.308,4.2132,4.1542,4.1474,4.0247,3.9783,3.9553,3.9702,3.9687,3.9738,3.9612,3.9433,3.9574,3.9499,3.9448,3.9523,3.9538,3.9216,3.8714,3.9099,3.972,3.9974,4.0953,4.201,4.305,4.3185,4.3125,4.3185,4.329,4.3305,4.3305,4.3305,4.3305,4.3305,4.3305,4.3305,4.3305,4.3305,4.3305,4.3305,4.3305,4.329,4.329,4.3245,4.303,4.2821,4.2282,4.1908,4.1309,4.1055,4.0756,4.0277,3.9873,3.9568,3.9388,3.9388,3.9388,3.9388,3.9388,3.9388,3.9388,3.9388,3.9388,4.3305,4.3305,4.3305,4.3305,4.3305,4.3305,4.3305,4.3305,4.3305,4.3305,4.3305,4.3305,4.3305,4.3305,4.3305,4.3305,4.3305,4.3305,4.3305,4.3305,4.3305,4.3305,4.3305,4.3305,4.3305,4.3305,4.3305,4.3305,4.3305,4.3305,4.3305,4.3305,4.3305,4.3305,4.3305,4.3305,4.3305,4.3305,4.3305,4.3305,4.3305,4.3305,4.3305,4.3305,4.3305,4.3305,4.3305,4.3305,4.3305,4.3305,4.3305,4.3305,4.323,4.2521,4.2081,4.1931,4.1324,4.0831,4.0816,4.0801,4.0831,4.0816,4.0367,4.0142,4.0127,3.9694,3.9687,3.9978,4.0157,4.0211,4.0359,4.0628,4.0687,4.0651,4.169,4.2733,4.3076,4.3305,4.3305,4.3305,4.3305,4.3305,4.3305,4.3305,4.3305,4.3305,4.3305,4.3305,4.3305,4.3305,4.3305,4.3305,4.3305,4.3305,4.3305,4.3305,4.326,4.3215,4.2931,4.2701,4.1968,4.128,4.0831,4.0322,3.9963,3.9664,3.9463,3.9388,3.9388,3.9388,3.9388,3.9388,3.9388,3.9388,3.9388,4.3305,4.3305,4.3305,4.3305,4.3305,4.3305,4.3305,4.3305,4.3305,4.3305,4.3305,4.3305,4.3305,4.3305,4.3305,4.3305,4.3305,4.3305,4.3305,4.3305,4.3305,4.3305,4.3305,4.3305,4.3305,4.3305,4.3305,4.3305,4.3305,4.3305,4.3305,4.3305,4.3305,4.3305,4.3305,4.3305,4.3305,4.3305,4.3305,4.3305,4.3305,4.3305,4.3305,4.3305,4.3305,4.3305,4.3305,4.3305,4.3305,4.3305,4.3305,4.3305,4.3245,4.2716,4.241,4.2366,4.1782,4.1407,4.1422,4.1422,4.1422,4.1324,4.0965,4.0846,4.0756,4.0442,4.0472,4.0741,4.0816,4.0792,4.0731,4.0973,4.1195,4.1429,4.2126,4.2614,4.2603,4.2981,4.325,4.3305,4.3305,4.3305,4.3305,4.3305,4.3305,4.3305,4.3305,4.3305,4.3305,4.3305,4.3305,4.3305,4.3305,4.3305,4.3305,4.3305,4.3305,4.329,4.3245,4.3105,4.2611,4.1758,4.1309,4.0831,4.0247,3.9768,3.9597,3.9463,3.9388,3.9388,3.9388,3.9388,3.9388,3.9388,3.9388,4.3305,4.3305,4.3305,4.3305,4.3305,4.3305,4.3305,4.3305,4.3305,4.3305,4.3305,4.3305,4.3305,4.3305,4.3305,4.3305,4.3305,4.3305,4.3305,4.3305,4.3305,4.3334,4.3514,4.3349,4.3305,4.3305,4.3305,4.3305,4.3305,4.3305,4.3305,4.3305,4.3305,4.3305,4.3305,4.3305,4.3305,4.3305,4.3305,4.3305,4.3305,4.3305,4.3305,4.3305,4.3305,4.3305,4.3305,4.3305,4.3305,4.3305,4.3305,4.3305,4.323,4.2761,4.2575,4.25,4.2102,4.1758,4.1654,4.1773,4.1683,4.1713,4.1624,4.1527,4.1482,4.1317,4.1235,4.1512,4.1398,4.0905,4.0531,4.064,4.1237,4.1871,4.193,4.1848,4.1738,4.2412,4.2996,4.3115,4.3076,4.3115,4.329,4.3305,4.3305,4.3305,4.3305,4.3305,4.3305,4.3305,4.3305,4.3305,4.3305,4.3305,4.3305,4.3305,4.3305,4.329,4.329,4.3185,4.3105,4.2491,4.2058,4.1557,4.0726,4.0142,3.9768,3.9649,3.9478,3.9388,3.9388,3.9388,3.9388,3.9388,3.9388,4.3305,4.3305,4.3305,4.3305,4.3305,4.3305,4.3305,4.3305,4.3305,4.3305,4.3305,4.3305,4.3334,4.3319,4.3394,4.3305,4.3409,4.3409,4.3305,4.3305,4.3305,4.3618,4.3843,4.3633,4.3349,4.3349,4.3319,4.3319,4.3334,4.3334,4.3305,4.3334,4.3334,4.3305,4.3305,4.3305,4.3305,4.3305,4.3305,4.3305,4.3305,4.3305,4.3305,4.3305,4.3305,4.3305,4.3305,4.3305,4.3305,4.3305,4.3305,4.3305,4.326,4.314,4.3075,4.3015,4.297,4.2865,4.2895,4.2806,4.288,4.2746,4.2387,4.2186,4.2156,4.1737,4.1767,4.1867,4.1347,4.1168,4.1191,4.1326,4.1548,4.1867,4.2254,4.2231,4.1429,4.0901,4.1295,4.1709,4.2,4.229,4.3115,4.325,4.3305,4.3305,4.325,4.3265,4.325,4.321,4.3305,4.3305,4.3305,4.3305,4.3305,4.3305,4.3305,4.3305,4.3305,4.329,4.317,4.2985,4.2462,4.1856,4.1138,4.0591,4.0142,3.9723,3.9538,3.9463,3.9388,3.9388,3.9388,3.9388,3.9388,4.3305,4.3305,4.3305,4.3305,4.3305,4.3305,4.3305,4.3305,4.3305,4.3305,4.3379,4.3629,4.3738,4.3783,4.4052,4.4272,4.4257,4.4257,4.4272,4.4287,4.4302,4.4451,4.4631,4.4421,4.4137,4.3868,4.3753,4.3753,4.3693,4.3539,4.3469,4.3733,4.3469,4.3305,4.3305,4.3305,4.3305,4.3305,4.3305,4.3305,4.3305,4.3305,4.3305,4.3305,4.3305,4.3305,4.3305,4.3305,4.3305,4.3305,4.3305,4.3305,4.3305,4.3305,4.3305,4.3305,4.3305,4.3305,4.329,4.3305,4.326,4.3305,4.3,4.2895,4.2776,4.2447,4.2476,4.2673,4.2543,4.2407,4.2116,4.2075,4.1989,4.1603,4.1643,4.1475,4.1097,4.0802,4.0421,4.0658,4.1049,4.1707,4.2345,4.29,4.286,4.2684,4.2193,4.2193,4.2629,4.2684,4.321,4.3305,4.3305,4.3305,4.3305,4.3305,4.3305,4.3305,4.3305,4.3305,4.3245,4.3045,4.2746,4.2162,4.1647,4.1025,4.0576,4.0142,3.9709,3.9478,3.9403,3.9388,3.9388,3.9388,3.9388,4.3305,4.3305,4.3305,4.3305,4.3319,4.3424,4.3484,4.3469,4.3559,4.3768,4.3693,4.4242,4.4466,4.4571,4.496,4.5244,4.5229,4.52,4.5065,4.5065,4.5065,4.5229,4.5364,4.5334,4.5155,4.4646,4.4496,4.4466,4.4317,4.3947,4.4107,4.4302,4.3768,4.3589,4.3499,4.3319,4.3305,4.3305,4.3305,4.3305,4.3305,4.3305,4.3305,4.3305,4.3305,4.3305,4.3305,4.3305,4.3305,4.3305,4.3305,4.3305,4.3305,4.3305,4.3305,4.3305,4.3305,4.3305,4.3349,4.3394,4.3469,4.3349,4.3424,4.3439,4.3424,4.3424,4.3484,4.3643,4.3642,4.3422,4.2721,4.2493,4.2205,4.1691,4.0703,4.0617,4.1128,4.1437,4.0365,3.9452,4.0238,4.1224,4.1988,4.2603,4.229,4.1974,4.1545,4.1364,4.185,4.233,4.29,4.3305,4.3305,4.3305,4.3305,4.3305,4.3305,4.3305,4.3305,4.3305,4.3305,4.3155,4.297,4.2701,4.2192,4.1624,4.104,4.0561,4.0127,3.9657,3.9418,3.9388,3.9388,3.9388,3.9388,4.3305,4.3305,4.3305,4.3305,4.3394,4.3913,4.4152,4.4242,4.4676,4.4945,4.493,4.5095,4.514,4.52,4.5214,4.5319,4.5469,4.5514,4.5469,4.5454,4.5484,4.5663,4.6097,4.6142,4.6067,4.5873,4.5514,4.5229,4.514,4.5035,4.49,4.4945,4.4481,4.4167,4.4003,4.3618,4.3394,4.3394,4.3349,4.3305,4.3394,4.3394,4.3334,4.3319,4.3305,4.3305,4.3305,4.3305,4.3305,4.3305,4.3305,4.3305,4.3305,4.3305,4.3305,4.3305,4.3305,4.3305,4.3334,4.3823,4.3723,4.3589,4.3813,4.4137,4.4152,4.4142,4.428,4.4365,4.3982,4.3357,4.268,4.241,4.2193,4.1692,4.1338,4.1368,4.1909,4.1284,3.996,3.9022,3.9806,4.0717,4.1393,4.1823,4.1545,4.1504,4.156,4.1518,4.1906,4.2345,4.282,4.313,4.3305,4.3305,4.3305,4.3305,4.3305,4.3305,4.3305,4.3305,4.3305,4.3305,4.314,4.294,4.2686,4.2276,4.1669,4.107,4.0666,4.0322,3.9903,3.9448,3.9493,3.9568,3.9403,4.3305,4.3334,4.3648,4.3798,4.3958,4.4541,4.4811,4.4855,4.5155,4.5289,4.5394,4.5633,4.5828,4.5918,4.6232,4.6337,4.6307,4.6337,4.6337,4.6337,4.6367,4.6456,4.68,4.6815,4.683,4.6741,4.6471,4.6082,4.5813,4.5409,4.5559,4.5618,4.5155,4.4825,4.4676,4.4197,4.3858,4.3753,4.3529,4.3499,4.3768,4.3838,4.3678,4.3394,4.3334,4.3305,4.3305,4.3305,4.3305,4.3305,4.3305,4.3305,4.3305,4.3305,4.3305,4.3305,4.3305,4.3305,4.3394,4.3913,4.4122,4.4003,4.4451,4.4781,4.4811,4.4829,4.4876,4.454,4.3428,4.2368,4.169,4.1751,4.1173,4.0487,4.0499,4.0815,4.0754,4.0239,3.9604,3.8948,3.9579,4.0232,4.0675,4.0873,4.0689,4.0901,4.1309,4.1574,4.1796,4.2222,4.2563,4.2085,4.2249,4.286,4.29,4.3036,4.321,4.329,4.3305,4.3305,4.3305,4.3305,4.3305,4.32,4.297,4.2701,4.2351,4.1782,4.1377,4.092,4.0457,4.0053,3.9888,3.9753,3.9568,4.3693,4.3738,4.4287,4.4511,4.4631,4.5214,4.5499,4.5529,4.5678,4.5783,4.5768,4.6247,4.6474,4.6651,4.698,4.7264,4.7309,4.7249,4.7204,4.7174,4.7174,4.7264,4.7294,4.7309,4.7249,4.7174,4.716,4.7025,4.6546,4.6097,4.6127,4.6187,4.5843,4.5499,4.5379,4.484,4.4601,4.4347,4.4022,4.4047,4.4392,4.4481,4.4287,4.3753,4.3678,4.3708,4.3589,4.3574,4.3439,4.3364,4.3305,4.3305,4.3305,4.3305,4.3305,4.3305,4.3305,4.3305,4.3469,4.4152,4.4511,4.4257,4.505,4.5394,4.5574,4.5609,4.5595,4.4792,4.3529,4.2381,4.1939,4.1137,4.0232,3.9379,3.9458,3.9651,3.9162,3.8957,3.9489,3.9271,3.9448,3.9711,4.0102,4.0375,4.0275,4.0175,4.0575,4.0575,4.0887,4.1699,4.1823,4.0944,4.0986,4.2029,4.2426,4.2589,4.29,4.325,4.329,4.3305,4.3305,4.3305,4.3305,4.3305,4.326,4.303,4.2701,4.2425,4.1976,4.1512,4.098,4.0561,4.0232,3.9978,3.9798,4.5065,4.5065,4.514,4.5185,4.5289,4.5903,4.616,4.6277,4.6756,4.707,4.6905,4.7085,4.713,4.7174,4.7219,4.7309,4.7309,4.7309,4.7309,4.7309,4.7309,4.7309,4.7309,4.7309,4.7309,4.7309,4.7309,4.7279,4.707,4.6935,4.6995,4.6965,4.6531,4.616,4.6127,4.5529,4.52,4.517,4.5095,4.5065,4.511,4.514,4.511,4.499,4.49,4.4676,4.4227,4.4122,4.3888,4.3484,4.3349,4.3305,4.3305,4.3305,4.3305,4.3305,4.3305,4.3305,4.3469,4.4302,4.484,4.4721,4.5397,4.601,4.6207,4.6276,4.637,4.6955,4.5024,4.3454,4.2398,4.163,4.0131,3.937,3.9288,3.8554,3.7691,3.8043,3.8572,3.8693,3.8604,3.9006,3.9448,3.9724,3.9899,3.9812,3.9754,3.9754,4.0015,4.0831,4.1295,4.0462,4.0732,4.1767,4.2508,4.2589,4.2805,4.3235,4.329,4.3305,4.3305,4.3305,4.3305,4.3305,4.3305,4.329,4.3075,4.2761,4.2485,4.2126,4.1669,4.107,4.0472,4.0232,4.0023,4.5992,4.5319,4.5723,4.5873,4.5963,4.6591,4.6875,4.6935,4.7174,4.7309,4.7309,4.7309,4.7309,4.7309,4.7309,4.7309,4.7309,4.7309,4.7309,4.7309,4.7309,4.7309,4.7309,4.7309,4.7309,4.7309,4.7309,4.7309,4.7309,4.7309,4.7309,4.7264,4.704,4.6875,4.6756,4.6202,4.5948,4.5873,4.5843,4.5663,4.5499,4.5633,4.5693,4.5334,4.5334,4.5155,4.49,4.4436,4.4451,4.4167,4.3828,4.3499,4.3633,4.3544,4.3305,4.3305,4.3305,4.3305,4.3424,4.4231,4.4661,4.511,4.5753,4.6384,4.6528,4.5917,4.5358,4.5055,4.3082,4.2104,4.2147,4.1553,4.034,3.9522,3.9305,3.831,3.7407,3.7289,3.7553,3.7632,3.7802,3.8257,3.8482,3.827,3.8315,3.827,3.8437,3.8693,3.9139,3.9885,4.0175,4.0147,4.0845,4.1864,4.2548,4.2941,4.2981,4.325,4.329,4.3305,4.3305,4.3305,4.3305,4.3305,4.3305,4.329,4.3275,4.3125,4.288,4.2626,4.2425,4.1818,4.122,4.0472,4.0202,4.6711,4.5858,4.6309,4.6576,4.6606,4.7115,4.7294,4.7294,4.7309,4.7309,4.7309,4.7309,4.7309,4.7309,4.7309,4.7309,4.7309,4.7309,4.7309,4.7309,4.7309,4.7309,4.7309,4.7309,4.7309,4.7309,4.7309,4.7309,4.7309,4.7309,4.7309,4.7309,4.7249,4.7249,4.716,4.6845,4.6561,4.6561,4.6561,4.6322,4.6067,4.6352,4.6247,4.5992,4.5783,4.5708,4.5499,4.5185,4.5185,4.4885,4.4451,4.4212,4.4407,4.3992,4.3663,4.3574,4.3484,4.3305,4.3559,4.4152,4.4721,4.5364,4.6097,4.683,4.6957,4.5358,4.4503,4.5055,4.2535,4.143,4.0824,4.1055,3.986,3.9357,3.9311,3.8344,3.7559,3.7533,3.7592,3.7815,3.7835,3.7415,3.7428,3.6849,3.6675,3.6628,3.6977,3.7599,3.8211,3.8917,3.8961,3.9067,4.0218,4.1127,4.1684,4.229,4.2684,4.325,4.3305,4.3305,4.3305,4.3305,4.3305,4.3305,4.3305,4.329,4.329,4.329,4.329,4.306,4.2791,4.2566,4.2051,4.1175,4.0307,4.7264,4.7174,4.7204,4.7204,4.7204,4.7279,4.7309,4.7309,4.7309,4.7309,4.7309,4.7309,4.7309,4.7309,4.7309,4.7309,4.7309,4.7309,4.7309,4.7309,4.7309,4.7309,4.7309,4.7309,4.7309,4.7309,4.7309,4.7309,4.7309,4.7309,4.7309,4.7309,4.7309,4.7309,4.7279,4.716,4.7085,4.7085,4.7085,4.7115,4.698,4.71,4.707,4.7085,4.704,4.689,4.6264,4.601,4.5888,4.5544,4.5095,4.5005,4.505,4.4586,4.4272,4.4167,4.3693,4.3514,4.3678,4.4242,4.5035,4.5603,4.6337,4.713,4.7193,4.7178,4.6843,4.602,4.3223,4.1911,4.1159,4.0358,3.978,3.9338,3.9363,3.8904,3.8219,3.7933,3.7959,3.8109,3.7821,3.7235,3.7023,3.6628,3.6465,3.6499,3.6499,3.707,3.7289,3.7815,3.7691,3.7984,3.9241,4.0029,4.0318,4.1057,4.2208,4.2996,4.3305,4.3305,4.3305,4.3305,4.3305,4.3305,4.3305,4.3305,4.3305,4.3305,4.3305,4.3305,4.314,4.2851,4.241,4.1587,4.0606,4.7309,4.7309,4.7309,4.7309,4.7309,4.7309,4.7309,4.7309,4.7309,4.7309,4.7309,4.7309,4.7309,4.7309,4.7309,4.7309,4.7309,4.7309,4.7309,4.7309,4.7309,4.7309,4.7309,4.7309,4.7309,4.7309,4.7309,4.7309,4.7309,4.7309,4.7309,4.7309,4.7309,4.7309,4.7309,4.7309,4.7309,4.7309,4.7309,4.7309,4.7309,4.7309,4.7309,4.7309,4.7309,4.7204,4.6905,4.6501,4.6441,4.6277,4.5738,4.5708,4.5768,4.5244,4.496,4.484,4.4287,4.3973,4.3783,4.4182,4.4392,4.5499,4.6456,4.7294,4.7133,4.6342,4.5669,4.47,4.3553,4.206,4.108,4.1057,4.0988,4.0049,3.9461,3.9237,3.9002,3.8714,3.7704,3.7611,3.7193,3.6687,3.6628,3.6593,3.6499,3.6417,3.6417,3.6452,3.6756,3.707,3.7116,3.7474,3.8662,3.9754,4.0131,4.1028,4.1974,4.2589,4.321,4.3305,4.3305,4.3305,4.3305,4.3305,4.3305,4.3305,4.3305,4.3305,4.3305,4.3305,4.32,4.303,4.2476,4.1901,4.11,4.7309,4.7309,4.7309,4.7309,4.7309,4.7309,4.7309,4.7309,4.7309,4.7309,4.7309,4.7309,4.7309,4.7309,4.7309,4.7309,4.7309,4.7309,4.7309,4.7309,4.7309,4.7309,4.7309,4.7309,4.7309,4.7309,4.7309,4.7309,4.7309,4.7309,4.7309,4.7309,4.7309,4.7309,4.7309,4.7309,4.7309,4.7309,4.7309,4.7309,4.7309,4.7309,4.7309,4.7309,4.7309,4.7294,4.716,4.6905,4.6905,4.6815,4.6561,4.6277,4.6217,4.6067,4.5678,4.5394,4.5035,4.4571,4.4272,4.4287,4.4526,4.5978,4.6696,4.713,4.6661,4.5726,4.5463,4.4777,4.3192,4.1795,4.1267,4.1389,4.1019,4.0007,4.0043,3.9867,3.9881,3.9555,3.8004,3.6968,3.6803,3.707,3.707,3.7163,3.6803,3.6628,3.6417,3.6405,3.6534,3.6803,3.707,3.7507,3.8302,3.9346,4.029,4.107,4.1767,4.2193,4.278,4.321,4.3305,4.3305,4.3305,4.3305,4.3305,4.3305,4.3305,4.3305,4.3305,4.3305,4.32,4.3095,4.2626,4.2081,4.1692,4.7309,4.7309,4.7309,4.7309,4.7309,4.7309,4.7309,4.7309,4.7309,4.7309,4.7309,4.7309,4.7309,4.7309,4.7309,4.7309,4.7309,4.7309,4.7309,4.7309,4.7309,4.7309,4.7309,4.7309,4.7309,4.7309,4.7309,4.7309,4.7309,4.7309,4.7309,4.7309,4.7309,4.7309,4.7309,4.7309,4.7309,4.7309,4.7309,4.7309,4.7309,4.7309,4.7309,4.7309,4.7309,4.7309,4.7249,4.7204,4.7174,4.7145,4.713,4.6995,4.701,4.6606,4.6322,4.6204,4.5648,4.505,4.4526,4.496,4.5723,4.6606,4.7055,4.71,4.6606,4.6077,4.5569,4.4699,4.3661,4.2811,4.2208,4.1592,4.0834,4.0281,4.0345,4.0812,4.0838,3.9704,3.8103,3.7551,3.7821,3.7984,3.7939,3.7815,3.7276,3.6883,3.6546,3.6452,3.6487,3.6883,3.7289,3.7769,3.8392,3.905,4.0045,4.0859,4.1504,4.1906,4.229,4.278,4.317,4.3305,4.3305,4.3305,4.3305,4.3305,4.3305,4.3305,4.3305,4.3305,4.3305,4.314,4.2686,4.2381,4.2058,4.7309,4.7309,4.7309,4.7309,4.7309,4.7309,4.7309,4.7309,4.7309,4.7309,4.7309,4.7309,4.7309,4.7309,4.7309,4.7309,4.7309,4.7309,4.7309,4.7309,4.7309,4.7309,4.7309,4.7309,4.7309,4.7309,4.7309,4.7309,4.7309,4.7309,4.7309,4.7309,4.7309,4.7309,4.7309,4.7309,4.7309,4.7309,4.7309,4.7309,4.7309,4.7309,4.7309,4.7309,4.7309,4.7309,4.7309,4.7309,4.7309,4.7309,4.7309,4.7309,4.7309,4.6935,4.695,4.683,4.6352,4.6157,4.6037,4.6277,4.6085,4.6741,4.707,4.7174,4.695,4.6052,4.5268,4.4347,4.3413,4.2367,4.0895,4.1695,4.1367,4.0485,4.0601,4.1739,4.1705,3.9679,3.8147,3.8591,3.8934,3.7743,3.7335,3.7906,3.7678,3.7461,3.7163,3.6756,3.6709,3.7368,3.7861,3.8211,3.8693,3.9139,3.9754,4.0561,4.1253,4.1726,4.2029,4.233,4.2684,4.321,4.3305,4.3305,4.3305,4.3305,4.3305,4.3305,4.3305,4.3305,4.3305,4.3305,4.306,4.2851,4.2731,4.7309,4.7309,4.7309,4.7309,4.7309,4.7309,4.7309,4.7309,4.7309,4.7309,4.7309,4.7309,4.7309,4.7309,4.7309,4.7309,4.7309,4.7309,4.7309,4.7309,4.7309,4.7309,4.7309,4.7354,4.7309,4.7324,4.7324,4.7309,4.7309,4.7309,4.7309,4.7309,4.7309,4.7309,4.7309,4.7309,4.7309,4.7309,4.7309,4.7309,4.7309,4.7309,4.7309,4.7309,4.7309,4.7309,4.7309,4.7309,4.7309,4.7309,4.7309,4.7309,4.7309,4.7309,4.7309,4.713,4.7025,4.701,4.7264,4.7294,4.7264,4.7593,4.7444,4.716,4.6875,4.5933,4.5206,4.4242,4.2965,4.2237,4.1653,4.2506,4.1426,4.0504,4.1043,4.218,4.0727,3.8621,3.9241,3.9639,3.9383,3.8044,3.7116,3.7553,3.8043,3.7906,3.7769,3.7415,3.7137,3.773,3.8262,3.8545,3.9009,3.9481,3.9844,4.0304,4.0944,4.1504,4.1891,4.2249,4.2725,4.3305,4.3305,4.3305,4.3305,4.3305,4.3305,4.3305,4.3305,4.3305,4.3305,4.3305,4.3305,4.32,4.3105,4.7309,4.7309,4.7309,4.7309,4.7309,4.7309,4.7309,4.7309,4.7309,4.7309,4.7309,4.7309,4.7309,4.7309,4.7309,4.7309,4.7309,4.7309,4.7399,4.7414,4.7504,4.7489,4.7563,4.7608,4.7743,4.7549,4.7459,4.7563,4.7384,4.7309,4.7309,4.7309,4.7309,4.7309,4.7309,4.7309,4.7309,4.7309,4.7309,4.7309,4.7309,4.7309,4.7309,4.7309,4.7309,4.7309,4.7309,4.7309,4.7309,4.7309,4.7309,4.7309,4.7309,4.7309,4.7309,4.7294,4.7264,4.7713,4.8147,4.8177,4.8521,4.8656,4.7952,4.7204,4.6471,4.5831,4.5013,4.4187,4.3096,4.3328,4.3434,4.2228,4.1015,4.1042,4.1378,4.0688,3.8948,3.8693,4.0002,4.0374,3.9954,3.9152,3.8527,3.8617,3.8693,3.8482,3.8437,3.8469,3.8217,3.8143,3.8559,3.8595,3.9146,3.979,4.022,4.0675,4.0944,4.1587,4.2152,4.2548,4.3036,4.3305,4.3305,4.3305,4.3305,4.3305,4.3305,4.3305,4.3305,4.3305,4.3305,4.3305,4.3305,4.3305,4.32,4.7309,4.7309,4.7309,4.7309,4.7309,4.7309,4.7309,4.7309,4.7309,4.7309,4.7309,4.7309,4.7309,4.7309,4.7309,4.7309,4.7309,4.7384,4.7668,4.7788,4.7893,4.8282,4.8506,4.8581,4.8671,4.8491,4.8267,4.7997,4.7893,4.7653,4.7384,4.7309,4.7399,4.7384,4.7324,4.7309,4.7309,4.7309,4.7309,4.7309,4.7309,4.7309,4.7309,4.7309,4.7309,4.7309,4.7309,4.7309,4.7309,4.7309,4.7309,4.7309,4.7309,4.7309,4.7309,4.7369,4.7728,4.8282,4.8865,4.903,4.9209,4.9449,4.8686,4.7818,4.6965,4.5968,4.4953,4.4261,4.3434,4.3425,4.3419,4.2492,4.1647,4.1699,4.185,4.1014,3.9508,3.9434,4.0703,4.1,4.0575,4.0275,3.9697,3.9522,3.9566,3.9227,3.9019,3.905,3.9407,3.9371,3.9064,3.9102,3.9908,4.0759,4.0985,4.1322,4.1462,4.167,4.2275,4.2805,4.3115,4.3305,4.3305,4.3305,4.3305,4.3305,4.3305,4.3305,4.3305,4.3305,4.3305,4.3305,4.3305,4.3305,4.3305,4.7309,4.7309,4.7309,4.7309,4.7309,4.7309,4.7309,4.7309,4.7309,4.7309,4.7309,4.7309,4.7309,4.7309,4.7309,4.7309,4.7309,4.7339,4.7608,4.8117,4.8356,4.87,4.9075,4.9344,4.9209,4.9134,4.9015,4.8671,4.8521,4.8327,4.8072,4.7743,4.7698,4.7519,4.7384,4.7309,4.7309,4.7309,4.7309,4.7309,4.7309,4.7309,4.7309,4.7309,4.7309,4.7309,4.7309,4.7309,4.7309,4.7309,4.7309,4.7309,4.7309,4.7309,4.7309,4.7414,4.7893,4.8312,4.876,4.9404,4.9658,4.9628,4.9105,4.8297,4.7324,4.6324,4.5682,4.5029,4.4103,4.3387,4.3213,4.301,4.265,4.236,4.2126,4.185,4.1197,4.0561,4.0901,4.1364,4.1337,4.1127,4.0873,4.0661,4.0218,3.9623,3.9183,3.9094,3.9931,4.0831,4.0306,3.9887,4.0913,4.1924,4.1977,4.1974,4.2193,4.233,4.2589,4.3036,4.325,4.3305,4.3305,4.3305,4.3305,4.3305,4.3305,4.3305,4.3305,4.3305,4.3305,4.3305,4.3305,4.3305,4.3305,4.7309,4.7324,4.7354,4.7444,4.7399,4.7504,4.7549,4.7444,4.7489,4.7354,4.7324,4.7309,4.7369,4.7504,4.7534,4.7608,4.7728,4.7803,4.8162,4.8461,4.873,4.9105,4.9569,4.9524,4.9778,4.9614,4.9374,4.9254,4.9254,4.903,4.8715,4.8386,4.8371,4.8192,4.7848,4.7788,4.7833,4.7848,4.7638,4.7489,4.7339,4.7309,4.7309,4.7309,4.7309,4.7309,4.7309,4.7309,4.7309,4.7309,4.7309,4.7309,4.7309,4.7309,4.7309,4.7504,4.7938,4.8237,4.8671,4.9299,4.9523,4.9479,4.9224,4.8491,4.7593,4.6636,4.5962,4.535,4.4425,4.4145,4.4012,4.3445,4.2987,4.3099,4.3089,4.2919,4.2667,4.1859,4.1253,4.1726,4.185,4.1699,4.1809,4.156,4.0958,4.0145,3.9536,3.9316,3.9751,4.1176,4.1096,4.0477,4.1707,4.2554,4.2456,4.2548,4.2955,4.317,4.313,4.313,4.3265,4.3305,4.3305,4.3305,4.3305,4.3305,4.3305,4.3305,4.3305,4.3305,4.3305,4.3305,4.3305,4.3305,4.3305,4.7309,4.7369,4.7848,4.8042,4.8132,4.8596,4.8775,4.8745,4.8237,4.7788,4.7369,4.7369,4.7623,4.8027,4.8057,4.8222,4.8655,4.8551,4.9149,4.9479,4.9583,4.9838,5.0556,5.0511,5.0631,5.0571,5.0301,4.9793,4.9614,4.9434,4.9314,4.912,4.9075,4.8895,4.867,4.8596,4.8581,4.8521,4.8222,4.7833,4.7549,4.7384,4.7309,4.7309,4.7309,4.7309,4.7309,4.7309,4.7309,4.7309,4.7309,4.7309,4.7309,4.7309,4.7309,4.7429,4.7863,4.8102,4.8416,4.8925,4.9194,4.9105,4.882,4.8461,4.7818,4.6875,4.6062,4.5465,4.5128,4.5008,4.4716,4.4017,4.3528,4.3828,4.3991,4.3939,4.3926,4.2931,4.1881,4.1988,4.2249,4.2412,4.2548,4.2234,4.1643,4.0916,4.0116,3.9688,3.9533,4.0318,4.0739,4.0659,4.2246,4.2976,4.286,4.29,4.321,4.3305,4.321,4.325,4.3305,4.3305,4.3305,4.3305,4.3305,4.3305,4.3305,4.3305,4.3305,4.3305,4.3305,4.3305,4.3305,4.3305,4.3305,4.8177,4.8222,4.861,4.8775,4.8835,4.9164,4.9299,4.9239,4.888,4.8521,4.8132,4.7938,4.8102,4.87,4.8775,4.888,4.9344,4.9269,4.9553,4.9971,5.0315,5.0554,5.0928,5.1229,5.1139,5.1065,5.0885,5.0466,5.0077,5.0122,5.0137,4.9778,4.9688,4.9629,4.9434,4.9329,4.9359,4.9239,4.888,4.8521,4.8012,4.7743,4.7369,4.7309,4.7309,4.7324,4.7309,4.7309,4.7309,4.7309,4.7309,4.7309,4.7309,4.7309,4.7309,4.7384,4.7608,4.7848,4.8057,4.8371,4.8745,4.8491,4.7909,4.739,4.674,4.5933,4.6355,4.5886,4.6203,4.6156,4.5766,4.516,4.4778,4.4831,4.4162,4.3677,4.3505,4.2981,4.255,4.2725,4.286,4.286,4.2941,4.2941,4.2412,4.2208,4.1365,4.0661,4.0378,4.0161,4.0331,4.0847,4.2467,4.321,4.317,4.313,4.325,4.3305,4.3305,4.3305,4.3305,4.3305,4.3305,4.3305,4.3305,4.3305,4.3305,4.3305,4.3305,4.3305,4.3305,4.3305,4.3305,4.3305,4.3305,4.9254,4.9314,4.9359,4.9404,4.9464,4.9554,4.9614,4.9599,4.9419,4.9464,4.9434,4.885,4.8955,4.9224,4.9389,4.9449,4.9583,4.9838,5.0107,5.0255,5.039,5.0749,5.105,5.1229,5.1229,5.1229,5.1124,5.1109,5.0975,5.0945,5.072,5.0375,5.0257,5.0092,4.9719,4.9599,4.9718,4.9703,4.9553,4.9464,4.8865,4.8252,4.7893,4.7638,4.7399,4.7369,4.7384,4.7339,4.7339,4.7309,4.7309,4.7309,4.7309,4.7309,4.7309,4.7369,4.7369,4.7444,4.7519,4.7863,4.7863,4.7568,4.6837,4.6343,4.5863,4.5987,4.6403,4.6594,4.6914,4.6867,4.6435,4.6066,4.5709,4.5609,4.4682,4.3818,4.3577,4.3257,4.3301,4.3424,4.3394,4.3354,4.331,4.3295,4.309,4.297,4.2644,4.2152,4.1666,4.1488,4.1482,4.1776,4.2702,4.317,4.3305,4.3305,4.3305,4.3305,4.3305,4.3305,4.3305,4.3305,4.3305,4.3305,4.3305,4.3305,4.3305,4.3305,4.3305,4.3305,4.3305,4.3305,4.3305,4.3305,4.3305,4.9299,4.9344,4.9823,5.0001,5.0122,5.0586,5.084,5.075,5.0211,5.0331,5.0496,5.0182,4.9941,5.0016,5.0016,5.0197,5.0526,5.0616,5.078,5.1035,5.09,5.1065,5.1184,5.1229,5.1229,5.1229,5.1229,5.1229,5.1229,5.1214,5.1137,5.0975,5.099,5.0915,5.0885,5.075,5.0631,5.0511,5.0227,5.0047,4.9883,4.9389,4.9075,4.858,4.7863,4.7863,4.7803,4.7549,4.7384,4.7309,4.7341,4.7385,4.7268,4.7327,4.7399,4.7309,4.7309,4.7309,4.7444,4.7534,4.7489,4.7789,4.7258,4.6918,4.6683,4.6668,4.6844,4.6668,4.6843,4.6784,4.6416,4.5991,4.5727,4.6232,4.5895,4.5274,4.4867,4.424,4.3826,4.3813,4.3753,4.3678,4.3504,4.3324,4.2898,4.2747,4.2537,4.2126,4.2589,4.2596,4.2507,4.2771,4.309,4.321,4.3305,4.3305,4.3305,4.3305,4.3305,4.3305,4.3305,4.3305,4.3305,4.3305,4.3305,4.3305,4.3305,4.3305,4.3305,4.3305,4.3305,4.3305,4.3305,4.3305,4.3305]}]]